[[{"header":{"parameterUnit":"m.s-1","parameterCategory":1,"la1":30.6,"la2":29.2853,"lo1":-89.7004,"lo2":-87.6739,"dy":0.0162,"dx":0.0183,"nx":112,"ny":82,"refTime":"2024-03-02T06:00:00:Z","depth":0,"parameterNumber":2,"parameterNumberName":"U-component_of_WINDS"},"data":[0.0,0.0,0.0,0.0,0.0,0.0,0.0,0.0,0.0,0.0,0.0,0.0,0.0,0.0,0.0,0.0,0.0,0.0,0.0,0.0,0.0,0.0,0.0,0.0,0.0,0.0,0.0,0.0,0.0,0.0,0.0,0.0,0.0,0.0,0.0,0.0,0.0,0.0,0.0,0.0,0.0,0.0,0.0,0.0,0.0,0.0,0.0,0.0,0.0,0.0,0.0,0.0,0.0,0.0,0.0,0.0,0.0,0.0,0.0,0.0,0.0,0.0,0.0,0.0,0.0,0.0,0.0,0.0,0.0,0.0,0.0,0.0,0.0,0.0,0.0,0.0,0.0,0.0,0.0,0.0,0.0,0.0,0.0,0.0,0.0,0.0,0.0,0.0,0.0,0.0,0.0,0.1558,0.108,0.0897,0.1208,0.0512,0.0046,0.0,0.0,0.0,0.0,0.0,0.0,0.0,0.0,0.0,0.0,0.0,0.0,0.0,0.0,0.0,0.0,0.0,0.0,0.0,0.0,0.0,0.0,0.0,0.0,0.0,0.0,0.0,0.0,0.0,0.0,0.0,0.0,0.0,0.0,0.0,0.0,0.0,0.0,0.0,0.0,0.0,0.0,0.0,0.0,0.0,0.0,0.0,0.0,0.0,0.0,0.0,0.0,0.0,0.0,0.0,0.0,0.0,0.0,0.0,0.0,0.0,0.0,0.0,0.0,0.0,0.0,0.0,0.0,0.0,0.0,0.0,0.0,0.0,0.0,0.0,0.0,0.0,0.0,0.0,0.0,0.0,0.0,0.0,0.0,0.0,0.0,0.0,0.0,0.0,0.0,0.0,0.0,0.0,0.0,0.0,0.0,0.0,0.0,0.0,0.0,0.0,0.0,0.0,0.0,0.0,0.1669,0.1372,0.1159,0.1012,0.0961,0.0573,0.0238,0.0017,0.0,0.0,0.0,0.0,0.0,0.0,0.0,0.0,0.0,0.0,0.0,0.0,0.0,0.0,0.0,0.0,0.0,0.0,0.0,0.0,0.0,0.0,0.0,0.0,0.0,0.0,0.0,0.0,0.0,0.0,0.0,0.0,0.0,0.0,0.0,0.0,0.0,0.0,0.0,0.0,0.0,0.0,0.0,0.0,0.0,0.0,0.0,0.0,0.0,0.0,0.0,0.0,0.0,0.0,0.0,0.0,0.0,0.0,0.0,0.0,0.0,0.0,0.0,0.0,0.0,0.0,0.0,0.0,0.0,0.0,0.0,0.0,0.0,0.0,0.0,0.0,0.0,0.0,0.0,0.0,0.0,0.0,0.0,0.0,0.0,0.0,0.0,0.0,0.0,0.0,0.0,0.0,0.0,0.0,0.0,0.0,0.0,0.0,0.0,0.0,0.0,0.0,0.0,0.095,0.1002,0.1166,0.0907,0.0797,0.0996,0.0629,0.0281,0.0017,0.0878,0.0,0.0,0.0,0.0,0.0,0.0,0.0,0.0,0.0,0.0,0.0,0.0,0.0,0.0,0.0,0.0,0.0,0.0,0.0,0.0,0.0,0.0,0.0,0.0,0.0,0.0,0.0,0.0,0.0,0.0,0.0,0.0,0.0,0.0,0.0,0.0,0.0,0.0,0.0,0.0,0.0,0.0,0.0,0.0,0.0,0.0,0.0,0.0,0.0,0.0,0.0,0.0,0.0,0.0,0.0,0.0,0.0,0.0,0.0,0.0,0.0,0.0,0.0,0.0,0.0,0.0,0.0,0.0,0.0,0.0,0.0,0.0,0.0,0.0,0.0,0.0,0.0,0.0,0.0,0.0,0.0,0.0,0.0,0.0,0.0,0.0,0.0,0.0,0.0,0.0,0.0,0.0,0.0,0.0,0.0,0.0,0.0,0.0,0.0,0.0,0.0,0.0,0.0378,0.0379,0.0993,0.0729,0.0686,0.1117,0.0809,0.0447,0.0116,0.1073,0.0,0.0,0.0,0.0,0.0,0.0,0.0,0.0,0.0,0.0,0.0,0.0,0.0,0.0,0.0,0.0,0.0,0.0,0.0,0.0,0.0,0.0,0.0,0.0,0.0,0.0,0.0,0.0,0.0,0.0,0.0,0.0,0.0,0.0,0.0,0.0,0.0,0.0,0.0,0.0,0.0,0.0,0.0,0.0,0.0,0.0,0.0,0.0,0.0,0.0,0.0,0.0,0.0,0.0,0.0,0.0,0.0,0.0,0.0,0.0,0.0,0.0,0.0,0.0,0.0,0.0,0.0,0.0,0.0,0.0,0.0,0.0,0.0,0.0,0.0,0.0,0.0,0.0,0.0,0.0,0.0,0.0,0.0,0.0,0.0,0.0,0.0,0.0,0.0,0.0,0.0,0.0,0.0,0.0,0.0,0.0,0.0,0.0,0.0,0.0,0.0,0.0,0.03,0.024,0.0855,0.0881,0.0977,0.126,0.1201,0.0919,0.0397,0.0927,0.0,0.0,0.0,0.0,0.0,0.0,0.0,0.0,0.0,0.0,0.0,0.0,0.0,0.0,0.0,0.0,0.0,0.0,0.0,0.0,0.0,0.0,0.0,0.0,0.0,0.0,0.0,0.0,0.0,0.0,0.0,0.0,0.0,0.0,0.0,0.0,0.0,0.0,0.0,0.0,0.0,0.0,0.0,0.0,0.0,0.0,0.0,0.0,0.0,0.0,0.0,0.0,0.0,0.0,0.0,0.0,0.0,0.0,0.0,0.0,0.0,0.0,0.0,0.0,0.0,0.0,0.0,0.0,0.0,0.0,0.0,0.0,0.0,0.0,0.0,0.0,0.0,0.0,0.0,0.0,0.0,0.0,0.0,0.0,0.0,0.0,0.0,0.0,0.0,0.0,0.0,0.0,0.0,0.0,0.0,0.0,0.0,0.0,0.0,0.0,0.0,0.0,0.0112,0.0149,0.0,0.0771,0.0936,0.104,0.1298,0.1309,0.0976,0.0,0.0,0.0,0.0,0.0,0.0,0.0,0.0,0.0,0.0,0.0,0.0,0.0,0.0,0.0,0.0,0.0,0.0,0.0,0.0,0.0,0.0,0.0,0.0,0.0,0.0,0.0,0.0,0.0,0.0,0.0,0.0,0.0,0.0,0.0,0.0,0.0,0.0,0.0,0.0,0.0,0.0,0.0,0.0,0.0,0.0,0.0,0.0,0.0,0.0,0.0,0.0,0.0,0.0,0.0,0.0,0.0,0.0,0.0,0.0,0.0,0.0,0.0,0.0,0.0,0.0,0.0,0.0,0.0,0.0,0.0,0.0,0.0,0.0,0.0,0.0,0.0,0.0,0.0,0.0,0.0,0.0,0.0,0.0,0.0,0.0,0.0,0.0,0.0,0.0,0.0,0.0,0.0,0.0,0.0,0.0,0.0,0.0,0.0,0.0,0.0,0.0,0.0,0.0,0.0107,0.0,0.0601,0.0781,0.0892,0.1256,0.1426,0.1308,0.0,0.0,0.0,0.0,0.0,0.0,0.0,0.0,0.0,0.0,0.0,0.0,0.0,0.0,0.0,0.0,0.0,0.0,0.0,0.0,0.0,0.0,0.0,0.0,0.0,0.0,0.0,0.0,0.0,0.0,0.0,0.0,0.0,0.0,0.0,0.0,0.0,0.0,0.0,0.0,0.0,0.0,0.0,0.0,0.0,0.0,0.0,0.0,0.0,0.0,0.0,0.0,0.0,0.0,0.0,0.0,0.0,0.0,0.0,0.0,0.0,0.0,0.0,0.0,0.0,0.0,0.0,0.0,0.0,0.0,0.0,0.0,0.0,0.0,0.0,0.0,0.0,0.0,0.0,0.0,0.0,0.0,0.0,0.0,0.0,0.0,0.0,0.0,0.0,0.0,0.0,0.0,0.0,0.0,0.0,0.0,0.0,0.0,0.0,0.0,0.0,0.0,0.0,0.0,0.0101,0.0368,0.0401,0.0535,0.087,0.1082,0.1239,0.0,0.0,0.0,0.0,0.0,0.0,0.0,0.0,0.0,0.0,0.0,0.0,0.0,0.0,0.0,0.0,0.0,0.0,0.0,0.0,0.0,0.0,0.0,0.0,0.0,0.0,0.0,0.0,0.0,0.0,0.0,0.0,0.0,0.0,0.0,0.0,0.0,0.0,0.0,0.0,0.0,0.0,0.0,0.0,0.0,0.0,0.0,0.0,0.0,0.0,0.0,0.0,0.0,0.0,0.0,0.0,0.0,0.0,0.0,0.0,0.0,0.0,0.0,0.0,0.0,0.0,0.0,0.0,0.0,0.0,0.0,0.0,0.0,0.0,0.0,0.0,0.0,0.0,0.0,0.0,0.0,0.0,0.0,0.0,0.0,0.0,0.0,0.0,0.0,0.0,0.0,0.0,0.0,0.0,0.0,0.0,0.0,0.0,0.0,0.0,0.0,0.0,0.0,0.0,0.0,0.0034,0.0112,0.029,0.0446,0.0535,0.1082,0.1564,0.192,0.0,0.0,0.0,0.0,0.0,0.0,0.0,0.0,0.0,0.0,0.0,0.0,0.0,0.0,0.0,0.0,0.0,0.0,0.0,0.0,0.0,0.0,0.0,0.0,0.0,0.0,0.0,0.0,0.0,0.0,0.0,0.0,0.0,0.0,0.0,0.0,0.0,0.0,0.0,0.0,0.0,0.0,0.0,0.0,0.0,0.0,0.0,0.0,0.0,0.0,0.0,0.0,0.0,0.0,0.0,0.0,0.0,0.0,0.0,0.0,0.0,0.0,0.0,0.0,0.0,0.0,0.0,0.0,0.0,0.0,0.0,0.0,0.0,0.0,0.0,0.0,0.0,0.0,0.0,0.0,0.0,0.0,0.0,0.0,0.0,0.0,0.0,0.0,0.0,0.0,0.0,0.0,0.0,0.0,0.0,0.0,0.0,0.0,0.0,0.0,0.0,0.0,0.0,0.0,0.0,0.0,0.0145,0.0246,0.0246,0.0653,0.1165,0.1758,0.0,0.0,0.0,0.0,0.0,0.0,0.0,0.0,0.0,0.0,0.0,0.0,0.0,0.0,0.0,0.0,0.0,0.0,0.0,0.0,0.0,0.0,0.0,0.0,0.0,0.0,0.0,0.0,0.0,0.0,0.0,0.0,0.0,0.0,0.0,0.0,0.0,0.0,0.0,0.0,0.0,0.0,0.0,0.0,0.0,0.0,0.0,0.0,0.0,0.0,0.0,0.0,0.0,0.0,0.0,0.0,0.0,0.0,0.0,0.0,0.0,0.0,0.0,0.0,0.0,0.0,0.0,0.0,0.0,0.0,0.0,0.0,0.0,0.0,0.0,0.0,0.0,0.0,0.0,0.0,0.0,0.0,0.0,0.0,0.0,0.0,0.0,0.0,0.0,0.0,0.0,0.0,0.0,0.0,0.0,0.0,0.0,0.0,0.0,0.0,0.0,0.0,0.0,0.0,0.0,0.0,0.0,0.0,0.0,0.0,0.0346,0.115,0.0,0.0,0.0,0.0,0.0,0.0,0.0,0.0,0.0,0.0,0.0,0.0,0.0,0.0,0.0,0.0,0.0,0.0,0.0,0.0,0.0,0.0,0.0,0.0,0.0,0.0,0.0,0.0,0.0,0.0,0.0,0.0,0.0,0.0,0.0,0.0,0.0,0.0,0.0,0.0,0.0,0.0,0.0,0.0,0.0,0.0,0.0,0.0,0.0,0.0,0.0,0.0,0.0,0.0,0.0,0.0,0.0,0.0,0.0,0.0,0.0702,0.0,0.0,0.0,0.0,0.0,0.0,0.0,0.0,0.0,0.0,0.0,0.0,0.0,0.0,0.0,0.0,0.0,0.0,0.0,0.0,0.0,0.0,0.0,0.0,0.0,0.0,0.0,0.0,0.0,0.0,0.0,0.0,0.0,0.0,0.0,0.0,0.0,0.0,0.0,0.0,0.0,0.0,0.0,0.0,0.0,0.0,0.0,0.0,0.0,0.0341,0.115,0.0,0.0,0.0,0.0,0.0,0.0,0.0,0.0,0.0,0.0,0.0,0.0,0.0,0.0,0.0,0.0,0.0,0.0,0.0,0.0,0.0,0.0,0.0,0.0,0.0,0.0,0.0,0.0,0.0,0.0,0.0,0.0,0.0,0.0,0.0,0.0,0.0,0.0,0.0,0.0,0.0,0.0,0.0,0.0,0.0,0.0,0.0,0.0,0.0,0.0,0.0,0.0,0.0,0.0,0.0,0.0,0.0,0.0,0.0,0.0,0.0,0.1386,0.0,0.0,0.0,0.0,0.0,0.0,0.0,0.0,0.0,0.0,0.0,0.0,0.0,0.0,0.0,0.0,0.0,0.0,0.0,0.0,0.0,0.0,0.0,0.0,0.0,0.0,0.0,0.0,0.0,0.0,0.0,0.0,0.0,0.0,0.0,0.0,0.0,0.0,0.0,0.0,0.0,0.0,0.0,0.0,0.0,0.0,0.0,0.0,0.0185,0.0598,0.1097,0.0,0.0,0.0,0.0,0.0,0.0,0.0,0.0,0.0,0.0,0.0,0.0,0.0,0.0,0.0,0.0,0.0,0.0,0.0,0.0,0.0,0.0,0.0,0.0,0.0,0.0,0.0,0.0,0.0,0.0,0.0,0.0,0.0,0.0,0.0,0.0,0.0,0.0,0.0,0.0,0.0,0.0,0.0,0.0,0.0,0.0,0.0,0.0,0.0,0.0,0.0,0.0,0.0,0.0,0.0,0.0,0.0099,0.0688,0.1608,0.1704,0.1797,0.1872,0.0,0.0,0.0,0.0,0.0,0.0,0.0,0.0,0.0,0.0,0.0,0.0,0.0,0.0,0.0,0.0,0.0,0.0,0.0,0.0,0.0,0.0,0.0,0.0,0.0,0.0,0.0204,0.0,0.0,0.0,0.0,0.0,0.0,0.0,0.0,0.0,0.0,0.0,0.0,0.0,0.0,0.0,0.0,0.0,0.0,0.0,0.0,0.0,0.0,0.0464,0.1087,0.0,0.0,0.0,0.0,0.0,0.0,0.0,0.0,0.0,0.0,0.0,0.0,0.0,0.0,0.0,0.0,0.0,0.0,0.0,0.0,0.0,0.0,0.0,0.0,0.0,0.0,0.0,0.0,0.0,0.0,0.0,0.0,-0.2063,-0.195,0.0,0.0,0.0,0.0,0.0,0.0,0.0,0.0,0.0,0.0,0.0,0.0,0.0,0.0,-0.0732,-0.0647,-0.0403,0.0,0.0,0.0,0.0023,0.0547,0.1086,0.1629,0.2164,0.0,0.2906,0.3047,0.0,0.0,0.0,0.0,0.0,0.0,0.0,0.0,0.0,0.0,0.0,0.0,0.0,0.0,0.0,0.0,0.0,0.0,0.0,0.0,0.0,0.0,-0.0656,-0.0126,0.0,0.0202,0.0,0.0599,0.0373,0.1094,0.0,0.0,0.0,0.0,0.0,0.0,0.0,0.0,0.0,0.0,0.0,0.0,0.0,0.0,0.0,0.0,0.0,0.0,0.0082,0.0783,0.2253,0.2144,0.0,0.0,0.0,0.0,0.0,0.0,0.0,0.0,0.0,0.0,0.0,0.0,0.0,0.0,0.0,0.0,0.0,0.0,0.0,0.0,0.0,0.0,0.0,0.0,0.0,0.0,0.0,0.0,0.0,-0.2992,-0.235,-0.2201,-0.1561,-0.1546,0.0,0.0,0.0,0.0,0.0,0.0,0.0,0.0,0.0,-0.2847,-0.237,-0.2047,-0.194,-0.1192,-0.0716,-0.0497,-0.0152,0.0,0.0,0.0276,0.0918,0.1825,0.2025,0.2627,0.349,0.3346,0.3407,0.3551,0.0,0.0,0.0,0.0,0.0,0.2926,0.2459,0.0,0.0,0.0,0.0,0.0,0.0,0.0,0.0,0.0,0.0,0.0,0.0,0.0,0.0,-0.0786,-0.0606,-0.0404,0.0328,0.023,0.0338,0.0,0.1723,0.1591,0.1171,0.0,0.0,0.0,0.0,0.0,0.0,0.0,0.0,0.0,0.0,0.0,0.0,0.0,0.0,0.0,0.032,0.0873,0.1698,0.2097,0.2586,0.0,0.0,0.0,0.0,0.0,0.0,0.0,0.0,0.0,0.0,0.0,0.0,0.0,0.0,0.0,0.0,0.0,0.0,0.0,0.0,0.0,0.0,0.0,0.0,0.0,0.0,0.0,0.0,-0.3101,-0.2745,-0.2568,-0.2206,-0.2256,0.0,0.0,0.0,0.0,0.0,0.0,-0.3115,-0.2729,-0.2672,-0.2995,-0.2518,-0.244,-0.2851,-0.1715,-0.1051,-0.0895,-0.0281,0.0,0.0,0.0,0.0725,0.2001,0.1903,0.2503,0.3565,0.3458,0.3569,0.3785,0.351,0.3295,0.3072,0.2735,0.2409,0.2109,0.1809,0.1436,0.0984,0.0535,0.0,-0.0702,-0.1466,0.0,0.0,0.0,0.0,-0.2655,-0.248,0.0,-0.2216,-0.13,-0.1089,-0.0904,-0.0154,-0.0155,0.0104,0.0,0.164,0.145,0.0919,0.0,0.0,0.0,0.0,0.0,0.0,0.0,0.0,0.0,0.0,0.0,0.0,0.0,0.0,0.0,0.0569,0.1029,0.1343,0.2164,0.2937,0.3632,0.0,0.0,0.0,0.0,0.0,0.0,0.0,0.0,0.0,0.0,0.0,0.0,0.0,0.0,0.0,0.0,0.0,0.0,0.0,0.0,0.0,0.0,0.0,0.0,0.0,0.0,0.0,0.0,0.0,-0.268,-0.217,0.0,0.0,0.0,0.0,-0.4147,-0.4167,-0.3845,-0.315,-0.3606,-0.355,-0.2734,-0.3239,-0.3255,-0.2719,-0.2065,-0.1467,-0.0893,-0.0279,0.0,0.0,0.0,0.073,0.2005,0.198,0.2355,0.2995,0.3548,0.3778,0.3731,0.3153,0.2993,0.3004,0.2161,0.1928,0.1903,0.1199,0.0933,0.071,-0.0576,-0.1487,-0.2247,-0.3028,-0.3257,0.0,0.0,-0.4098,-0.3937,-0.3239,-0.3052,-0.2728,-0.1407,-0.1112,-0.091,-0.016,-0.0544,-0.0827,0.0,0.0104,0.0104,0.0055,0.0,0.0051,0.0,0.0,0.0,0.0,0.0,0.0,0.0,0.0,0.0,0.0,0.0,0.0,0.0,0.0569,0.1163,0.1741,0.2188,0.2843,0.3778,0.3672,0.0,0.0,0.0,0.0,0.0,0.0,0.0,0.0,0.0,0.0,0.0,0.0,0.0,0.0,0.0,0.0,0.0,0.0,0.0,0.0,0.0,0.0,0.0,0.0,0.0,0.0,0.0,0.0,-0.3404,-0.3378,0.0,0.0,-0.3884,-0.4017,-0.4194,-0.3842,-0.3461,-0.3131,-0.2938,-0.2928,-0.3079,-0.3199,-0.3396,-0.3652,-0.298,-0.2293,-0.1595,-0.1007,-0.047,0.0,0.0,0.0522,0.1433,0.1414,0.1804,0.2471,0.2678,0.2671,0.2482,0.2188,0.1911,0.164,0.1341,0.1005,0.0664,0.042,0.0,-0.0548,-0.1504,-0.2296,-0.2952,-0.3239,-0.368,-0.4116,-0.4344,-0.4385,-0.4331,-0.4056,-0.4002,-0.3627,-0.2169,-0.2202,-0.2225,-0.0991,-0.1279,-0.1733,-0.1478,-0.1033,-0.0707,-0.0697,-0.0302,0.0,0.0,0.0,0.0,0.0,0.0,0.0,0.0,0.0,0.0,0.0,0.0,0.0,0.0,0.0931,0.1585,0.1784,0.2679,0.3388,0.3843,0.3941,0.4078,0.0,0.0,0.0,0.0,0.0,0.0,0.0,0.0,0.0,0.0,0.0,0.0,0.0,0.0,0.0,0.0,0.0,0.0,0.0,0.0,0.0,0.0,0.0,0.0,0.0,0.0,-0.3829,-0.3934,-0.4055,-0.414,-0.419,-0.4287,-0.4294,-0.42,-0.3816,-0.3481,-0.318,-0.3048,-0.308,-0.3337,-0.3481,-0.3776,-0.4194,-0.3522,-0.2771,-0.1987,-0.1376,-0.0719,0.0,0.0,0.0406,0.1108,0.1107,0.1368,0.184,0.184,0.1577,0.1198,0.1371,0.1252,0.0941,0.068,0.0345,-0.0027,-0.0298,-0.1026,-0.1913,-0.2426,-0.3096,-0.3705,-0.371,-0.407,-0.4491,-0.4491,-0.4491,-0.4491,-0.4491,-0.4491,-0.4181,-0.2871,-0.2982,-0.301,-0.1758,-0.2054,-0.2578,-0.2581,-0.1989,-0.1459,-0.1477,-0.0858,-0.0382,-0.0373,-0.0158,0.0,0.0,0.0,0.0,0.0,0.0,0.0,0.0,0.0,0.0,0.0,0.0953,0.1618,0.1846,0.2826,0.3575,0.3999,0.4201,0.4358,0.4487,0.0,0.0,0.0,0.0,0.0,0.0,0.0,0.0,0.0,0.0,0.0,0.0,0.0,0.0,0.0,0.0,0.0,0.0,0.0,0.0,0.0,0.0,0.0,-0.3984,-0.3849,-0.3938,-0.4212,-0.4095,-0.4065,-0.4187,-0.4095,-0.4068,-0.419,-0.4204,-0.3964,-0.3365,-0.407,-0.4181,-0.3456,-0.4125,-0.4395,-0.4204,-0.3635,-0.2895,-0.2046,-0.1463,-0.0771,-0.0027,-0.0028,0.0364,0.1062,0.1062,0.1062,0.1062,0.1062,0.0643,0.0084,0.0783,0.1062,0.0978,0.0224,-0.0056,-0.0196,-0.0924,-0.2125,-0.3327,-0.3355,-0.3885,-0.4498,-0.4498,-0.4494,-0.4491,-0.4491,-0.4491,-0.4491,-0.4491,-0.4491,-0.4294,-0.3483,-0.3317,-0.3121,-0.2397,-0.2813,-0.3345,-0.3345,-0.2767,-0.2252,-0.2246,-0.1629,-0.1116,-0.1115,-0.0492,0.0,0.0,0.0,0.0,0.0,0.0,0.0,0.0,0.0,0.0,0.0,0.0561,0.1214,0.1927,0.2567,0.33,0.419,0.4389,0.4491,0.4491,0.0,0.0,0.0,0.0,0.0,0.0,0.0,0.0,0.0,0.0,0.0,0.0,0.0,0.0,0.0,0.0,0.0,0.0,0.0,0.0,0.0,0.0,-0.5663,-0.5437,-0.5113,-0.4911,-0.4986,-0.4616,-0.4385,-0.4426,-0.4392,-0.4385,-0.4426,-0.4429,-0.4337,-0.4177,-0.4377,-0.4405,-0.4211,-0.4405,-0.447,-0.4429,-0.4263,-0.3776,-0.301,-0.2846,-0.2064,-0.08,-0.0807,-0.0392,0.0308,0.0308,0.0308,0.0308,0.0308,0.0196,0.0028,0.0224,0.0308,0.0224,-0.0531,-0.1221,-0.1911,-0.2661,-0.3231,-0.3743,-0.4281,-0.4539,-0.4655,-0.4655,-0.458,-0.4491,-0.4491,-0.4491,-0.4491,-0.4491,-0.4491,-0.4294,-0.3483,-0.3735,-0.3959,-0.3176,-0.3622,-0.4181,-0.4181,-0.4012,-0.3692,-0.3088,-0.2378,-0.1707,-0.1185,0.0,0.0,-0.0079,0.0,0.0,0.0,0.0,0.0,0.0,0.0,0.0,0.0,0.0568,0.0993,0.1191,0.23,0.3313,0.419,0.4389,0.4491,0.0,0.0,0.0,0.0,0.0,0.0,0.0,0.0,0.0,0.0,0.0,0.0,0.0,0.0,0.0,0.0,0.0,0.0,0.0,0.0,0.0,0.0,-0.5488,-0.5892,-0.6464,-0.5821,-0.5331,-0.5377,-0.4864,-0.4491,-0.4491,-0.4491,-0.4491,-0.4491,-0.4491,-0.4491,-0.4491,-0.4491,-0.4349,-0.4015,-0.4015,-0.4015,-0.3984,-0.4015,-0.3818,-0.3345,-0.3345,-0.2732,-0.1563,-0.1229,-0.0866,0.0,-0.014,0.0,0.0,0.0,-0.0196,0.0,0.0,0.0,0.0,0.0,-0.222,-0.3018,-0.3457,-0.3889,-0.4333,-0.4766,-0.486,-0.4785,-0.4785,-0.4724,-0.4653,-0.4653,-0.4653,-0.4653,-0.4653,-0.4653,-0.4538,-0.407,-0.4333,-0.4538,-0.407,-0.4333,-0.4653,-0.4653,0.0,0.0,-0.3959,-0.3235,-0.2454,-0.1675,-0.1284,-0.0833,0.0,0.0,0.0,0.0,0.0,0.0,0.0,0.0,0.0,0.0,0.0,0.067,0.0979,0.2319,0.0,0.0,0.0,0.4491,0.4491,0.0,0.0,0.0,0.4491,0.4491,0.0,0.0,0.0,0.0,0.0,0.0,0.0,0.0,0.0,0.0,0.0,0.0,0.0,0.0,0.0,0.0,-0.5335,-0.5863,-0.7089,-0.6228,-0.5522,-0.5607,-0.503,-0.457,-0.4519,-0.4491,-0.4491,-0.4491,-0.4491,-0.4491,-0.4491,0.0,0.0,0.0,0.0,-0.3317,-0.3176,-0.3317,-0.3378,-0.3335,-0.3405,-0.3079,-0.234,-0.1569,-0.1178,-0.1074,-0.0337,-0.0056,-0.0113,-0.0112,-0.0561,-0.118,-0.0505,-0.0769,-0.1606,-0.2332,-0.3074,0.0,0.0,0.0,0.0,-0.4969,-0.4928,-0.4914,-0.4914,-0.4901,-0.4887,-0.4887,-0.4887,-0.4887,-0.4887,-0.4887,-0.4887,-0.4887,-0.4887,-0.4887,-0.4766,-0.4766,-0.4766,-0.4766,-0.4657,-0.4598,-0.4718,-0.3974,-0.3121,-0.2313,-0.1563,-0.0838,-0.0084,0.0,0.0,0.0,0.0,0.0,0.0,0.0,0.0,0.0,0.0,0.0321,0.1067,0.2442,0.3204,0.3287,0.4098,0.4491,0.4491,0.4491,0.4491,0.4491,0.4491,0.4491,0.0,0.0,0.0,0.0,0.0,0.0,0.0,0.0,0.0,0.0,0.0,0.0,0.0,0.0,0.0,-0.5614,-0.6057,-0.6505,-0.6918,-0.6751,-0.6535,-0.6408,-0.5737,-0.5081,-0.4543,-0.4491,-0.4491,-0.4491,-0.4491,-0.4491,-0.4491,-0.4491,0.0,-0.34,-0.34,-0.3095,-0.2425,-0.301,-0.3391,-0.354,0.0,0.0,-0.3465,-0.2459,-0.1724,-0.1206,-0.0373,-0.0341,-0.09,-0.0876,-0.1419,-0.2201,-0.189,-0.224,-0.2927,-0.3095,-0.3787,-0.4662,-0.4662,-0.4922,-0.531,-0.531,-0.5192,-0.5059,-0.5059,-0.4978,0.0,-0.4887,-0.4887,-0.4887,-0.4887,-0.4887,-0.4887,-0.4887,-0.4887,-0.4701,-0.3994,-0.3839,-0.3839,-0.3839,-0.382,-0.4049,-0.4753,-0.4062,-0.3121,-0.2313,-0.1563,-0.0838,-0.0084,0.0,0.0,0.0,0.0,0.0,0.0,0.0,0.0,0.0,0.0,0.0333,0.1079,0.1946,0.2704,0.3287,0.4098,0.4491,0.4491,0.4491,0.4491,0.4491,0.4491,0.4491,0.0,0.0,0.0,0.0,0.0,0.0,0.0,0.0,0.0,0.0,0.0,-0.4555,-0.4456,0.0,-0.5147,-0.5317,-0.5565,-0.5914,-0.6379,-0.6404,-0.6262,-0.6059,-0.5733,-0.5246,-0.457,-0.4491,-0.4491,-0.4491,-0.4491,-0.4491,-0.4491,-0.4125,-0.3566,-0.2815,-0.2454,-0.2065,-0.1647,-0.2009,-0.2643,-0.3517,-0.386,-0.4131,-0.4231,-0.3394,-0.2595,-0.1842,-0.1013,-0.086,-0.1261,-0.2096,-0.2722,-0.3177,-0.3451,-0.3545,-0.3611,-0.4053,-0.4554,-0.4992,-0.4992,-0.5172,-0.5395,-0.5395,-0.5344,-0.526,-0.5338,-0.5311,-0.527,-0.5342,-0.5359,-0.5359,-0.5359,-0.5359,-0.5342,-0.527,-0.5254,-0.4971,-0.4025,-0.3786,-0.3658,-0.3241,-0.3109,-0.3174,-0.3614,-0.2903,-0.2272,-0.2352,-0.1637,-0.0838,-0.0084,0.0,0.0,0.0,0.0,0.0,0.0,0.0,0.0,0.0,0.0,0.0168,0.0532,0.1257,0.2009,0.2732,0.3511,0.4098,0.4491,0.4491,0.4491,0.4491,0.4491,0.4491,0.0,0.0,0.0,0.0,0.0,0.0,0.0,0.0,-0.5982,-0.5845,-0.5385,-0.4925,-0.4723,-0.484,-0.4928,-0.4928,-0.4986,-0.5178,-0.5746,-0.5825,-0.5727,-0.5373,-0.5426,-0.5246,-0.457,-0.4491,-0.4491,-0.4491,-0.4491,-0.4436,-0.4267,-0.3677,-0.2899,-0.2009,-0.1424,-0.1037,-0.0875,-0.1016,-0.1815,-0.327,-0.3486,-0.4047,-0.4823,-0.4124,-0.3433,-0.275,-0.2082,-0.1793,-0.1907,-0.343,-0.4072,-0.4162,-0.4784,-0.4684,-0.4261,-0.4835,-0.5093,-0.514,-0.511,-0.5267,-0.5477,-0.5446,-0.5457,-0.5504,-0.5593,-0.563,-0.5654,-0.5769,-0.58,-0.58,-0.58,-0.58,-0.5772,-0.5657,-0.563,-0.5316,-0.4068,-0.3792,-0.3513,-0.2617,-0.233,-0.2321,-0.2517,-0.1755,-0.1389,-0.2125,-0.1464,-0.0676,-0.0084,0.0,0.0,0.0,0.0,0.0,0.0,0.0,0.0,0.0,0.0,0.0,0.0,0.0699,0.1368,0.1981,0.2843,0.3622,0.4267,0.4436,0.4491,0.4491,0.4491,0.4491,-0.8891,-0.8831,-0.8844,-0.8818,-0.8725,-0.8738,0.0,0.0,-0.7723,-0.7048,-0.644,-0.5761,-0.486,-0.4918,-0.5076,-0.5076,-0.5223,-0.5296,-0.522,-0.5651,-0.5689,-0.4883,-0.5206,-0.5246,-0.457,-0.4491,-0.4491,-0.4491,-0.4491,-0.4184,-0.3483,-0.34,-0.2732,-0.1256,-0.1146,-0.0794,-0.0117,-0.076,-0.168,-0.2778,-0.3336,-0.421,-0.5277,-0.4275,-0.3825,-0.3807,-0.3613,-0.352,-0.3602,-0.4546,-0.5057,-0.5226,-0.5427,-0.5558,-0.5535,-0.5096,-0.5111,-0.5347,-0.5147,-0.5403,-0.5732,-0.5606,-0.565,-0.5755,-0.5772,-0.5779,-0.5779,-0.5796,-0.58,-0.58,-0.58,-0.58,-0.5796,-0.5783,-0.5779,-0.5266,-0.342,-0.3037,-0.2729,-0.1649,-0.1445,-0.1696,-0.2525,-0.1893,-0.1261,-0.125,-0.0616,-0.0087,0.0,0.0,0.0,0.0,0.0,0.0,0.0,0.0,0.0,0.0,0.0,0.0,0.0,0.0699,0.1146,0.1229,0.2591,0.3345,0.3428,0.4153,0.4491,0.4491,0.4491,0.4491,-0.9111,-0.8603,-0.8166,0.0,-0.8163,-0.8051,-0.8092,-0.8201,-0.8119,-0.7483,-0.7345,-0.7173,-0.6571,-0.6206,-0.6028,0.0,-0.5672,-0.5371,-0.5274,-0.531,-0.5223,-0.4859,-0.489,-0.4814,-0.4515,-0.4573,-0.4624,-0.4624,-0.4624,-0.4279,-0.3501,-0.2986,-0.2222,-0.1121,-0.0691,-0.0322,0.0,-0.0297,-0.0901,-0.1784,-0.2658,-0.3581,-0.447,-0.4639,-0.4454,-0.4013,-0.3931,-0.3918,-0.3984,-0.4968,-0.5437,-0.5542,-0.5654,-0.5749,-0.5772,-0.5525,-0.5511,-0.5606,-0.5545,-0.5644,-0.5789,-0.5732,-0.5752,-0.5817,-0.5908,-0.5899,-0.5952,-0.6044,-0.6105,-0.6105,-0.6105,-0.6105,-0.6047,-0.5956,-0.5899,-0.5356,-0.335,-0.2916,-0.2437,-0.0835,-0.0541,-0.068,-0.1073,-0.0815,-0.0517,-0.0483,-0.0186,0.0,0.0,0.0,0.0,0.0,0.0,0.0,0.0,0.0,0.0,0.0,0.0,0.0,0.0,0.0308,0.0671,0.109,0.1703,0.2454,0.3372,0.3649,0.4042,0.4491,0.407,0.4098,-0.8959,-0.83,0.0,-0.7737,-0.7594,-0.7456,-0.7476,-0.8133,-0.8511,-0.783,-0.8128,-0.834,-0.7757,-0.7201,-0.6757,-0.6538,-0.6007,-0.5542,-0.5308,-0.5057,-0.4874,-0.486,-0.4651,-0.4491,-0.4491,-0.459,-0.4675,-0.4687,-0.4691,-0.4296,-0.3355,-0.2642,-0.1828,-0.0833,-0.0266,0.0,0.0,0.0,-0.0394,-0.1153,-0.1931,-0.2851,-0.3838,-0.4867,-0.5008,-0.4436,-0.4436,-0.4456,-0.456,-0.5319,-0.5674,-0.5722,-0.5823,-0.5891,-0.5928,-0.5928,-0.5901,-0.5857,-0.5817,-0.5881,-0.5973,-0.5891,-0.5949,-0.6061,-0.6132,-0.6152,-0.6176,-0.6327,-0.633,-0.63,-0.63,-0.63,-0.6272,-0.6122,-0.6095,-0.5494,-0.3422,-0.295,-0.2354,-0.0371,0.0,0.0,0.0,0.0,0.0,0.0,0.0,0.0,0.0,0.0,0.0,0.0,0.0,0.0,0.0,0.0,0.0,0.0,0.0,0.0,0.0,0.0,0.0252,0.0783,0.1006,0.1647,0.276,0.2926,0.3287,0.3846,0.3317,0.3345,-0.8106,-0.7914,-0.7801,-0.7415,-0.7312,-0.7424,-0.786,-0.8735,-0.922,-0.8371,-0.8772,-0.8899,-0.7731,-0.7279,-0.6847,-0.613,-0.6119,-0.5892,-0.5044,-0.4894,-0.4863,-0.4714,-0.4586,-0.4491,0.0,-0.4494,-0.4559,-0.468,-0.4691,-0.4071,-0.2604,-0.2514,-0.1749,-0.0092,0.0,0.0,0.0,0.0,-0.0438,-0.1286,-0.1319,-0.2216,-0.3819,-0.4722,-0.5268,-0.5548,-0.5548,-0.5625,-0.575,-0.5793,-0.5881,-0.5979,-0.5983,-0.6115,-0.6286,-0.6286,-0.6152,-0.5963,-0.585,-0.6088,-0.6443,-0.6115,-0.6318,-0.6647,-0.6542,-0.6497,-0.6501,-0.6504,-0.6405,-0.63,-0.63,-0.63,-0.6296,-0.6293,-0.6293,-0.5699,-0.3546,-0.3101,-0.2468,-0.039,0.0,0.0,0.0,0.0,0.0,0.0,0.0,0.0,0.0,0.0,0.0,0.0,0.0,0.0,0.0,0.0,0.0,0.0,0.0,0.0,0.0,0.0,0.0,0.0028,0.0727,0.1118,0.1174,0.1898,0.2259,0.2258,0.2259,0.2259,-0.8287,0.0,-0.7507,-0.7022,-0.7118,-0.7308,-0.7274,-0.8275,-0.912,-0.8678,-0.8974,-0.9233,-0.9005,-0.8421,-0.7709,-0.6997,-0.6502,-0.5884,-0.5026,-0.4968,-0.4935,-0.4721,-0.4675,0.0,0.0,0.0,0.0,-0.483,-0.4843,-0.4196,-0.2713,-0.2546,-0.1738,-0.0064,0.0,0.0,0.0,0.0,-0.0158,-0.0465,-0.1654,-0.283,-0.3953,-0.4887,-0.5396,-0.5589,-0.5589,-0.5671,-0.581,-0.5911,-0.5946,-0.6003,-0.6142,-0.6252,-0.631,-0.6405,-0.6409,-0.6315,-0.6264,-0.641,-0.6607,-0.6505,-0.6576,-0.6692,-0.6637,-0.6624,-0.6624,-0.6624,-0.659,-0.6552,-0.6552,-0.6552,-0.6552,-0.6552,-0.5937,-0.4997,-0.3602,-0.2686,-0.1706,-0.0287,0.0,0.0,0.0,0.0,0.0,0.0,0.0,0.0,0.0,0.0,0.0,0.0,0.0,0.0,0.0,0.0,0.0,0.0,0.0,0.0,0.0,0.0,0.0,0.0,0.0252,0.0615,0.109,0.1341,0.173,0.2174,0.1703,0.173,-0.8847,-0.852,-0.809,-0.7342,-0.7279,-0.7244,-0.6706,-0.7766,-0.8744,-0.8333,-0.8902,-0.9424,-0.9394,-0.8673,-0.7841,-0.7161,-0.644,-0.5678,-0.493,-0.4931,-0.4972,-0.4863,-0.4847,0.0,0.0,0.0,0.0,-0.4958,-0.468,-0.3979,-0.2763,-0.2297,-0.1425,-0.0033,0.0,0.0,0.0,0.0,0.0,-0.0033,-0.1799,-0.2942,-0.3592,-0.4826,-0.5504,-0.5671,-0.5725,-0.583,-0.5973,-0.6071,-0.6112,-0.6122,-0.6259,-0.633,-0.6385,-0.6477,-0.6579,-0.6627,-0.6573,-0.6654,-0.6773,-0.6719,-0.6773,-0.6848,-0.6797,-0.678,-0.678,-0.678,-0.6447,-0.6073,-0.6073,-0.5735,-0.5399,-0.5399,-0.4814,-0.3978,-0.2974,-0.2137,-0.13,-0.021,0.0,0.0,0.0,0.0,0.0,0.0,0.0,0.0,0.0,0.0,0.0,0.0,0.0,0.0,0.0,0.0,0.0,0.0,0.0,0.0,0.0,0.0,0.0,0.0,0.0,0.0228,0.0712,0.0721,0.095,0.1393,0.0939,0.0962,-0.9747,-0.9736,-0.9473,-0.836,-0.7827,-0.7306,-0.6341,-0.7281,-0.8157,-0.7487,-0.855,-0.9457,0.0,0.0,-0.7307,-0.6703,-0.6005,-0.5334,-0.4807,-0.4853,-0.4968,0.0,0.0,0.0,0.0,0.0,0.0,-0.5133,0.0,-0.3448,-0.2679,-0.1792,-0.0901,-0.0034,-0.0034,-0.0068,-0.0068,-0.0066,-0.0065,-0.0097,-0.172,-0.2596,-0.2823,-0.4602,-0.5566,-0.581,-0.5925,-0.6118,-0.63,-0.63,-0.6303,-0.631,-0.631,-0.6399,-0.6525,-0.6532,-0.6678,-0.6866,-0.677,-0.6817,-0.6873,-0.677,-0.6912,-0.7071,-0.6937,-0.6896,-0.6896,-0.6853,-0.5896,-0.492,-0.4834,-0.3992,-0.3109,-0.3109,-0.3067,-0.2773,-0.1892,-0.1598,-0.1221,-0.0295,-0.0042,0.0,0.0,0.0,0.0,0.0,0.0,0.0,0.0,0.0,0.0,0.0,0.0,0.0,0.0,0.0,0.0,0.0,0.0,0.0,0.0,0.0,0.0,0.0,0.0,0.0,0.0,0.0,0.0,0.0,0.0,0.0,-1.0298,-1.0354,-1.0333,-0.9491,-0.8864,-0.8319,-0.7771,-0.7754,-0.7844,-0.7771,-0.8063,-0.8435,0.0,0.0,0.0,-0.69,-0.6276,0.0,-0.5088,-0.525,0.0,-0.5344,0.0,-0.5488,-0.5528,-0.5498,0.0,0.0,-0.4507,-0.3182,-0.1725,-0.1418,-0.0898,-0.0036,-0.063,-0.0969,-0.0969,-0.0977,-0.0975,-0.0998,-0.2096,-0.3022,-0.3724,-0.4968,-0.563,-0.581,-0.5925,-0.6118,-0.63,-0.63,-0.6361,-0.6457,-0.6457,-0.6552,-0.6658,-0.677,-0.6861,-0.6896,-0.696,-0.7011,-0.7038,-0.6997,-0.7034,-0.7088,-0.7055,-0.7041,-0.6866,-0.6025,-0.5517,-0.5054,-0.4172,-0.3689,-0.347,-0.347,-0.277,-0.2288,-0.2944,-0.1674,-0.0574,-0.1234,-0.061,0.0,0.0,0.0,0.0,0.0,0.0,0.0,0.0,0.0,0.0,0.0,0.0,0.0,0.0,0.0,0.0,0.0,0.0,0.0,0.0,0.0,0.0,0.0,0.0,0.0,0.0,0.0,0.0,0.0,0.0,0.0,-1.1582,-1.1665,-1.1481,-1.074,-0.9922,-0.9099,-0.8376,-0.8042,-0.7873,-0.7745,-0.8032,0.0,-0.8163,0.0,0.0,0.0,0.0,0.0,-0.5122,-0.5338,-0.5566,0.0,-0.5732,0.0,-0.5914,-0.5823,-0.5633,0.0,-0.4577,-0.3698,-0.2764,-0.233,-0.1876,-0.1382,-0.1847,-0.2073,-0.199,-0.1936,-0.1912,-0.1917,-0.2836,-0.3517,-0.4026,-0.5161,-0.5969,-0.6448,0.0,-0.6443,-0.6907,-0.649,-0.6347,-0.6426,-0.6487,-0.6566,-0.6719,-0.6829,-0.6923,-0.6991,-0.7068,-0.6782,-0.6428,-0.6918,-0.6782,-0.6349,-0.6361,-0.5978,-0.5453,-0.4784,-0.4226,-0.3662,-0.2994,-0.2413,-0.2013,-0.2013,-0.1522,-0.121,-0.1879,-0.0941,-0.018,-0.0897,-0.0445,0.0,0.0,0.0,0.0,0.0,0.0,0.0,0.0,0.0,0.0,0.0,0.0,0.0,0.0,0.0,0.0,0.0,0.0,0.0,0.0,0.0,0.0,0.0,0.0,0.0,0.0,0.0,0.0,0.0,0.0,0.0,-1.2986,-1.3013,-1.2692,-1.1954,-1.0904,-0.9753,-0.8702,-0.8408,-0.8213,-0.7757,0.0,-0.8515,-0.7538,-0.6844,-0.6237,-0.5632,0.0,-0.4679,-0.5098,-0.5294,-0.5583,-0.5942,-0.601,-0.6122,-0.6313,-0.6169,-0.5745,-0.4979,-0.4842,-0.4621,-0.4336,-0.355,-0.3149,-0.3287,-0.3282,-0.3244,-0.3122,-0.3014,-0.2943,-0.2943,-0.372,-0.4128,-0.4271,-0.5345,-0.6295,-0.7092,0.0,0.0,-0.7518,-0.6641,-0.6323,-0.6371,-0.6494,-0.6607,-0.6773,-0.6866,-0.6991,-0.7095,-0.7095,-0.634,-0.5581,-0.6561,-0.6115,-0.5156,-0.5173,-0.441,-0.3554,-0.3391,-0.2595,-0.1752,-0.1613,-0.0762,0.0,0.0,-0.0135,-0.0225,-0.0225,-0.0225,-0.018,-0.0045,0.0,0.0,0.0,0.0,0.0,0.0,0.0,0.0,0.0,0.0,0.0,0.0,0.0,0.0032,0.0168,0.0066,0.0065,0.0162,0.0065,0.0064,0.0155,0.0062,0.0062,0.0185,0.0064,0.0,0.0,0.0,0.0,0.0,0.0,0.0064,-1.31,-1.3173,-1.298,-1.2339,-1.1503,-1.062,-0.9944,-0.9385,0.0,0.0,-0.8699,-0.8547,-0.777,-0.7041,-0.6381,-0.5834,0.0,0.0,0.0,0.0,-0.5671,0.0,0.0,0.0,0.0,0.0,0.0,0.0,0.0,0.0,-0.3454,-0.318,-0.3454,-0.4229,-0.4246,-0.423,-0.4211,-0.4191,-0.4181,-0.4181,-0.4324,-0.4791,-0.5516,-0.5835,-0.6064,-0.6219,0.0,0.0,-0.6567,-0.6377,-0.6446,-0.6627,-0.6651,-0.6824,-0.7021,-0.7051,-0.7075,-0.7095,-0.7095,-0.634,-0.5447,-0.5625,-0.4865,-0.3898,-0.3935,-0.3767,-0.3392,-0.2396,-0.1979,-0.1556,-0.0586,-0.0135,0.0,0.0,-0.0763,-0.1478,-0.1478,-0.1478,-0.121,-0.018,0.0,0.0,0.0,0.0,0.0,0.0,0.0,0.0,0.0,0.0,0.0,0.0,0.0,0.03,0.1006,0.0402,0.0301,0.1033,0.0401,0.033,0.1056,0.0384,0.0348,0.1047,0.0381,0.0,0.0,0.0,0.0,0.0,0.0,0.04,-1.3086,-1.3093,-1.2859,-1.2418,-1.153,-1.0687,-1.0214,0.0,0.0,0.0,-0.8804,-0.8454,-0.7343,0.0,0.0,0.0,0.0,0.0,0.0,0.0,0.0,0.0,0.0,0.0,0.0,0.0,0.0,0.0,0.0,0.0,-0.4813,-0.4776,-0.4974,-0.5416,-0.5344,-0.5278,-0.5289,-0.5216,-0.5183,-0.5183,-0.5183,-0.5398,-0.5806,-0.5922,-0.6284,-0.6771,-0.6457,0.0,-0.703,-0.657,-0.6494,-0.6597,-0.6756,-0.6862,-0.6997,-0.7068,-0.7095,-0.7095,-0.7095,-0.5933,-0.4463,-0.4463,-0.366,-0.2647,-0.2657,-0.2243,-0.1594,-0.1013,-0.0871,-0.0727,-0.0135,-0.0449,-0.0942,-0.0942,-0.1389,-0.1612,-0.0986,-0.0852,-0.0673,-0.0135,0.0,0.0,0.0,0.0,0.0,0.0,0.0,0.0,0.0,0.0,0.0,0.0,0.0,0.0168,0.0572,0.0672,0.0839,0.1273,0.1375,0.1601,0.2005,0.1643,0.1601,0.2028,0.1144,0.0691,0.0691,0.0234,0.0,0.0,0.0471,0.0906,-1.2866,-1.2832,-1.2603,-1.2204,-1.1283,-1.0419,-1.0094,-0.9392,0.0,0.0,-0.856,-0.8129,-0.6637,0.0,-0.5959,0.0,-0.4491,0.0,0.0,0.0,0.0,0.0,0.0,0.0,0.0,0.0,0.0,0.0,0.0,0.0,-0.6306,-0.63,-0.63,-0.63,-0.6142,-0.6078,-0.6078,-0.5959,-0.5901,-0.5901,-0.5901,-0.5901,-0.5905,-0.6023,-0.6484,-0.7194,-0.6587,0.0,0.0,-0.6767,-0.6371,-0.6178,-0.6437,-0.638,-0.6198,-0.6298,-0.6334,-0.6378,-0.665,-0.5354,-0.3659,-0.3881,-0.2815,-0.1484,-0.1743,-0.096,-0.0045,-0.0322,-0.0183,0.0,0.0,-0.0722,-0.1489,-0.1722,-0.1583,-0.1219,-0.0545,-0.0181,0.0,0.0,0.0,0.0,0.0,0.0,0.0,0.0,0.0,0.0,0.0,0.0,0.0,0.0,0.0,0.017,0.0543,0.101,0.1474,0.1842,0.241,0.2778,0.2978,0.2811,0.2711,0.2711,0.1976,0.1507,0.1307,0.0845,0.0609,0.0605,0.1317,0.1718,-1.2298,-1.2365,-1.2204,-1.1643,-1.0828,-1.008,-0.9786,0.0,-0.8619,-0.7937,-0.7803,-0.7343,-0.5869,-0.5597,-0.5355,-0.4625,-0.4491,-0.4552,0.0,0.0,0.0,0.0,0.0,0.0,0.0,0.0,0.0,0.0,0.0,0.0,0.0,-0.63,-0.63,-0.63,-0.6286,-0.6279,-0.6279,-0.6265,-0.6255,-0.6255,-0.6255,-0.6255,-0.6255,-0.6272,-0.6318,-0.6391,0.0,0.0,0.0,-0.6493,-0.5941,-0.5064,-0.5227,-0.4724,-0.3916,-0.3924,-0.3926,-0.4059,-0.5179,-0.4685,-0.3792,-0.4865,-0.295,-0.0361,-0.1469,-0.0969,-0.0231,-0.1339,-0.0831,0.0,0.0,-0.0092,-0.0463,-0.1556,-0.0981,-0.0417,-0.1415,-0.0794,0.0,0.0,0.0,0.0,0.0,0.0,0.0,0.0,0.0,0.0,0.0,0.0,0.0,0.0,0.0,0.0663,0.2294,0.1733,0.2009,0.3647,0.3078,0.3045,0.3846,0.3111,0.2711,0.2711,0.2611,0.2143,0.1307,0.2199,0.2575,0.2445,0.2646,0.312,-1.1436,-1.1643,-1.1637,-1.1049,-1.0508,-0.9963,-0.9497,0.0,-0.8593,-0.7857,-0.7696,-0.7257,-0.576,-0.5515,-0.5273,-0.4598,-0.4389,0.0,-0.4657,0.0,0.0,0.0,0.0,0.0,0.0,0.0,0.0,0.0,0.0,0.0,0.0,-0.6347,-0.63,-0.63,-0.567,-0.5354,-0.5354,-0.5354,-0.5394,-0.5473,-0.6025,-0.6344,-0.6386,-0.5665,-0.5354,-0.5315,0.0,0.0,0.0,-0.4498,-0.4353,-0.4024,-0.4152,-0.3942,-0.3614,-0.3614,-0.3614,-0.3659,-0.415,-0.3527,-0.2726,-0.3929,-0.2371,-0.036,-0.2303,-0.2037,-0.1182,-0.1656,-0.0924,0.0,0.0,-0.0518,-0.1222,-0.1685,-0.1453,-0.1037,-0.0761,-0.0328,0.0,0.0,0.0,0.0,0.0,0.0,0.0,0.0,0.0,0.0,0.0,0.0,0.0,0.0,0.0,0.0491,0.1745,0.2108,0.2761,0.392,0.4284,0.4566,0.4824,0.4519,0.4317,0.4317,0.3782,0.3311,0.2911,0.2892,0.288,0.285,0.3525,0.401,-1.0655,-1.0882,-1.0902,-1.0566,-1.014,-0.9717,0.0,0.0,-0.8593,-0.7857,-0.7696,-0.7257,-0.576,-0.5515,-0.5273,-0.4598,-0.4375,-0.4358,-0.4621,0.0,0.0,0.0,0.0,0.0,0.0,0.0,0.0,0.0,0.0,0.0,0.0,-0.6443,-0.6381,-0.6429,-0.5629,-0.5069,-0.4748,-0.5105,-0.5148,-0.4907,-0.5916,-0.646,-0.6468,-0.5607,-0.5229,-0.5121,0.0,0.0,0.0,-0.3926,-0.367,-0.3428,-0.3542,-0.317,-0.2547,-0.2547,-0.2547,-0.2592,-0.2948,-0.2503,-0.2013,-0.3213,-0.2458,-0.1389,-0.3081,-0.2503,-0.135,-0.1699,-0.0928,0.0,0.0,-0.0619,-0.1283,-0.1272,-0.1284,-0.1059,-0.0194,0.0,0.0,0.0,0.0,0.0,0.0,0.0,0.0,0.0,0.0,0.0,0.0,0.0,0.0,0.0,0.0,0.0359,0.1217,0.2007,0.2871,0.3934,0.4693,0.5219,0.5463,0.5463,0.5346,0.5145,0.4733,0.4387,0.4149,0.3911,0.3805,0.3776,0.4563,0.4926,-1.0047,-1.0097,-1.0097,-1.0127,-0.965,-0.9217,0.0,0.0,-0.8593,-0.7857,-0.7696,-0.7257,-0.576,-0.5515,-0.5273,-0.4598,-0.4487,-0.4487,-0.4491,0.0,0.0,0.0,0.0,0.0,0.0,0.0,0.0,0.0,0.0,0.0,0.0,-0.6552,-0.6539,-0.6692,-0.6549,-0.5972,-0.4897,-0.6067,-0.607,-0.49,-0.6111,-0.6617,-0.6511,-0.6471,-0.6393,0.0,0.0,0.0,0.0,-0.5476,-0.4409,-0.3428,-0.3542,-0.2147,-0.0045,-0.0045,-0.0045,-0.0225,-0.1388,-0.179,-0.2013,-0.3213,-0.357,-0.357,-0.3614,-0.1924,-0.0271,-0.147,-0.0938,0.0,0.0,0.0,0.0,0.0,0.0,0.0,0.0,0.0,0.0,0.0,0.0,0.0,0.0,0.0,0.0,0.0,0.0,0.0,0.0,0.0,0.0,0.0,0.0,0.034,0.1208,0.1296,0.2094,0.3869,0.4009,0.4476,0.5545,0.5589,0.5262,0.4521,0.5359,0.5359,0.4488,0.55,0.5909,0.5767,0.5919,0.5909,-0.8772,-0.8926,-0.9254,-1.003,-1.0084,-0.9903,-0.9659,-0.953,-0.9145,-0.7957,-0.7696,-0.7396,-0.6421,-0.6253,-0.6177,-0.5964,-0.5937,-0.5769,0.0,0.0,0.0,0.0,0.0,0.0,0.0,0.0,0.0,0.0,0.0,0.0,0.0,-0.7301,-0.7326,-0.6586,-0.5808,-0.524,-0.4913,-0.5355,-0.5482,-0.5265,-0.6241,-0.6675,-0.6624,-0.5788,0.0,0.0,0.0,0.0,0.0,-0.4148,-0.3362,-0.2304,-0.2363,-0.1388,0.0,0.0,0.0,-0.0045,-0.0449,-0.0584,-0.0762,-0.1969,-0.179,-0.1433,-0.3081,-0.2483,-0.1152,-0.0716,-0.029,0.0,0.0,0.0,0.0,0.0,0.0,0.0,0.0,0.0,0.0,0.0,0.0,0.0,0.0,0.0,0.0,0.0,0.0,0.0,0.0,0.0,0.0,0.0,0.0,0.0347,0.1211,0.1428,0.2207,0.3911,0.4082,0.4526,0.5437,0.5467,0.5399,0.5262,0.5514,0.556,0.5398,0.5805,0.6057,0.6153,0.6204,0.6201,-0.8355,-0.8562,-0.8845,-0.9567,-0.9733,-0.9737,-0.9788,0.0,-0.9555,-0.8666,-0.8481,-0.819,-0.7208,-0.702,-0.6912,-0.6642,-0.6588,0.0,0.0,0.0,0.0,0.0,0.0,0.0,0.0,0.0,0.0,0.0,0.0,0.0,0.0,0.0,-0.7371,-0.6603,-0.5996,-0.5466,-0.509,-0.5156,-0.5051,-0.4724,-0.5267,-0.5488,-0.5396,-0.4664,0.0,0.0,0.0,0.0,0.0,-0.3042,-0.2475,-0.179,-0.179,-0.1076,0.0,0.0,0.0,0.0,0.0,0.0,-0.0135,-0.0897,-0.0942,-0.0943,-0.2482,-0.2386,-0.1641,-0.0907,-0.0338,0.0,0.0,0.0,0.0,0.0,0.0,0.0,0.0,0.0,0.0,0.0,0.0,0.0,0.0,0.0,0.0,0.0,0.0,0.0,0.0,0.0,0.0,0.0,0.0,0.0236,0.0768,0.0936,0.1561,0.2901,0.3451,0.4112,0.5011,0.5441,0.5684,0.5876,0.588,0.5924,0.5976,0.6071,0.6166,0.63,0.63,0.63,0.0,-0.8752,-0.8752,-0.8857,-0.8883,-0.9035,-0.9666,-0.9788,0.0,-0.9736,-0.9744,-0.9321,-0.8017,-0.7777,-0.7563,-0.6858,0.0,0.0,0.0,0.0,0.0,0.0,0.0,0.0,0.0,0.0,0.0,0.0,0.0,0.0,0.0,0.0,-0.6848,-0.6705,-0.6753,-0.6319,-0.5367,-0.5375,-0.48,-0.3597,-0.3618,-0.3502,-0.3302,-0.3385,0.0,0.0,0.0,0.0,0.0,-0.235,-0.1879,-0.179,-0.179,-0.1076,0.0,0.0,0.0,0.0,0.0,0.0,0.0,0.0,-0.0807,-0.1797,-0.1923,-0.1918,-0.1943,-0.1954,-0.1079,-0.0143,-0.0143,-0.0048,0.0,0.0,0.0,0.0,0.0,0.0,0.0,0.0,0.0,0.0,0.0,0.0,0.0,0.0,0.0,0.0,0.0,0.0,0.0,0.0,0.0,0.0,0.0,0.0,0.0371,0.1233,0.2224,0.3302,0.4419,0.5378,0.6009,0.6279,0.6293,0.63,0.63,0.63,0.63,0.63,0.63,0.63,-0.8752,0.0,-0.8229,-0.9302,-0.9562,-0.9614,0.0,-0.9788,0.0,0.0,0.0,0.0,0.0,0.0,0.0,0.0,0.0,0.0,0.0,0.0,0.0,0.0,0.0,0.0,0.0,0.0,0.0,0.0,0.0,0.0,0.0,0.0,-0.6736,-0.6702,-0.5931,-0.5366,-0.5018,-0.5097,-0.4631,-0.3617,-0.3599,-0.3506,-0.3387,-0.3387,0.0,0.0,0.0,0.0,-0.3296,-0.3232,-0.2637,-0.179,-0.179,-0.1076,0.0,0.0,0.0,0.0,0.0,0.0,0.0,0.0,-0.0807,-0.1971,-0.2876,-0.3232,-0.3321,-0.321,-0.2368,-0.1518,-0.1401,-0.0706,0.0,0.0,0.0,0.0,0.0,0.0,0.0,0.0,0.0,0.0,0.0,0.0,0.0,0.0,0.0,0.0,0.0,0.0,0.0,0.0,0.0,0.0,0.0,0.0,0.0376,0.1262,0.1538,0.2469,0.4207,0.4489,0.5077,0.6043,0.6238,0.63,0.63,0.63,0.63,0.63,0.63,0.63,-0.8401,-0.7996,-0.7877,-0.8639,-0.885,-0.8922,-0.9221,-0.9547,0.0,0.0,0.0,0.0,0.0,0.0,0.0,0.0,0.0,0.0,0.0,0.0,0.0,0.0,0.0,0.0,0.0,0.0,0.0,0.0,0.0,0.0,0.0,0.0,-0.6668,-0.66,-0.5563,-0.5022,-0.4971,-0.4074,-0.3307,-0.2765,-0.22,-0.1929,-0.1825,-0.1825,0.0,0.0,0.0,0.0,-0.1805,-0.1895,-0.1554,-0.0985,-0.0976,-0.0578,0.0,0.0,0.0,0.0,0.0,0.0,0.0,0.0,-0.0807,-0.1924,-0.2592,-0.3243,-0.3878,-0.4304,-0.3211,-0.1873,-0.1806,-0.1313,-0.0668,-0.0145,0.0,0.0,0.0,0.0,0.0,0.0,0.0,0.0,0.0,0.0,0.0,0.0,0.0,0.0,0.0,0.0,0.0,0.0,0.0,0.0,0.0,0.0,0.0191,0.067,0.1162,0.2134,0.3622,0.4182,0.4954,0.6135,0.6255,0.63,0.63,0.63,0.63,0.63,0.63,0.63,-0.7889,-0.7616,-0.7536,-0.7536,-0.7536,-0.7711,-0.8403,-0.9039,0.0,0.0,0.0,0.0,0.0,0.0,0.0,0.0,0.0,0.0,0.0,0.0,0.0,0.0,0.0,0.0,0.0,0.0,0.0,0.0,0.0,0.0,0.0,0.0,0.0,-0.6484,-0.5434,-0.4907,-0.5022,-0.2854,-0.1702,-0.1494,-0.049,0.0,0.0,0.0,0.0,0.0,0.0,0.0,0.0,-0.0174,-0.0263,-0.0268,-0.0436,-0.0395,-0.0269,-0.0263,-0.0132,0.0,0.0,0.0,0.0,0.0,-0.0673,-0.1567,-0.1746,-0.258,-0.3748,-0.5046,-0.3819,-0.2169,-0.2353,-0.2108,-0.153,-0.0537,-0.0149,0.0,0.0,0.0,0.0,0.0,0.0,0.0,0.0,0.0,0.0,0.0,0.0,0.0,0.0,0.0,0.0,0.0,0.0,0.0,0.0,0.0,0.0,0.0,0.0843,0.1862,0.3039,0.4291,0.5354,0.63,0.63,0.63,0.63,0.63,0.63,0.63,0.63,0.63,-0.7889,-0.7235,-0.6777,-0.6777,-0.6777,-0.6966,-0.7685,-0.7931,-0.8203,0.0,0.0,0.0,0.0,0.0,0.0,0.0,0.0,0.0,0.0,0.0,0.0,0.0,0.0,0.0,0.0,0.0,0.0,0.0,0.0,0.0,0.0,0.0,0.0,-0.6334,-0.5305,-0.4673,-0.4594,-0.2621,-0.1189,-0.0278,-0.0079,0.0,0.0,0.0,0.0,0.0,0.0,0.0,-0.0085,-0.0972,-0.1409,-0.1608,-0.2337,-0.216,-0.1519,-0.1399,-0.0783,0.0,0.0,0.0,0.0,0.0,-0.0135,-0.0449,-0.1478,-0.1929,-0.2569,-0.4933,-0.4549,-0.3731,-0.4745,-0.3416,-0.1769,-0.1705,-0.0845,0.0,0.0,0.0,0.0,0.0,0.0,0.0,0.0,0.0,0.0,0.0,0.0,0.0,0.0,0.0,0.0,0.0,0.0,0.0,0.0,0.0,0.0,0.0,0.0156,0.1095,0.3031,0.4993,0.6141,0.63,0.63,0.63,0.63,0.63,0.63,0.63,0.63,0.63,-0.7889,-0.7155,-0.6507,-0.6118,-0.6009,-0.6091,-0.6438,-0.7122,-0.7696,0.0,0.0,0.0,0.0,0.0,0.0,0.0,0.0,0.0,0.0,0.0,0.0,0.0,0.0,0.0,0.0,0.0,0.0,0.0,0.0,0.0,0.0,0.0,0.0,0.0,-0.5132,-0.4503,-0.4357,-0.2915,-0.197,-0.1575,-0.1633,-0.137,-0.0863,-0.0863,-0.0557,-0.0041,0.0,-0.0854,-0.0965,-0.1985,-0.246,-0.2546,-0.2945,-0.2853,-0.2502,-0.2433,-0.1788,-0.0983,-0.0908,-0.0474,0.0,0.0,0.0,-0.009,-0.0673,-0.0813,-0.1368,-0.3906,-0.466,-0.4813,-0.5423,-0.4175,-0.2632,-0.2014,-0.0931,0.0,0.0,0.0,0.0,0.0,0.0,0.0,0.0,0.0,0.0,0.0,0.0,0.0,0.0,0.0,0.0,0.0,0.0,0.0,0.0,0.0,0.0235,0.0824,0.137,0.2345,0.3904,0.5473,0.63,0.63,0.6375,0.6375,0.63,0.646,0.6457,0.6303,0.6378,0.6375,-0.7696,-0.7155,-0.661,-0.5542,-0.5273,-0.5308,-0.5514,-0.6435,-0.7225,0.0,0.0,0.0,0.0,0.0,0.0,0.0,0.0,0.0,0.0,0.0,0.0,0.0,0.0,0.0,0.0,0.0,0.0,0.0,0.0,0.0,0.0,0.0,0.0,0.0,-0.4776,-0.4389,-0.4209,-0.3689,-0.3235,-0.2905,-0.2996,-0.2528,-0.1607,-0.1607,-0.103,-0.004,-0.087,-0.1359,-0.1649,-0.2428,-0.2931,-0.3192,-0.3401,-0.3513,-0.3475,-0.3266,-0.2773,-0.2158,-0.1799,-0.1111,-0.0384,-0.0088,0.0,0.0,0.0,-0.0182,-0.0826,-0.2808,-0.4357,-0.5481,-0.5947,-0.4853,-0.3379,-0.246,-0.1108,0.0,0.0,0.0,0.0,0.0,0.0,0.0,0.0,0.0,0.0,0.0,0.0,0.0,0.0,0.0,0.0,0.0,0.0,0.0,0.0,0.0,0.0554,0.1856,0.2666,0.3591,0.4647,0.5747,0.6317,0.6351,0.6457,0.6477,0.6405,0.659,0.6566,0.6354,0.646,0.6436,-0.7074,-0.7128,-0.7122,-0.5089,-0.457,-0.4772,-0.56,-0.5865,0.0,-0.7963,0.0,0.0,0.0,0.0,0.0,0.0,0.0,0.0,0.0,0.0,0.0,0.0,0.0,0.0,0.0,0.0,0.0,0.0,0.0,0.0,0.0,0.0,0.0,0.0,0.0,-0.4415,-0.4199,-0.5125,-0.4663,-0.2905,-0.291,-0.2451,-0.1607,-0.1607,-0.102,0.0,-0.0079,-0.0668,-0.1615,-0.1691,-0.2387,-0.3441,-0.427,-0.4673,-0.465,-0.3728,-0.3438,-0.3318,-0.2157,-0.1745,-0.1472,-0.0348,0.0,0.0,0.0,-0.0763,-0.1757,-0.202,-0.3723,-0.5726,-0.7084,-0.5554,-0.361,-0.3638,-0.1761,0.0,0.0,0.0,0.0,0.0,0.0,0.0,0.0,0.0,0.0,0.0,0.0,0.0,0.0,0.0,0.0,0.0,0.0,0.0,0.0,0.0,0.085,0.2865,0.3043,0.3591,0.4647,0.5747,0.6361,0.6494,0.6508,0.6536,0.6668,0.6692,0.6617,0.6497,0.6508,0.6436,-0.8129,-0.783,-0.7503,-0.6691,-0.5792,0.0,0.0,-0.6006,-0.6837,-0.6779,-0.7739,0.0,0.0,0.0,0.0,0.0,0.0,0.0,0.0,0.0,0.0,0.0,0.0,0.0,0.0,0.0,0.0,0.0,0.0,0.0,0.0,0.0,0.0,0.0,0.0,-0.3704,-0.4081,-0.4464,-0.4653,-0.4569,-0.4675,-0.3884,-0.2394,-0.2394,-0.1532,-0.0038,-0.0701,-0.1567,-0.2579,-0.3244,-0.4203,-0.5224,-0.5572,-0.5781,-0.585,-0.5368,-0.493,-0.4444,-0.3907,-0.3359,-0.2865,-0.2376,-0.1734,-0.1121,-0.1121,-0.0905,-0.0869,-0.1751,-0.3118,-0.4613,-0.5988,-0.5552,-0.454,-0.3846,-0.2378,-0.0893,-0.0144,0.0,0.0,0.0,0.0,0.0,0.0,0.0,0.0,0.0,0.0,0.0,0.0,0.0,0.0,0.0,0.0,0.0,0.0,0.0705,0.1739,0.3142,0.3155,0.3887,0.5631,0.6103,0.6368,0.6508,0.6566,0.6644,0.6702,0.6885,0.6851,0.6617,0.6712,0.6675,-0.8454,-0.8262,-0.7943,-0.7477,0.0,0.0,-0.5231,-0.5943,-0.6705,-0.6631,-0.7878,0.0,0.0,0.0,0.0,0.0,0.0,0.0,0.0,0.0,0.0,0.0,0.0,0.0,0.0,0.0,0.0,0.0,0.0,0.0,0.0,0.0,0.0,0.0,0.0,0.0,-0.3522,-0.3846,-0.4469,-0.5447,-0.5593,-0.4711,-0.2906,-0.2885,-0.1835,-0.0076,-0.1116,-0.2176,-0.3163,-0.3904,-0.4844,-0.5786,-0.5786,-0.6067,-0.6501,-0.6402,-0.6065,-0.5616,-0.5118,-0.461,-0.4116,-0.3705,-0.28,-0.179,-0.179,-0.095,-0.0183,-0.1099,-0.2466,-0.383,-0.4743,-0.519,-0.5109,-0.3908,-0.2693,-0.1472,-0.0282,0.0,0.0,0.0,0.0,-0.014,-0.0514,-0.0561,-0.0698,-0.11,-0.0823,-0.0588,-0.0567,-0.0216,0.0,0.0,0.0,0.0,0.0,0.0765,0.1653,0.271,0.267,0.3765,0.6324,0.6439,0.6508,0.6614,0.6719,0.6797,0.6841,0.6997,0.697,0.6773,0.6836,0.6848,-0.7696,-0.8209,-0.8427,-0.6966,0.0,0.0,-0.6087,-0.5547,-0.5753,-0.796,0.0,-0.8715,0.0,0.0,0.0,0.0,0.0,0.0,0.0,0.0,0.0,0.0,0.0,0.0,0.0,0.0,0.0,0.0,0.0,0.0,0.0,0.0,0.0,0.0,0.0,0.0,-0.249,-0.3508,-0.4359,-0.51,-0.532,-0.4514,-0.2902,-0.2902,-0.1842,-0.0076,-0.1134,-0.218,-0.3122,-0.3122,-0.3748,-0.4727,-0.4727,-0.5429,-0.6511,-0.6511,-0.6664,-0.6728,-0.5521,-0.5251,-0.5206,-0.4011,-0.2813,-0.1835,-0.1835,-0.0986,0.0,0.0,-0.1746,-0.3614,-0.3614,-0.4508,-0.509,-0.3881,-0.2726,-0.1485,-0.0276,0.0,0.0,0.0,0.0,-0.0359,-0.1567,-0.179,-0.2191,-0.3392,-0.2592,-0.1821,-0.1781,-0.0767,0.0,0.0,0.0,0.0,0.0,0.0,0.0478,0.1517,0.1604,0.3127,0.6539,0.6657,0.6731,0.6883,0.6886,0.691,0.7051,0.7051,0.6981,0.6886,0.6886,0.6805,-0.6939,-0.7074,0.0,-0.6696,0.0,0.0,0.0,-0.6003,0.0,0.0,0.0,0.0,0.0,0.0,0.0,0.0,0.0,0.0,0.0,0.0,0.0,0.0,0.0,0.0,0.0,0.0,0.0,0.0,0.0,0.0,0.0,0.0,0.0,0.0,0.0,0.0,-0.2489,-0.3411,-0.4261,-0.51,-0.532,-0.4797,-0.3673,-0.3674,-0.3013,-0.1934,-0.234,-0.3104,-0.4152,-0.5005,-0.555,-0.5825,-0.5825,-0.6048,-0.6364,-0.6364,-0.6484,-0.6573,-0.6299,-0.6314,-0.6418,-0.603,-0.4609,-0.3028,-0.2898,-0.1506,0.0,0.0,-0.1746,-0.3614,-0.3614,-0.5085,-0.6293,-0.5132,-0.4599,-0.3758,-0.1713,-0.126,-0.1033,-0.0181,0.0,-0.0135,-0.0494,-0.1254,-0.1924,-0.2281,-0.2769,-0.2778,-0.1914,-0.076,0.0,0.0,0.0,0.0,0.0,0.08,0.142,0.1729,0.2523,0.3349,0.4149,0.4185,0.4229,0.4368,0.4413,0.4502,0.4639,0.4639,0.4625,0.4599,0.4599,0.4537,-0.6529,-0.6588,0.0,-0.6694,-0.6253,-0.5781,-0.5677,0.0,0.0,0.0,0.0,0.0,0.0,0.0,0.0,0.0,0.0,0.0,0.0,0.0,0.0,0.0,0.0,0.0,0.0,0.0,0.0,0.0,0.0,0.0,0.0,0.0,0.0,0.0,0.0,0.0,-0.281,-0.3459,-0.4224,-0.5019,-0.5293,-0.509,-0.4556,-0.4154,-0.352,-0.2727,-0.321,-0.4008,-0.5086,-0.5813,-0.6153,-0.6169,-0.6169,-0.6245,-0.63,-0.63,-0.6388,-0.6525,-0.6576,-0.6749,-0.6876,-0.6858,-0.5373,-0.3559,-0.3399,-0.1782,0.0,0.0,-0.1734,-0.3614,-0.3614,-0.532,-0.6762,-0.5659,-0.5323,-0.4761,-0.2826,-0.2369,-0.1968,-0.084,-0.062,-0.0666,-0.0717,-0.1335,-0.2076,-0.3001,-0.3303,-0.3066,-0.1869,-0.0711,0.0,0.0,0.0,0.0,0.0,0.0673,0.1076,0.1076,0.179,0.2079,0.1897,0.2795,0.333,0.3418,0.3463,0.3527,0.3614,0.3614,0.3614,0.3614,0.3614,0.3614,-0.6231,-0.6399,0.0,-0.6628,-0.6197,0.0,-0.5224,0.0,0.0,0.0,0.0,0.0,0.0,0.0,0.0,0.0,0.0,0.0,0.0,0.0,0.0,0.0,0.0,0.0,0.0,0.0,0.0,0.0,0.0,0.0,0.0,0.0,0.0,0.0,0.0,0.0,-0.3289,-0.3679,-0.4224,0.0,-0.5231,-0.5375,-0.5342,-0.4514,-0.3702,-0.3004,-0.3937,-0.4886,-0.58,-0.58,-0.5884,-0.5973,-0.5973,-0.6101,-0.6279,-0.6279,-0.6368,-0.6494,-0.6508,-0.6654,-0.6865,-0.6725,-0.5339,-0.3655,-0.3448,-0.1869,-0.013,-0.0043,-0.1671,-0.3471,-0.3559,-0.5133,-0.6522,-0.5703,-0.538,-0.4913,-0.371,-0.3357,-0.2952,-0.1941,-0.1687,-0.1654,-0.1778,-0.1797,-0.2549,-0.4796,-0.418,-0.3136,-0.2082,-0.0999,-0.0295,-0.0169,-0.0175,-0.0135,0.0,0.0,0.0,0.0,0.0,0.0,0.0,0.2102,0.326,0.326,0.326,0.326,0.326,0.326,0.326,0.326,0.326,0.326,-0.4897,-0.4952,0.0,0.0,-0.5064,-0.516,-0.5429,0.0,0.0,0.0,0.0,0.0,0.0,0.0,0.0,0.0,0.0,0.0,0.0,0.0,0.0,0.0,0.0,0.0,0.0,0.0,0.0,0.0,0.0,0.0,0.0,0.0,0.0,0.0,0.0,-0.3005,-0.3372,-0.4122,-0.4591,0.0,-0.504,-0.5179,-0.515,-0.5104,-0.5066,-0.4994,-0.5199,-0.5483,-0.58,-0.58,-0.582,-0.585,-0.585,-0.5942,-0.6078,-0.6078,-0.6176,-0.6361,-0.6474,-0.6555,-0.6566,-0.6573,-0.5671,-0.4455,-0.3449,-0.228,-0.1061,-0.0216,-0.1046,-0.2398,-0.3225,-0.4469,-0.5646,-0.6262,-0.6389,-0.6029,-0.4809,-0.4538,-0.4216,-0.3148,-0.2221,-0.1659,-0.1782,-0.18,-0.2588,-0.4961,-0.5104,-0.4862,-0.4607,-0.3558,-0.2454,-0.1507,-0.1411,-0.1031,-0.009,0.0,0.0,0.0,0.0,0.0,0.0,0.0494,0.0762,0.0762,0.0762,0.0762,0.0762,0.0762,0.0762,0.0762,0.0762,0.0762,-0.4491,0.0,0.0,-0.4583,0.0,-0.5192,-0.546,0.0,0.0,0.0,0.0,0.0,0.0,0.0,0.0,0.0,0.0,0.0,0.0,0.0,0.0,0.0,0.0,0.0,0.0,0.0,0.0,0.0,0.0,0.0,0.0,0.0,0.0,0.0,-0.276,-0.3539,-0.3929,-0.4441,-0.4691,-0.4694,-0.4958,-0.5137,-0.5243,-0.5358,-0.544,-0.5508,-0.5403,-0.5454,-0.5586,-0.5511,-0.5566,-0.5701,-0.5701,-0.5833,-0.5993,-0.5993,-0.6129,-0.631,-0.6385,-0.6457,-0.6501,-0.6433,-0.5703,-0.4678,-0.3485,-0.2388,-0.1366,-0.0294,-0.089,-0.2047,-0.3112,-0.4183,-0.5264,-0.6361,-0.659,-0.6427,-0.5808,-0.5598,-0.5268,-0.4176,-0.3488,-0.2947,-0.2505,-0.2844,-0.3639,-0.4981,-0.5157,-0.5176,-0.5228,-0.4299,-0.3378,-0.2729,-0.2648,-0.2413,-0.179,-0.1746,-0.1478,-0.0897,-0.0852,-0.0583,-0.0045,0.0,0.0,0.0,0.0,0.0,0.0,0.0,0.0,0.0,0.0,0.0,-0.4491,0.0,-0.4528,-0.4682,-0.4999,0.0,0.0,0.0,0.0,0.0,0.0,0.0,0.0,0.0,0.0,0.0,0.0,0.0,0.0,0.0,0.0,0.0,0.0,0.0,0.0,0.0,0.0,0.0,0.0,0.0,0.0,0.0,-0.1368,-0.1981,-0.2788,-0.3541,-0.4294,-0.4415,-0.4535,-0.4653,-0.4925,-0.5135,-0.5317,-0.5317,-0.5347,-0.5388,-0.5226,-0.5243,-0.5382,-0.5196,-0.5298,-0.5549,-0.5521,-0.5691,-0.5922,-0.5942,-0.6071,-0.6224,-0.6248,-0.6337,-0.6376,-0.6296,-0.5725,-0.489,-0.3495,-0.2537,-0.1615,-0.0365,-0.0864,-0.2,-0.3082,-0.4106,-0.5135,-0.6201,-0.6314,-0.6231,-0.6437,-0.6381,-0.6025,-0.5196,-0.4856,-0.4392,-0.3302,-0.4018,-0.4804,-0.4928,-0.5124,-0.5306,-0.5443,-0.4732,-0.4136,-0.3919,-0.389,-0.3838,-0.3614,-0.3614,-0.317,-0.2191,-0.2102,-0.1657,-0.0673,-0.0631,-0.0677,-0.0677,-0.0225,0.0,0.0,0.0,0.0,0.0,0.0,0.0,0.0,0.0,-0.4528,0.0,-0.4738,-0.4847,0.0,0.0,0.0,0.0,0.0,0.0,0.0,0.0,0.0,0.0,0.0,0.0,0.0,0.0,0.0,0.0,0.0,0.0,0.0,0.0,0.0,0.0,0.0,0.0,0.0,-0.0699,-0.1146,-0.1257,-0.1981,-0.2702,-0.3456,-0.3471,-0.3844,-0.4525,-0.4667,-0.483,-0.4979,-0.4979,-0.5118,-0.5392,-0.5375,-0.5375,-0.5382,-0.5196,-0.5233,-0.5412,-0.5243,-0.5379,-0.5664,-0.5786,-0.5844,-0.5881,-0.6013,-0.6033,-0.6047,-0.603,-0.6086,-0.5733,-0.3713,-0.3013,-0.2485,-0.0566,-0.0774,-0.1875,-0.2888,-0.3934,-0.4994,-0.6081,-0.5613,-0.5182,-0.6129,-0.6313,-0.6302,-0.6284,-0.5502,-0.4508,-0.3322,-0.4187,-0.5038,-0.5079,-0.6065,-0.6796,-0.6812,-0.67,-0.6266,-0.5247,-0.5171,-0.4732,-0.3703,-0.3614,-0.3525,-0.3349,-0.3349,-0.3303,-0.3126,-0.3226,-0.3304,-0.3304,-0.1131,0.0,0.0,0.0,0.0,0.0,0.0,0.0,-0.4491,-0.4491,-0.4505,0.0,-0.4655,-0.4724,0.0,0.0,0.0,0.0,0.0,0.0,0.0,0.0,0.0,0.0,0.0,0.0,0.0,0.0,0.0,0.0,0.0,0.0,0.0,0.0,0.0,0.0,0.0,0.0,-0.0028,-0.0699,-0.109,-0.109,-0.1813,-0.2565,-0.3345,-0.3345,-0.3769,-0.4621,-0.466,-0.4772,-0.4887,-0.4887,-0.5033,-0.5223,-0.5057,-0.5077,-0.5213,-0.4979,-0.4726,-0.4506,-0.4417,-0.454,-0.4826,-0.4885,-0.5299,-0.581,-0.5878,-0.5901,-0.5915,-0.5966,-0.6074,-0.5759,-0.3732,-0.3085,-0.2662,-0.0596,-0.0359,-0.1075,-0.2699,-0.345,-0.4233,-0.5922,-0.5944,-0.5709,-0.6183,-0.5825,-0.5607,-0.626,-0.5998,-0.5523,-0.5094,-0.5508,-0.592,-0.6075,-0.6589,-0.7007,-0.7085,-0.7095,-0.6918,-0.6425,-0.634,-0.6157,-0.562,-0.5575,-0.5307,-0.4641,-0.4694,-0.4406,-0.3725,-0.3846,-0.391,-0.3906,-0.2806,-0.2233,-0.2252,-0.2161,-0.214,-0.2139,-0.2069,-0.2013,0.0,0.0,-0.4236,-0.446,-0.4576,-0.4672,0.0,0.0,0.0,0.0,0.0,0.0,0.0,0.0,0.0,0.0,0.0,0.0,0.0,0.0,0.0,0.0,0.0,0.0,0.0,0.0,0.0,0.0,0.0,0.0,0.0,-0.0532,-0.0811,-0.0811,-0.1535,-0.2286,-0.3095,-0.3483,-0.4011,-0.4662,-0.4662,-0.4694,-0.4802,-0.4802,-0.4884,-0.4978,-0.4826,-0.4874,-0.5026,-0.4588,-0.4171,-0.3763,-0.3564,-0.3761,-0.4167,-0.418,-0.4853,-0.5694,-0.5735,-0.5749,-0.5772,-0.5922,-0.5959,-0.5676,-0.4031,-0.3318,-0.2734,-0.0902,-0.0392,-0.0823,-0.2617,-0.3318,-0.3984,-0.5867,-0.6103,-0.5993,-0.6266,-0.5716,-0.54,-0.6195,-0.6354,-0.6388,-0.6494,-0.6545,-0.662,-0.6846,-0.6916,-0.6977,-0.7082,-0.7095,-0.7095,-0.7095,-0.7095,-0.7095,-0.7095,-0.7132,-0.6793,-0.5941,-0.6014,-0.5709,-0.4824,-0.4917,-0.4958,-0.4981,-0.4984,-0.466,-0.4017,-0.389,-0.3843,-0.382,-0.3716,-0.3633,0.0,-0.34,0.0,-0.4322,0.0,0.0,0.0,0.0,0.0,0.0,0.0,0.0,0.0,0.0,0.0,0.0,0.0,0.0,0.0,0.0,0.0,0.0,0.0,0.0,0.0,0.0,0.0,0.0,0.0,0.0,0.0,-0.0028,-0.0056,-0.0056,-0.0783,-0.1507,-0.2259,-0.3707,-0.4467,-0.4501,-0.4501,-0.4505,-0.4515,-0.4515,-0.4597,-0.4721,-0.485,-0.4884,-0.4857,-0.4012,-0.3703,-0.3731,-0.2892,-0.3158,-0.403,-0.4145,-0.4708,-0.544,-0.5552,-0.5599,-0.5627,-0.5766,-0.5911,-0.5829,-0.4886,-0.3904,-0.289,-0.1802,-0.1528,-0.1762,-0.2813,-0.3865,-0.4882,-0.6025,-0.5512,-0.511,-0.6228,-0.6461,-0.6421,-0.6461,-0.6501,-0.6504,-0.6511,-0.6593,-0.6742,-0.6862,-0.7001,-0.7088,-0.7095,-0.7095,-0.7095,-0.7095,-0.7095,-0.7095,-0.7095,-0.7275,-0.736,-0.7314,-0.7409,-0.7446,-0.7399,-0.7528,-0.7607,-0.7614,-0.7746,-0.6552,-0.4002,-0.3973,-0.3942,-0.3821,-0.3772,-0.373,0.0,0.0,0.0,-0.4322,0.0,0.0,0.0,0.0,0.0,0.0,0.0,0.0,0.0,0.0,0.0,0.0,0.0,0.0,0.0,0.0,0.0,0.0,0.0,0.0,0.0,0.0,0.0,0.0,0.0,0.0,-0.0028,0.0,0.0,0.0,-0.0252,-0.0755,-0.148,-0.2508,-0.3262,-0.3732,-0.3732,-0.4012,-0.4491,-0.4491,-0.4518,-0.4576,-0.4631,-0.468,-0.4732,-0.4346,-0.3993,-0.363,-0.3232,-0.3125,-0.3227,-0.3753,-0.4188,-0.4592,-0.5252,-0.5477,-0.5501,-0.5616,-0.5766,-0.5725,-0.4847,-0.4359,-0.3787,-0.2075,-0.2074,-0.2657,-0.3007,-0.3904,-0.496,-0.6064,-0.6022,-0.5888,-0.6481,-0.6579,-0.6511,-0.6511,-0.6552,-0.6651,-0.6749,-0.681,-0.6856,-0.7001,-0.7065,-0.7095,-0.7095,-0.7095,-0.7132,-0.7278,-0.7288,-0.7329,-0.7428,-0.7485,-0.7516,-0.7516,-0.7655,-0.8112,-0.8961,-0.9127,-0.9604,-1.0427,-1.0498,-0.9219,-0.6566,-0.6486,-0.6873,-0.7614,-0.6695,-0.6672,-0.3037,0.0,0.0,0.0,0.0,0.0,0.0,0.0,0.0,0.0,0.0,0.0,0.0,0.0,0.0,0.0,0.0,0.0,0.0,0.0,0.0,0.0,0.0,0.0,0.0,0.0,0.0,0.0,0.0,0.0,-0.0755,-0.0727,-0.0727,-0.0727,-0.0504,-0.0727,-0.1452,-0.2202,-0.2813,-0.3314,-0.3566,-0.3984,-0.4491,-0.4491,-0.4491,-0.4491,-0.4491,-0.4549,-0.4606,-0.4278,-0.3894,-0.3457,-0.3132,-0.3041,-0.314,-0.3619,-0.4081,-0.4553,-0.5193,-0.5395,-0.5419,-0.5542,-0.5684,-0.5682,-0.5155,-0.4866,-0.4414,-0.301,-0.2852,-0.3202,-0.3552,-0.4453,-0.5434,-0.6141,-0.63,-0.6354,-0.6512,-0.6552,-0.6549,-0.6549,-0.6671,-0.6793,-0.6844,-0.6852,-0.6933,-0.7075,-0.7095,-0.7115,-0.721,-0.7217,-0.7278,-0.7431,-0.7448,-0.7489,-0.759,-0.7645,-0.7672,-0.7672,-0.7807,-0.8466,-0.9812,-0.993,-1.0583,-1.1901,-1.1896,-1.1068,-0.9312,-0.9242,-0.9393,-0.9806,-0.9218,-0.9405,0.0,0.0,0.0,0.0,0.0,0.0,0.0,0.0,0.0,0.0,0.0,0.0,0.0,0.0,0.0,0.0,0.0,0.0,0.0,0.0,0.0,0.0,0.0,0.0,0.0,0.0,0.0,0.0,0.0,-0.2232,-0.2202,-0.2202,-0.2202,-0.2174,-0.148,-0.1452,-0.2174,-0.2871,-0.3259,-0.3314,-0.4098,-0.4491,-0.4491,-0.4491,-0.4491,-0.4491,-0.4491,-0.4491,-0.4436,-0.3735,-0.3383,-0.3278,-0.2545,-0.2887,-0.3813,-0.3807,-0.447,-0.5362,-0.5395,-0.5395,-0.5419,-0.5535,-0.5681,-0.5823,-0.5939,-0.5398,-0.4722,-0.4724,-0.3984,-0.3435,-0.4491,-0.5512,-0.63,-0.63,-0.63,-0.6303,-0.6306,-0.6495,-0.6702,-0.6702,-0.6827,-0.6846,-0.6739,-0.6837,-0.694,-0.7075,-0.7098,-0.72,-0.7398,-0.7419,-0.7438,-0.759,-0.7607,-0.7607,-0.7611,-0.774,-0.7818,-0.7818,-0.7907,-0.863,-0.9998,-1.0047,-1.0681,-1.1994,-1.1999,-1.1994,-1.1945,-1.1896,-1.1206,-0.9962,-1.119,-1.1687,-0.3037,0.0,0.0,0.0,0.0,0.0,0.0,0.0,0.0,0.0,0.0,0.0,0.0,0.0,0.0,0.0,0.0,0.0,0.0,0.0,0.0,0.0,0.0,0.0,0.0,0.0,0.0,0.0,-0.3148,-0.276,-0.2232,-0.2202,-0.1952,-0.1424,-0.1202,-0.1202,-0.1396,-0.1619,-0.2259,-0.3372,-0.3594,-0.3987,-0.4491,-0.4491,-0.4491,-0.4491,-0.4491,-0.4491,-0.4491,-0.4294,-0.4238,-0.4297,-0.3993,-0.3843,-0.3866,-0.4385,-0.4495,-0.4486,-0.516,-0.5395,-0.5402,-0.5443,-0.5562,-0.5677,-0.582,-0.5747,-0.55,-0.4858,-0.504,-0.5473,-0.5786,-0.6064,-0.63,-0.63,-0.63,-0.6327,-0.6429,-0.6566,-0.6702,-0.6702,-0.6905,-0.7024,-0.6984,-0.7011,-0.7051,-0.7092,-0.7238,-0.7322,-0.7412,-0.7468,-0.7594,-0.7736,-0.7753,-0.7797,-0.786,-0.7904,-0.7928,-0.7928,-0.7968,-0.9019,-1.1263,-1.1365,-1.2431,-1.4663,-1.4711,-1.4268,-1.3343,-1.2382,-1.22,-1.2757,-1.3146,-1.2773,0.0,0.0,0.0,0.0,0.0,0.0,-0.4491,-0.4491,0.0,0.0,0.0,0.0,0.0,0.0,0.0,0.0,0.0,0.0,0.0,0.0,0.0,0.0,0.0,0.0,0.0,0.0,0.0,0.0,-0.3818,-0.3624,-0.3176,-0.2843,-0.2482,-0.2065,-0.173,-0.1563,-0.1563,-0.187,-0.2482,-0.3372,-0.3707,-0.407,-0.4491,-0.4491,-0.4491,-0.4491,-0.4491,-0.4491,-0.4491,-0.4491,-0.4542,-0.4621,-0.4597,-0.4457,-0.4313,-0.4796,-0.4801,-0.4652,-0.5226,-0.5395,-0.5395,-0.5395,-0.5498,-0.5616,-0.5759,-0.5908,-0.5911,-0.5473,-0.5825,-0.63,-0.63,-0.63,-0.63,-0.63,-0.63,-0.6323,-0.6405,-0.6542,-0.6624,-0.6688,-0.6939,-0.7078,-0.7018,-0.7058,-0.7095,-0.7095,-0.7217,-0.7322,-0.7451,-0.7546,-0.7678,-0.7885,-0.7906,-0.7894,-0.7982,-0.7988,-0.7988,-0.7988,-0.8531,-0.9752,-1.1799,-1.2431,-1.3686,-1.5778,-1.5784,-1.5439,-1.4704,-1.3932,-1.3932,-1.4704,-1.4704,-1.4268,0.0,0.0,0.0,0.0,0.0,0.0,-0.4377,-0.4436,-0.4491,0.0,0.0,0.0,0.0,0.0,0.0,0.0,0.0,0.0,0.0,0.0,0.0,0.0,0.0,0.0,0.0,0.0,-0.4377,-0.4377,-0.446,-0.4491,-0.4491,-0.3818,-0.3428,-0.34,-0.2704,-0.2313,-0.2313,-0.2982,-0.3345,-0.3456,-0.4153,-0.4491,-0.4491,-0.4491,-0.4491,-0.4491,-0.4491,-0.4491,-0.4491,-0.4491,-0.4501,-0.4528,-0.4665,-0.4796,-0.4928,-0.5052,-0.5226,-0.5395,-0.5395,-0.5395,-0.5395,-0.5395,-0.5487,-0.5593,-0.5752,-0.5895,-0.604,-0.6252,-0.6286,-0.6279,-0.6293,-0.63,-0.63,-0.63,-0.63,-0.63,-0.63,-0.6426,-0.6536,-0.6675,-0.6926,-0.7038,-0.6927,-0.7014,-0.7095,-0.7095,-0.7125,-0.7247,-0.7563,-0.7628,-0.775,-0.7961,-0.7988,-0.7988,-0.7988,-0.7988,-0.8088,-0.8237,-0.9361,-1.0632,-1.2042,-1.3247,-1.4507,-1.5784,-1.5784,-1.5784,-1.5784,-1.5784,-1.5784,-1.5784,-1.5784,-1.5784,0.0,0.0,0.0,0.0,0.0,0.0,-0.3624,-0.407,-0.4491,0.0,0.0,0.0,0.0,0.0,0.0,0.0,0.0,0.0,0.0,0.0,0.0,0.0,0.0,0.0,0.0,0.0,-0.3594,-0.3539,-0.4125,-0.4491,-0.4491,-0.4349,-0.3984,-0.3345,-0.3176,-0.3093,-0.3093,-0.3231,-0.3622,-0.4267,-0.4436,-0.4491,-0.4491,-0.4491,-0.4491,-0.4491,-0.4491,-0.4491,-0.4491,-0.4491,-0.4563,-0.4679,-0.4677,-0.4853,-0.5059,-0.509,-0.5226,-0.5395,-0.5395,-0.5395,-0.5395,-0.5395,-0.5416,-0.5487,-0.5722,-0.5823,-0.5905,-0.6221,-0.6169,-0.6105,-0.6269,-0.63,-0.63,-0.63,-0.63,-0.63,-0.63,-0.6508,-0.6664,-0.6695,-0.6848,-0.6953,-0.7041,-0.7078,-0.7095,-0.7095,-0.735,-0.7533,-0.7594,-0.7807,-0.7928,-0.7985,-0.7988,-0.7988,-0.7988,-0.7988,-0.8482,-0.9558,-0.9854,-1.1068,-1.3392,-1.3776,-1.4507,-1.5784,-1.5784,-1.5784,-1.5784,-1.5784,-1.5784,-1.5784,-1.5784,-1.5784,0.0,0.0,0.0,-0.2202,0.0,0.0,0.0,-0.3649,-0.3901,0.0,0.0,0.0,0.0,0.0,0.0,0.0,0.0,0.0,0.0,0.0,0.0,0.0,0.0,0.0,0.0,0.0,-0.3372,-0.3314,-0.4042,-0.4491,-0.4491,-0.4491,-0.4322,-0.3901,-0.3901,-0.3901,-0.3901,-0.3901,-0.3929,-0.3959,-0.4322,-0.4294,-0.3959,-0.4322,-0.4491,-0.4494,-0.4573,-0.4604,-0.461,-0.466,-0.4775,-0.4904,-0.4833,-0.4894,-0.5012,-0.5192,-0.5327,-0.5395,-0.5395,-0.5395,-0.5395,-0.5395,-0.5395,-0.5436,-0.5627,-0.58,-0.5962,-0.6235,-0.6245,-0.6162,-0.6279,-0.63,-0.6472,-0.709,-0.6795,-0.658,-0.7208,-0.6997,-0.6722,-0.68,-0.6832,-0.693,-0.7071,-0.7095,-0.7095,-0.7095,-0.7227,-0.7428,-0.758,-0.7729,-0.7875,-0.7975,-0.7988,-0.7988,-0.7988,-0.8627,-0.9266,-0.9948,-1.1209,-1.2522,-1.383,-1.4507,-1.5146,-1.5778,-1.5784,-1.5784,-1.5784,-1.5784,-1.5784,-1.5784,-1.5784,-1.5784,0.0,0.0,0.0,0.0,0.0,-0.2148,0.0,0.0,0.0,-0.3093,0.0,0.0,0.0,0.0,0.0,0.0,0.0,0.0,0.0,0.0,0.0,0.0,0.0,0.0,0.0,0.0,-0.3404,-0.3508,-0.4103,-0.446,-0.4487,-0.4491,-0.4491,-0.4491,-0.4491,-0.4491,-0.4491,-0.4491,-0.4211,-0.3624,-0.4211,-0.4184,-0.3624,-0.4236,-0.4505,-0.4542,-0.4665,-0.4691,-0.4704,-0.4857,-0.4938,-0.5009,-0.4951,-0.4979,-0.5033,-0.5306,-0.5395,-0.5395,-0.5395,-0.5395,-0.5395,-0.5395,-0.5433,-0.5498,-0.5559,-0.5796,-0.602,-0.6179,-0.6367,-0.6528,-0.6598,-0.6778,-0.7212,-0.8173,-0.7621,-0.7137,-0.8122,-0.7473,-0.678,-0.6862,-0.691,-0.6964,-0.7078,-0.7095,-0.7095,-0.7095,-0.7122,-0.7275,-0.7522,-0.7604,-0.7733,-0.7921,-0.7971,-0.8088,-0.8382,-0.9365,-1.0194,-1.0725,-1.2711,-1.4022,-1.4268,-1.5242,-1.5784,-1.5784,-1.5784,-1.5784,-1.5784,-1.5784,-1.5784,-1.5784,-1.5784,-1.5784,0.0,0.0,0.0,0.0,-0.0755,0.0,0.0,0.0,-0.2315,-0.2315,0.0,0.0,0.0,0.0,0.0,0.0,0.0,0.0,0.0,0.0,0.0,0.0,0.0,0.0,0.0,0.0,0.0,-0.4312,-0.4287,-0.4301,-0.4484,-0.4491,-0.4491,-0.4491,-0.4491,-0.4491,-0.4491,-0.4491,-0.446,-0.4377,-0.446,-0.446,-0.4377,-0.446,-0.4563,-0.4667,-0.4684,-0.4691,-0.4704,-0.4857,-0.485,-0.4765,-0.4978,-0.5192,-0.5347,-0.5382,-0.5395,-0.5395,-0.5395,-0.5395,-0.5395,-0.5395,-0.5573,-0.5732,-0.5623,-0.5796,-0.5996,-0.6013,-0.6682,-0.7418,-0.7588,-0.8483,-0.9272,-0.9186,-0.8686,-0.8166,-0.8068,-0.7447,-0.6866,-0.6883,-0.6987,-0.7078,-0.7092,-0.7095,-0.7095,-0.7095,-0.7258,-0.7402,-0.7439,-0.7624,-0.7801,-0.7834,-0.7911,-0.8482,-0.9657,-0.9899,-1.097,-1.3295,-1.3734,-1.4411,-1.5534,-1.573,-1.5784,-1.5784,-1.5784,-1.5784,-1.5784,-1.5784,-1.5784,-1.5784,-1.5784,-1.5784,0.0,0.0,0.0,0.0,0.0,0.0,0.0,0.0,-0.1563,0.0,0.0,0.0,0.0,0.0,0.0,0.0,0.0,0.0,0.0,0.0,0.0,0.0,0.0,0.0,0.0,0.0,0.0,0.0,0.0,-0.4284,-0.4484,-0.4491,-0.4491,-0.4491,-0.4491,-0.4491,-0.4491,-0.4491,-0.4267,-0.3818,-0.4267,-0.4267,-0.3818,-0.4294,-0.4576,-0.4697,-0.4782,-0.487,-0.4958,-0.5111,-0.517,-0.5122,-0.5216,-0.525,-0.524,-0.5361,-0.5395,-0.5395,-0.5395,-0.5395,-0.5409,-0.5498,-0.5579,-0.5698,-0.581,-0.5895,-0.6013,-0.6139,-0.6464,-0.6969,-0.7613,-0.8184,-0.8937,-1.035,-0.9972,-0.9299,-0.9377,-0.8618,-0.7727,-0.7054,-0.6933,-0.7215,-0.7998,-0.7577,-0.736,-0.8061,-0.7717,-0.7415,-0.7415,-0.7556,-0.7719,-0.7801,-0.8542,-0.9299,-0.994,-1.1404,-1.2711,-1.3824,-1.4609,-1.5242,-1.5784,-1.5784,-1.5784,-1.5784,-1.5784,-1.5784,-1.5784,-1.5784,-1.5784,-1.5784,-1.5784,-1.5784,0.0,0.0,0.0,0.0,0.0,0.0,0.0,0.0,0.0,0.0,0.0,0.0,0.0,0.0,0.0,0.0,0.0,0.0,0.0,0.0,0.0,0.0,0.0,0.0,0.0,0.0,0.0,0.0,-0.392,-0.424,-0.4481,-0.4491,-0.4491,-0.4491,-0.4491,-0.4491,-0.4491,-0.4491,-0.4208,-0.3622,-0.4208,-0.4184,-0.3649,-0.4236,-0.4597,-0.4758,-0.487,-0.4968,-0.511,-0.533,-0.5371,-0.5337,-0.5378,-0.5324,-0.5206,-0.5354,-0.5395,-0.5395,-0.5395,-0.5395,-0.5412,-0.5525,-0.5583,-0.5681,-0.5854,-0.5996,-0.6108,-0.6176,-0.6454,-0.6872,-0.7591,-0.8047,-0.8836,-1.0936,-1.0658,-1.0009,-1.0479,-0.9525,-0.8295,-0.7467,-0.7097,-0.7443,-0.9074,-0.836,-0.7885,-0.8759,-0.8302,-0.7712,-0.7351,-0.7714,-0.8034,-0.8146,-0.9413,-1.0432,-1.0872,-1.2769,-1.407,-1.4411,-1.5289,-1.5784,-1.5784,-1.5784,-1.5784,-1.5784,-1.5784,-1.5784,-1.5784,-1.5784,-1.5784,-1.5784,-1.5784,-1.5784,0.0,0.0,0.0,0.0,0.0,0.0,0.0,0.0,-0.0028,0.0,0.0,0.0,0.0,0.0,0.0,0.0,0.0,0.0,0.0,0.0,0.0,0.0,0.0,0.0,0.0,0.0,0.0,-0.4154,-0.4063,-0.4155,-0.4474,-0.4491,-0.4491,-0.4491,-0.4491,-0.4491,-0.4491,-0.4491,-0.4491,-0.446,-0.4491,-0.4491,-0.446,-0.4491,-0.4655,-0.4881,-0.4887,-0.4968,-0.511,-0.533,-0.5274,-0.512,-0.5337,-0.5392,-0.5388,-0.5392,-0.5395,-0.5395,-0.5395,-0.5395,-0.5395,-0.5399,-0.5597,-0.5772,-0.5644,-0.5945,-0.6262,-0.6078,-0.6855,-0.7744,-0.7783,-0.8724,-0.9831,-1.064,-1.0367,-1.0084,-1.0818,-0.9527,-0.8226,-0.8324,-0.756,-0.7698,-1.0101,-0.9579,-0.8846,-0.889,-0.8851,-0.842,-0.7279,-0.8251,-0.9075,-0.9079,-1.051,-1.1932,-1.3169,-1.3684,-1.4411,-1.5683,-1.5784,-1.5784,-1.5784,-1.5784,-1.5784,-1.5784,-1.5784,-1.5784,-1.5784,-1.5784,-1.5784,-1.5784,-1.5784,-1.5784,0.0,0.0,0.0,0.0,0.0,0.0,0.0,0.0,0.0,0.0,0.0,0.0,0.0,0.0,0.0,0.0,0.0,0.0,0.0,0.0,0.0,0.0,0.0,0.0,0.0,0.0,0.0,-0.4368,-0.4227,-0.423,0.0,-0.4491,-0.4491,-0.4491,-0.4491,-0.4491,-0.4491,-0.4491,-0.4491,-0.4491,-0.4491,-0.4491,-0.4491,-0.4491,-0.4604,-0.4772,-0.4874,-0.4968,-0.511,-0.533,-0.5365,-0.532,-0.5375,-0.5395,-0.5395,-0.5395,-0.5395,-0.5395,-0.5395,-0.5395,-0.5412,-0.5515,-0.5644,-0.5918,-0.6649,-0.6611,-0.644,-0.7026,-0.7015,-0.6945,-0.7633,-0.8132,-0.8889,-1.0653,-1.0911,-1.0903,-1.1344,-1.0952,-1.0345,-0.9819,-0.9442,-0.9757,-1.1428,-1.1423,-1.1166,-1.1166,-1.0562,-0.999,-0.9458,-0.9881,-1.0234,-1.0234,-1.1668,-1.2842,-1.338,-1.4496,-1.5337,-1.5784,-1.5784,-1.5784,-1.5784,-1.5784,-1.5784,-1.5784,-1.5784,-1.5784,-1.5784,-1.5784,-1.5784,-1.5784,-1.5784,-1.5784,0.0,0.0,0.0,0.0,0.0,0.0,0.0,0.0,0.0,0.0,0.0,0.0,0.0,0.0,0.0,0.0,0.0,0.0,0.0,-0.1256,0.0,0.0,0.0,0.0,0.0,0.0,-0.3837,-0.4368,-0.4274,-0.4284,0.0,0.0,-0.4377,-0.407,-0.4349,-0.4377,-0.4098,-0.4377,-0.4491,-0.4491,-0.4491,-0.4491,-0.4491,-0.4491,-0.4576,-0.4701,-0.4853,-0.4968,-0.511,-0.533,-0.5395,-0.5395,-0.5395,-0.5395,-0.5395,-0.5395,-0.5591,-0.5848,-0.5848,-0.6079,-0.637,-0.6547,-0.6689,-0.6968,-0.7801,-0.7743,-0.7518,-0.8161,-0.7859,-0.7442,-0.7706,-0.8046,-0.8689,-1.0171,-1.078,-1.1209,-1.1776,-1.1697,-1.1392,-1.0895,-1.0595,-1.0805,-1.2068,-1.2285,-1.2285,-1.2285,-1.1733,-1.1166,-1.0674,-1.1043,-1.1307,-1.1307,-1.282,-1.3954,-1.4219,-1.5186,-1.5784,-1.5784,-1.5784,-1.5784,-1.5784,-1.5784,-1.5784,-1.5784,-1.5784,-1.5784,-1.5784,-1.5784,-1.5784,-1.5784,-1.5784,-1.5784]},{"header":{"parameterUnit":"m.s-1","parameterCategory":1,"la1":30.6,"la2":29.2853,"lo1":-89.7004,"lo2":-87.6739,"dy":0.0162,"dx":0.0183,"nx":112,"ny":82,"refTime":"2024-03-02T06:00:00:Z","depth":0,"parameterNumber":3,"parameterNumberName":"V-component_of_WINDS"},"data":[0.0,0.0,0.0,0.0,0.0,0.0,0.0,0.0,0.0,0.0,0.0,0.0,0.0,0.0,0.0,0.0,0.0,0.0,0.0,0.0,0.0,0.0,0.0,0.0,0.0,0.0,0.0,0.0,0.0,0.0,0.0,0.0,0.0,0.0,0.0,0.0,0.0,0.0,0.0,0.0,0.0,0.0,0.0,0.0,0.0,0.0,0.0,0.0,0.0,0.0,0.0,0.0,0.0,0.0,0.0,0.0,0.0,0.0,0.0,0.0,0.0,0.0,0.0,0.0,0.0,0.0,0.0,0.0,0.0,0.0,0.0,0.0,0.0,0.0,0.0,0.0,0.0,0.0,0.0,0.0,0.0,0.0,0.0,0.0,0.0,0.0,0.0,0.0,0.0,0.0,0.0,1.2462,1.3355,1.3466,1.2402,1.3037,1.4043,1.5312,0.0,0.0,0.0,0.0,0.0,0.0,0.0,0.0,0.0,0.0,0.0,0.0,0.0,0.0,0.0,0.0,0.0,0.0,0.0,0.0,0.0,0.0,0.0,0.0,0.0,0.0,0.0,0.0,0.0,0.0,0.0,0.0,0.0,0.0,0.0,0.0,0.0,0.0,0.0,0.0,0.0,0.0,0.0,0.0,0.0,0.0,0.0,0.0,0.0,0.0,0.0,0.0,0.0,0.0,0.0,0.0,0.0,0.0,0.0,0.0,0.0,0.0,0.0,0.0,0.0,0.0,0.0,0.0,0.0,0.0,0.0,0.0,0.0,0.0,0.0,0.0,0.0,0.0,0.0,0.0,0.0,0.0,0.0,0.0,0.0,0.0,0.0,0.0,0.0,0.0,0.0,0.0,0.0,0.0,0.0,0.0,0.0,0.0,0.0,0.0,0.0,0.0,0.0,0.0,1.3117,1.1815,1.2466,1.2341,1.0719,1.0707,1.2107,1.5195,0.0,0.0,0.0,0.0,0.0,0.0,0.0,0.0,0.0,0.0,0.0,0.0,0.0,0.0,0.0,0.0,0.0,0.0,0.0,0.0,0.0,0.0,0.0,0.0,0.0,0.0,0.0,0.0,0.0,0.0,0.0,0.0,0.0,0.0,0.0,0.0,0.0,0.0,0.0,0.0,0.0,0.0,0.0,0.0,0.0,0.0,0.0,0.0,0.0,0.0,0.0,0.0,0.0,0.0,0.0,0.0,0.0,0.0,0.0,0.0,0.0,0.0,0.0,0.0,0.0,0.0,0.0,0.0,0.0,0.0,0.0,0.0,0.0,0.0,0.0,0.0,0.0,0.0,0.0,0.0,0.0,0.0,0.0,0.0,0.0,0.0,0.0,0.0,0.0,0.0,0.0,0.0,0.0,0.0,0.0,0.0,0.0,0.0,0.0,0.0,0.0,0.0,0.0,1.2973,1.2381,1.1582,1.186,1.177,1.097,1.0469,1.1696,1.5176,1.6089,0.0,0.0,0.0,0.0,0.0,0.0,0.0,0.0,0.0,0.0,0.0,0.0,0.0,0.0,0.0,0.0,0.0,0.0,0.0,0.0,0.0,0.0,0.0,0.0,0.0,0.0,0.0,0.0,0.0,0.0,0.0,0.0,0.0,0.0,0.0,0.0,0.0,0.0,0.0,0.0,0.0,0.0,0.0,0.0,0.0,0.0,0.0,0.0,0.0,0.0,0.0,0.0,0.0,0.0,0.0,0.0,0.0,0.0,0.0,0.0,0.0,0.0,0.0,0.0,0.0,0.0,0.0,0.0,0.0,0.0,0.0,0.0,0.0,0.0,0.0,0.0,0.0,0.0,0.0,0.0,0.0,0.0,0.0,0.0,0.0,0.0,0.0,0.0,0.0,0.0,0.0,0.0,0.0,0.0,0.0,0.0,0.0,0.0,0.0,0.0,0.0,0.0,1.2357,1.1576,1.15,1.15,1.1425,1.1214,1.0575,1.1691,1.5175,1.5588,0.0,0.0,0.0,0.0,0.0,0.0,0.0,0.0,0.0,0.0,0.0,0.0,0.0,0.0,0.0,0.0,0.0,0.0,0.0,0.0,0.0,0.0,0.0,0.0,0.0,0.0,0.0,0.0,0.0,0.0,0.0,0.0,0.0,0.0,0.0,0.0,0.0,0.0,0.0,0.0,0.0,0.0,0.0,0.0,0.0,0.0,0.0,0.0,0.0,0.0,0.0,0.0,0.0,0.0,0.0,0.0,0.0,0.0,0.0,0.0,0.0,0.0,0.0,0.0,0.0,0.0,0.0,0.0,0.0,0.0,0.0,0.0,0.0,0.0,0.0,0.0,0.0,0.0,0.0,0.0,0.0,0.0,0.0,0.0,0.0,0.0,0.0,0.0,0.0,0.0,0.0,0.0,0.0,0.0,0.0,0.0,0.0,0.0,0.0,0.0,0.0,0.0,1.3102,1.158,1.1511,1.1509,1.1168,1.0353,1.0242,1.1683,1.5171,1.6321,0.0,0.0,0.0,0.0,0.0,0.0,0.0,0.0,0.0,0.0,0.0,0.0,0.0,0.0,0.0,0.0,0.0,0.0,0.0,0.0,0.0,0.0,0.0,0.0,0.0,0.0,0.0,0.0,0.0,0.0,0.0,0.0,0.0,0.0,0.0,0.0,0.0,0.0,0.0,0.0,0.0,0.0,0.0,0.0,0.0,0.0,0.0,0.0,0.0,0.0,0.0,0.0,0.0,0.0,0.0,0.0,0.0,0.0,0.0,0.0,0.0,0.0,0.0,0.0,0.0,0.0,0.0,0.0,0.0,0.0,0.0,0.0,0.0,0.0,0.0,0.0,0.0,0.0,0.0,0.0,0.0,0.0,0.0,0.0,0.0,0.0,0.0,0.0,0.0,0.0,0.0,0.0,0.0,0.0,0.0,0.0,0.0,0.0,0.0,0.0,0.0,0.0,1.2832,1.1366,0.0,1.0695,1.0564,1.0221,1.0664,1.2196,1.5144,0.0,0.0,0.0,0.0,0.0,0.0,0.0,0.0,0.0,0.0,0.0,0.0,0.0,0.0,0.0,0.0,0.0,0.0,0.0,0.0,0.0,0.0,0.0,0.0,0.0,0.0,0.0,0.0,0.0,0.0,0.0,0.0,0.0,0.0,0.0,0.0,0.0,0.0,0.0,0.0,0.0,0.0,0.0,0.0,0.0,0.0,0.0,0.0,0.0,0.0,0.0,0.0,0.0,0.0,0.0,0.0,0.0,0.0,0.0,0.0,0.0,0.0,0.0,0.0,0.0,0.0,0.0,0.0,0.0,0.0,0.0,0.0,0.0,0.0,0.0,0.0,0.0,0.0,0.0,0.0,0.0,0.0,0.0,0.0,0.0,0.0,0.0,0.0,0.0,0.0,0.0,0.0,0.0,0.0,0.0,0.0,0.0,0.0,0.0,0.0,0.0,0.0,1.4668,1.2578,1.0937,0.0,1.0197,1.0205,1.0195,1.1022,1.2635,1.5139,0.0,0.0,0.0,0.0,0.0,0.0,0.0,0.0,0.0,0.0,0.0,0.0,0.0,0.0,0.0,0.0,0.0,0.0,0.0,0.0,0.0,0.0,0.0,0.0,0.0,0.0,0.0,0.0,0.0,0.0,0.0,0.0,0.0,0.0,0.0,0.0,0.0,0.0,0.0,0.0,0.0,0.0,0.0,0.0,0.0,0.0,0.0,0.0,0.0,0.0,0.0,0.0,0.0,0.0,0.0,0.0,0.0,0.0,0.0,0.0,0.0,0.0,0.0,0.0,0.0,0.0,0.0,0.0,0.0,0.0,0.0,0.0,0.0,0.0,0.0,0.0,0.0,0.0,0.0,0.0,0.0,0.0,0.0,0.0,0.0,0.0,0.0,0.0,0.0,0.0,0.0,0.0,0.0,0.0,0.0,0.0,0.0,0.0,0.0,0.0,0.0,0.0,1.5391,1.2402,1.0273,1.0208,1.0207,1.0201,1.0197,1.1237,1.287,0.0,0.0,0.0,0.0,0.0,0.0,0.0,0.0,0.0,0.0,0.0,0.0,0.0,0.0,0.0,0.0,0.0,0.0,0.0,0.0,0.0,0.0,0.0,0.0,0.0,0.0,0.0,0.0,0.0,0.0,0.0,0.0,0.0,0.0,0.0,0.0,0.0,0.0,0.0,0.0,0.0,0.0,0.0,0.0,0.0,0.0,0.0,0.0,0.0,0.0,0.0,0.0,0.0,0.0,0.0,0.0,0.0,0.0,0.0,0.0,0.0,0.0,0.0,0.0,0.0,0.0,0.0,0.0,0.0,0.0,0.0,0.0,0.0,0.0,0.0,0.0,0.0,0.0,0.0,0.0,0.0,0.0,0.0,0.0,0.0,0.0,0.0,0.0,0.0,0.0,0.0,0.0,0.0,0.0,0.0,0.0,0.0,0.0,0.0,0.0,0.0,0.0,0.0,1.5391,1.2402,1.0293,1.0273,1.023,1.0205,1.0201,1.1237,1.2854,1.5093,0.0,0.0,0.0,0.0,0.0,0.0,0.0,0.0,0.0,0.0,0.0,0.0,0.0,0.0,0.0,0.0,0.0,0.0,0.0,0.0,0.0,0.0,0.0,0.0,0.0,0.0,0.0,0.0,0.0,0.0,0.0,0.0,0.0,0.0,0.0,0.0,0.0,0.0,0.0,0.0,0.0,0.0,0.0,0.0,0.0,0.0,0.0,0.0,0.0,0.0,0.0,0.0,0.0,0.0,0.0,0.0,0.0,0.0,0.0,0.0,0.0,0.0,0.0,0.0,0.0,0.0,0.0,0.0,0.0,0.0,0.0,0.0,0.0,0.0,0.0,0.0,0.0,0.0,0.0,0.0,0.0,0.0,0.0,0.0,0.0,0.0,0.0,0.0,0.0,0.0,0.0,0.0,0.0,0.0,0.0,0.0,0.0,0.0,0.0,0.0,0.0,0.0,1.5391,1.2715,1.082,1.082,1.1093,1.1286,1.1286,1.2209,1.3485,1.5133,0.0,0.0,0.0,0.0,0.0,0.0,0.0,0.0,0.0,0.0,0.0,0.0,0.0,0.0,0.0,0.0,0.0,0.0,0.0,0.0,0.0,0.0,0.0,0.0,0.0,0.0,0.0,0.0,0.0,0.0,0.0,0.0,0.0,0.0,0.0,0.0,0.0,0.0,0.0,0.0,0.0,0.0,0.0,0.0,0.0,0.0,0.0,0.0,0.0,0.0,0.0,0.0,0.0,0.0,0.0,0.0,0.0,0.0,0.0,0.0,0.0,0.0,0.0,0.0,0.0,0.0,0.0,0.0,0.0,0.0,0.0,0.0,0.0,0.0,0.0,0.0,0.0,0.0,0.0,0.0,0.0,0.0,0.0,0.0,0.0,0.0,0.0,0.0,0.0,0.0,0.0,0.0,0.0,0.0,0.0,0.0,0.0,0.0,0.0,0.0,0.0,0.0,1.5527,1.3301,1.1719,1.1719,1.2422,1.2891,1.2891,1.3613,1.4429,1.525,0.0,0.0,0.0,0.0,0.0,0.0,0.0,0.0,0.0,0.0,0.0,0.0,0.0,0.0,0.0,0.0,0.0,0.0,0.0,0.0,0.0,0.0,0.0,0.0,0.0,0.0,0.0,0.0,0.0,0.0,0.0,0.0,0.0,0.0,0.0,0.0,0.0,0.0,0.0,0.0,0.0,0.0,0.0,0.0,0.0,0.0,0.0,0.0,0.0,0.0,0.0,0.0,0.0,0.0,0.0,0.0,0.0,0.0,0.0,0.0,2.2196,0.0,0.0,0.0,0.0,0.0,0.0,0.0,0.0,0.0,0.0,0.0,0.0,0.0,0.0,0.0,0.0,0.0,0.0,0.0,0.0,0.0,0.0,0.0,0.0,0.0,0.0,0.0,0.0,0.0,0.0,0.0,0.0,0.0,0.0,0.0,0.0,0.0,0.0,0.0,0.0,0.0,1.6426,1.4199,1.2617,1.2617,1.2793,1.2891,1.2891,1.3437,1.4215,1.525,0.0,0.0,0.0,0.0,0.0,0.0,0.0,0.0,0.0,0.0,0.0,0.0,0.0,0.0,0.0,0.0,0.0,0.0,0.0,0.0,0.0,0.0,0.0,0.0,0.0,0.0,0.0,0.0,0.0,0.0,0.0,0.0,0.0,0.0,0.0,0.0,0.0,0.0,0.0,0.0,0.0,0.0,0.0,0.0,0.0,0.0,0.0,0.0,0.0,0.0,0.0,0.0,0.0,0.0,0.0,0.0,0.0,0.0,0.0,0.0,0.0,2.0461,0.0,0.0,0.0,0.0,0.0,0.0,0.0,0.0,0.0,0.0,0.0,0.0,0.0,0.0,0.0,0.0,0.0,0.0,0.0,0.0,0.0,0.0,0.0,0.0,0.0,0.0,0.0,0.0,0.0,0.0,0.0,0.0,0.0,0.0,0.0,0.0,0.0,0.0,0.0,0.0,1.6758,1.4805,1.3477,1.3477,1.3848,1.4102,1.4102,1.4746,1.5429,1.6122,1.7622,0.0,0.0,0.0,0.0,0.0,0.0,0.0,0.0,0.0,0.0,0.0,0.0,0.0,0.0,0.0,0.0,0.0,0.0,0.0,0.0,0.0,0.0,0.0,0.0,0.0,0.0,0.0,0.0,0.0,0.0,0.0,0.0,0.0,0.0,0.0,0.0,0.0,0.0,0.0,0.0,0.0,0.0,0.0,0.0,0.0,0.0,0.0,0.0,0.0,0.0,0.0,0.0,0.0,0.0,2.2012,2.2656,2.2656,2.1747,2.0151,1.9476,1.9095,1.901,0.0,0.0,0.0,0.0,0.0,0.0,0.0,0.0,0.0,0.0,0.0,0.0,0.0,0.0,0.0,0.0,0.0,0.0,0.0,0.0,0.0,0.0,0.0,0.0,0.0,2.3203,2.3358,0.0,0.0,0.0,0.0,0.0,0.0,0.0,0.0,0.0,0.0,0.0,0.0,1.7266,1.5762,1.4727,1.457,1.5332,1.5723,1.543,1.6348,1.707,1.7383,1.851,1.952,0.0,0.0,0.0,0.0,0.0,0.0,0.0,0.0,0.0,0.0,0.0,0.0,0.0,0.0,0.0,0.0,0.0,0.0,0.0,0.0,0.0,0.0,0.0,0.0,0.0,0.0,0.0,0.0,0.0,0.0,0.0,0.0,2.0718,2.0729,0.0,0.0,0.0,0.0,0.0,0.0,0.0,0.0,0.0,0.0,0.0,0.0,0.0,0.0,2.0338,2.0458,2.0543,2.0605,2.0723,2.082,2.0937,2.0872,2.0303,1.9346,1.9175,0.0,1.797,1.8837,0.0,0.0,0.0,0.0,0.0,0.0,0.0,0.0,0.0,0.0,0.0,0.0,0.0,0.0,0.0,0.0,0.0,0.0,0.0,0.0,0.0,0.0,2.3116,2.3183,2.3203,2.3202,0.0,2.386,2.4392,2.4448,0.0,0.0,0.0,0.0,0.0,0.0,0.0,0.0,1.9062,1.8105,1.7207,1.6445,1.7148,1.7031,1.5527,1.6894,1.8066,1.8633,1.8847,1.9379,2.0364,2.0395,0.0,0.0,0.0,0.0,0.0,0.0,0.0,0.0,0.0,0.0,0.0,0.0,0.0,0.0,0.0,0.0,0.0,0.0,0.0,0.0,0.0,0.0,0.0,0.0,0.0,0.0,0.0,0.0,0.0,2.163,2.1454,2.0507,2.1643,2.2819,0.0,0.0,0.0,0.0,0.0,0.0,0.0,0.0,0.0,2.1807,2.041,1.9895,2.0377,1.9495,1.9303,1.9818,1.9843,2.0137,2.0625,2.1072,2.1035,2.0603,2.0565,2.0299,1.9792,1.9223,1.9569,2.0396,0.0,0.0,0.0,0.0,0.0,2.3412,2.2228,0.0,0.0,0.0,0.0,0.0,0.0,0.0,0.0,0.0,0.0,0.0,0.0,0.0,0.0,2.3248,2.3137,2.3141,2.3103,2.3436,2.3826,0.0,2.4647,2.5106,2.554,0.0,0.0,0.0,0.0,0.0,1.9473,1.8535,1.7852,1.7461,1.7773,1.7695,1.6934,1.8008,1.8848,1.9102,1.9548,2.0,2.0437,2.0381,2.0324,0.0,0.0,0.0,0.0,0.0,0.0,0.0,0.0,0.0,0.0,0.0,0.0,0.0,0.0,0.0,0.0,0.0,0.0,0.0,0.0,0.0,0.0,0.0,0.0,0.0,0.0,0.0,0.0,2.0904,2.121,2.0189,2.1214,2.2406,0.0,0.0,0.0,0.0,0.0,0.0,2.3269,2.2432,2.2164,2.2556,2.051,1.9693,2.0289,1.9122,1.8877,1.953,1.9822,2.0293,2.0957,2.1836,2.2156,2.2038,2.2027,2.1967,2.1741,2.0254,2.0373,2.1466,2.1116,2.1882,2.3137,2.2274,2.2921,2.4107,2.3309,2.3061,2.3124,2.3334,0.0,2.3818,2.4409,0.0,0.0,0.0,0.0,2.4996,2.4366,0.0,2.4117,2.3812,2.3745,2.3674,2.3476,2.3632,2.3906,0.0,2.4613,2.5056,2.553,0.0,0.0,0.0,0.0,2.1348,1.9824,1.9062,1.8574,1.8359,1.8535,1.8477,1.8047,1.9004,1.9531,1.9316,2.005,2.0482,2.0483,2.0374,2.0415,2.06,0.0,0.0,0.0,0.0,0.0,0.0,0.0,0.0,0.0,0.0,0.0,0.0,0.0,0.0,0.0,0.0,0.0,0.0,0.0,0.0,0.0,0.0,0.0,0.0,0.0,0.0,0.0,0.0,0.0,1.907,1.9233,0.0,0.0,0.0,0.0,2.398,2.4095,2.4109,2.4131,2.3257,2.2416,2.1684,2.0745,2.0268,2.0307,2.0286,2.0338,2.0449,2.1346,2.1797,2.1855,2.2734,2.3055,2.292,2.2922,2.2887,2.2753,2.1783,2.1427,2.1574,2.2436,2.3324,2.4032,2.324,2.3515,2.4183,2.3368,2.3106,2.3231,2.3997,2.476,2.5369,2.5347,2.5378,0.0,0.0,2.4167,2.4174,2.4198,2.4203,2.4418,2.5273,2.5464,2.5257,2.4492,2.4935,2.526,0.0,2.3808,2.3828,2.543,0.0,2.3223,2.3203,2.2461,2.1562,2.0644,2.0508,2.0156,1.9316,1.998,1.9805,1.8144,1.9551,2.0176,1.9355,2.005,2.0475,2.0414,2.0391,2.0724,2.1427,2.0692,0.0,0.0,0.0,0.0,0.0,0.0,0.0,0.0,0.0,0.0,0.0,0.0,0.0,0.0,0.0,0.0,0.0,0.0,0.0,0.0,0.0,0.0,0.0,0.0,0.0,0.0,0.0,0.0,2.0619,2.1632,0.0,0.0,2.3687,2.4002,2.4091,2.409,2.3871,2.3385,2.3095,2.3018,2.3195,2.2409,2.2222,2.2736,2.2262,2.2049,2.211,2.2497,2.269,2.2754,2.3594,2.392,2.3863,2.4432,2.4641,2.4544,2.4208,2.3442,2.2441,2.2217,2.2693,2.3458,2.3164,2.3611,2.4327,2.4039,2.3906,2.3919,2.4152,2.4404,2.4707,2.5242,2.5379,2.5272,2.4957,2.487,2.488,2.4906,2.4915,2.5012,2.5435,2.5491,2.543,2.5215,2.4928,2.4783,2.5054,2.49,2.4931,2.5537,2.5154,2.459,2.4043,2.3711,2.3008,2.1621,2.1894,2.168,2.0293,2.0918,2.0957,1.9766,2.0234,2.0469,2.0156,2.0311,2.0427,2.0391,2.0352,2.08,2.1793,2.2212,2.2981,0.0,0.0,0.0,0.0,0.0,0.0,0.0,0.0,0.0,0.0,0.0,0.0,0.0,0.0,0.0,0.0,0.0,0.0,0.0,0.0,0.0,0.0,0.0,0.0,0.0,0.0,2.1716,2.2312,2.3144,2.3783,2.4072,2.4312,2.4351,2.4129,2.4094,2.4007,2.3753,2.3751,2.4002,2.452,2.4007,2.3843,2.4091,2.3566,2.3194,2.3,2.3338,2.3544,2.3633,2.4453,2.4801,2.476,2.5347,2.5569,2.552,2.552,2.4891,2.3857,2.3241,2.3404,2.3946,2.3975,2.4333,2.4844,2.4803,2.4744,2.4652,2.4627,2.4552,2.4605,2.5197,2.5339,2.5308,2.5308,2.5308,2.5308,2.5308,2.5308,2.5321,2.5444,2.5431,2.5428,2.5545,2.5053,2.4788,2.5357,2.5273,2.5212,2.5524,2.5376,2.5036,2.445,2.416,2.3594,2.2441,2.2773,2.2578,2.1191,2.1797,2.1836,2.0703,2.1113,2.1191,2.0644,2.0779,2.0855,2.0836,2.0766,2.1363,2.2677,2.3673,2.4558,2.5288,0.0,0.0,0.0,0.0,0.0,0.0,0.0,0.0,0.0,0.0,0.0,0.0,0.0,0.0,0.0,0.0,0.0,0.0,0.0,0.0,0.0,0.0,0.0,2.1628,2.1554,2.2192,2.3889,2.3374,2.3201,2.4052,2.3374,2.322,2.4072,2.4149,2.4506,2.5344,2.5339,2.5321,2.5391,2.533,2.4928,2.4149,2.4142,2.3789,2.3093,2.392,2.4363,2.4473,2.5312,2.5661,2.5603,2.5603,2.5603,2.5603,2.5603,2.5636,2.5683,2.5633,2.5603,2.5606,2.5663,2.5703,2.5722,2.5667,2.5576,2.5487,2.5483,2.5427,2.5346,2.5346,2.5327,2.5308,2.5308,2.5308,2.5308,2.5308,2.5308,2.5322,2.5387,2.5409,2.5415,2.5473,2.5431,2.5406,2.5406,2.4768,2.4506,2.535,2.4849,2.4349,2.433,2.3725,0.0,2.3144,2.3164,2.2852,2.2031,2.2656,2.2461,2.082,2.2168,2.2402,2.0781,2.1418,2.1802,2.1751,2.1685,2.2415,2.4072,2.4889,2.5308,2.5308,0.0,0.0,0.0,0.0,0.0,0.0,0.0,0.0,0.0,0.0,0.0,0.0,0.0,0.0,0.0,0.0,0.0,0.0,0.0,0.0,0.0,0.0,2.23,2.2115,2.2713,2.3356,2.384,2.4312,2.4712,2.4942,2.475,2.4712,2.4942,2.4962,2.5077,2.5302,2.5308,2.5303,2.5336,2.5303,2.5192,2.4962,2.4971,2.4891,2.4739,2.4975,2.5169,2.528,2.5515,2.5641,2.5662,2.5662,2.5662,2.5662,2.5662,2.5683,2.5703,2.5683,2.5662,2.5663,2.5639,2.6006,2.6494,2.6429,2.6798,2.7283,2.7224,2.6766,2.6231,2.6231,2.5808,2.5308,2.5308,2.5308,2.5308,2.5308,2.5308,2.5322,2.5387,2.5371,2.5357,2.5408,2.5368,2.5321,2.5321,2.5151,2.5081,2.5379,2.5279,2.5196,2.5246,0.0,0.0,2.4121,2.459,2.4414,2.293,2.3535,2.3613,2.2578,2.2852,2.293,0.0,2.2649,2.2732,2.2723,2.2598,2.3025,2.4072,2.4889,2.5308,0.0,0.0,0.0,0.0,0.0,0.0,0.0,0.0,0.0,0.0,0.0,0.0,0.0,0.0,0.0,0.0,0.0,0.0,0.0,0.0,0.0,0.0,2.3308,2.2886,2.2731,2.3348,2.3925,2.4255,2.488,2.5308,2.5308,2.5308,2.5308,2.5308,2.5308,2.5308,2.5308,2.5308,2.5313,2.5348,2.5348,2.5348,2.5333,2.5348,2.5359,2.5406,2.5406,2.5459,2.5558,2.5595,2.561,0.0,2.5683,2.5703,2.5703,2.5703,2.5683,0.0,0.0,0.0,0.0,0.0,2.6371,2.6744,2.6711,2.7243,2.7947,2.7916,2.7563,2.714,2.714,2.6794,2.639,2.639,2.639,2.639,2.639,2.639,2.641,2.6446,2.6424,2.641,2.6446,2.6424,2.639,2.639,0.0,0.0,2.591,2.5656,2.5488,2.5551,2.5573,2.5436,0.0,2.5391,2.5176,2.3789,2.4414,2.4473,2.3301,2.3809,0.0,0.0,0.0,2.3623,2.3593,2.3813,0.0,0.0,0.0,2.5308,2.5308,0.0,0.0,0.0,2.5308,2.5308,0.0,0.0,0.0,0.0,0.0,0.0,0.0,0.0,0.0,0.0,0.0,0.0,0.0,0.0,0.0,0.0,2.4064,2.3961,2.3648,2.3869,2.4282,2.4904,2.5146,2.5274,2.5303,2.5308,2.5308,2.5308,2.5308,2.5308,2.5308,0.0,0.0,0.0,0.0,2.5409,2.5408,2.5409,2.5441,2.5545,2.5437,2.5538,2.5773,2.5655,2.5696,2.5896,2.5759,2.5742,2.584,2.5722,2.5716,2.5735,2.5698,2.6102,2.6729,2.6656,2.6718,0.0,0.0,0.0,0.0,2.8179,2.8126,2.8049,2.8049,2.7972,2.7895,2.7895,2.7895,2.7895,2.7895,2.7895,2.7895,2.7895,2.7895,2.7895,2.7916,2.7916,2.7916,2.7916,2.7281,2.6756,2.6755,2.6007,2.5415,2.5481,2.5558,2.5611,2.5683,2.5703,2.5391,2.4629,0.0,0.0,2.3613,2.4844,2.5039,2.3496,2.4121,2.4529,2.4449,2.5077,2.5404,2.5394,2.5335,2.5308,2.5308,2.5308,2.5308,2.5308,2.5308,2.5308,0.0,0.0,0.0,0.0,0.0,0.0,0.0,0.0,0.0,0.0,0.0,0.0,0.0,0.0,0.0,2.5722,2.5722,2.5613,2.5484,2.5529,2.5383,2.4891,2.4974,2.5116,2.5279,2.5308,2.5308,2.5308,2.5308,2.5308,2.5308,2.5308,0.0,2.5398,2.5398,2.5437,2.5471,2.5428,2.5754,2.6444,0.0,0.0,2.7478,2.6135,2.6311,2.763,2.6286,2.6072,2.6606,2.5903,2.5996,2.6491,2.581,2.5605,2.5693,2.5673,2.6528,2.7676,2.7676,2.8643,2.9923,2.9923,2.9448,2.8876,2.8876,2.8415,0.0,2.7895,2.7895,2.7895,2.7895,2.7895,2.7895,2.7895,2.7895,2.7907,2.7978,2.798,2.798,2.798,2.7845,2.7714,2.7661,2.6388,2.5415,2.5481,2.5558,2.5611,2.5683,2.5703,2.5644,2.5469,2.5605,2.5566,2.5234,2.5508,2.5566,2.5215,2.5352,2.5427,2.5348,2.5433,2.5462,2.5394,2.5335,2.5308,2.5308,2.5308,2.5308,2.5308,2.5308,2.5308,0.0,0.0,0.0,0.0,0.0,0.0,0.0,0.0,0.0,0.0,0.0,2.5832,2.5433,0.0,2.6636,2.7041,2.7051,2.6956,2.683,2.6422,2.5834,2.4999,2.4955,2.5082,2.5274,2.5308,2.5308,2.5308,2.5308,2.5308,2.5308,2.533,2.5376,2.545,2.5488,2.5522,2.5552,2.5526,2.5685,2.6053,2.6024,2.6457,2.7291,2.6916,2.726,2.8104,2.7305,2.7174,2.751,2.7009,2.7031,2.7355,2.6889,2.6699,2.675,2.7121,2.7774,2.8492,2.8492,2.9333,3.0404,3.0404,3.0115,2.9833,3.0275,3.0121,2.989,3.0294,3.039,3.039,3.039,3.039,3.0294,2.989,2.9794,2.9704,2.9334,2.9248,2.9264,2.9294,2.8974,2.8692,2.866,2.7621,2.6641,2.6223,2.5847,2.5611,2.5683,2.5703,2.5703,2.5703,2.5703,2.5703,2.5703,2.5703,2.5703,2.5703,2.5703,2.5683,2.5658,2.5594,2.5526,2.5459,2.5383,2.5335,2.5308,2.5308,2.5308,2.5308,2.5308,2.5308,0.0,0.0,0.0,0.0,0.0,0.0,0.0,0.0,2.5158,2.519,2.6031,2.6738,2.6615,2.7448,2.8126,2.8126,2.8275,2.828,2.7931,2.7116,2.6238,2.5415,2.5124,2.5082,2.5274,2.5308,2.5308,2.5308,2.5308,2.5317,2.5327,2.536,2.5441,2.5526,2.5566,2.5682,2.5864,2.5859,2.5952,2.6164,2.6707,2.7082,2.7351,2.7801,2.821,2.8559,2.8439,2.8303,2.8158,2.819,2.8302,2.8487,2.8587,2.8762,2.8946,2.8895,2.9069,2.9338,2.9165,2.9871,3.0865,3.0692,3.075,3.1019,3.1718,3.1929,3.2064,3.2718,3.2891,3.2891,3.2891,3.2891,3.2737,3.2083,3.1929,3.1765,3.1161,3.0881,3.0836,3.1081,3.0458,2.991,2.9894,2.9225,2.8267,2.7006,2.6287,2.5831,2.5703,2.5703,2.5703,2.5703,2.5703,2.5703,2.5703,2.5703,2.5703,2.5703,2.5703,2.5703,2.5703,2.5635,2.5569,2.5529,2.5447,2.5368,2.5327,2.5317,2.5308,2.5308,2.5308,2.5308,2.4428,2.4263,2.43,2.4226,2.4218,2.4421,0.0,0.0,2.566,2.5853,2.6695,2.7249,2.671,2.789,2.8973,2.8973,2.9621,2.9846,2.9046,2.8089,2.7204,2.6507,2.5589,2.5082,2.5274,2.5308,2.5308,2.5308,2.5308,2.534,2.5387,2.5398,2.5459,2.5575,2.5599,2.6003,2.6836,2.6786,2.7468,2.8851,2.8182,2.8598,2.9929,2.8608,2.881,3.0191,2.9427,2.8671,2.8071,2.8705,2.9432,3.0215,3.0973,3.1724,3.2005,2.9088,2.8986,3.0135,2.9377,3.0641,3.2506,3.1795,3.2045,3.2641,3.2737,3.2776,3.2776,3.2872,3.2891,3.2891,3.2891,3.2891,3.2872,3.2795,3.2776,3.2783,3.2889,3.2279,3.1993,3.283,3.2292,3.1693,3.1638,3.0958,2.9622,2.7256,2.6868,2.6562,2.5801,2.5703,2.5703,2.5703,2.5703,2.5703,2.5703,2.5703,2.5703,2.5703,2.5703,2.5703,2.5703,2.5635,2.5599,2.5595,2.5454,2.5406,2.5395,2.5326,2.5308,2.5308,2.5308,2.5308,2.5117,2.4635,2.4495,0.0,2.5503,2.6029,2.6364,2.725,2.7743,2.6868,2.7776,2.8506,2.7768,2.8732,2.9627,0.0,3.0055,3.0269,2.991,2.8653,2.7675,2.7385,2.6069,2.5208,2.5284,2.5769,2.6058,2.6058,2.6058,2.6097,2.6153,2.5706,2.5724,2.6343,2.6397,2.6853,2.7754,2.7225,2.7524,2.8655,2.8254,2.8644,2.9685,2.9501,2.9806,3.0479,3.0115,2.9763,2.9517,3.0298,3.0833,3.1231,3.2064,3.2602,3.2737,3.1333,3.1256,3.1795,3.1448,3.2006,3.2833,3.2506,3.2622,3.2987,3.3506,3.3667,3.3757,3.4276,3.4404,3.4404,3.4404,3.4404,3.4295,3.3776,3.3667,3.3579,3.3269,3.2918,3.28,3.3271,3.3062,3.2805,3.2775,3.249,3.1578,2.9527,2.8398,2.7441,2.6562,2.6465,2.6269,2.5742,2.5703,2.5703,2.5703,2.5703,2.5703,2.5703,2.5703,2.5703,2.5703,2.5662,2.5636,2.5602,2.5549,2.5488,2.5402,2.5364,2.5344,2.5308,2.5339,2.5335,2.5565,2.5171,0.0,2.6226,2.704,2.7706,2.8145,2.9079,2.9561,2.8474,2.8939,2.9325,2.8575,2.8881,2.9269,2.9339,2.9691,2.9901,2.9725,2.8679,2.7818,2.7563,2.6212,2.5308,2.5308,2.5865,2.6346,2.6582,2.6601,2.6747,2.7078,2.6529,2.6558,2.7253,2.7108,2.7539,2.8652,2.7793,2.7751,2.8551,2.8509,2.8628,2.8906,2.9682,3.0332,3.0835,3.0835,3.097,3.1212,3.1785,3.2179,3.2449,3.3026,3.341,3.3622,3.3622,3.3468,3.3218,3.2987,3.3353,3.3872,3.341,3.3737,3.4372,3.4776,3.4891,3.5026,3.5654,3.5673,3.55,3.55,3.55,3.5346,3.4718,3.4564,3.4447,3.3988,3.3719,3.3668,3.4041,3.3926,3.3769,3.3769,3.3769,3.3184,3.1504,3.0176,2.8809,2.7207,2.6797,2.6484,2.6094,2.584,2.5801,2.6035,2.584,2.5703,2.5703,2.5703,2.5703,2.5703,2.5703,2.5682,2.5633,2.5605,2.5552,2.5456,2.5438,2.5394,2.5354,2.5409,2.5406,2.5418,2.5683,2.6126,2.804,2.8531,2.8966,3.0528,3.0716,3.0635,3.0837,3.0095,2.9222,2.8602,2.7894,2.746,2.7649,2.8331,2.8638,2.8066,2.7934,2.7582,2.6736,2.5846,2.5308,0.0,2.5327,2.5692,2.6544,2.6601,2.7039,2.8004,2.8032,2.809,2.8242,2.7441,2.7812,2.9531,2.8691,2.8668,2.9464,2.9463,2.8958,2.8062,2.8795,3.0069,3.1666,3.1666,3.2109,3.282,3.2852,3.3353,3.4129,3.4148,3.468,3.5423,3.5423,3.4891,3.4032,3.3179,3.4526,3.6308,3.468,3.5834,3.77,3.6865,3.6615,3.6635,3.6654,3.6096,3.55,3.55,3.55,3.5481,3.5462,3.5462,3.5483,3.5605,3.5,3.4756,3.572,3.5234,3.4668,3.4668,3.4668,3.4082,3.2402,3.2129,3.0859,2.7441,2.6269,2.6055,2.6875,2.6191,2.6035,2.6894,2.6191,2.5703,2.5703,2.5703,2.5703,2.5703,2.5703,2.5703,2.5703,2.5634,2.5601,2.5598,2.5535,2.5506,2.5486,2.5506,2.5506,2.6283,0.0,2.8016,2.9969,3.083,3.1186,3.1194,3.1853,3.1804,2.9533,2.924,2.8954,2.7509,2.7121,2.7109,2.7301,2.8165,2.86,2.797,2.8357,2.8165,2.6774,2.6346,0.0,0.0,0.0,0.0,2.739,2.7467,2.7869,2.8837,2.8382,2.8423,2.914,2.8887,2.9277,3.0449,2.9023,2.9023,3.0426,3.0287,2.9729,2.8812,2.9599,3.0602,3.1698,3.1698,3.216,3.2949,3.3526,3.3936,3.4263,3.4834,3.5231,3.5558,3.6096,3.6115,3.5815,3.5526,3.6353,3.7469,3.6892,3.7296,3.795,3.7642,3.7565,3.7565,3.7565,3.7373,3.7161,3.7161,3.7161,3.7161,3.7161,3.7225,3.7323,3.7405,3.7247,3.7207,3.7636,3.7012,3.6426,3.6426,3.5957,3.498,3.3262,3.1562,2.9844,2.8086,2.7109,2.6445,2.6172,2.5879,2.582,2.6113,2.5879,2.5703,2.5703,2.5703,2.5703,2.5703,2.5703,2.5703,2.5703,2.5682,2.5637,2.5602,2.559,2.5547,2.5493,2.5549,2.5547,2.7847,2.8765,2.98,3.2121,3.2836,3.2843,3.2419,3.2664,3.2072,2.8941,2.8342,2.7863,2.6074,2.5643,2.5747,2.6268,2.6956,2.7446,2.7432,2.8145,2.8376,2.7582,2.7486,0.0,0.0,0.0,0.0,2.8299,2.8347,2.8769,2.9715,2.9598,2.9673,3.0059,3.0059,3.0332,3.0898,2.9473,2.9336,3.043,2.9946,2.9541,2.9253,3.0045,3.1019,3.216,3.2468,3.3064,3.3872,3.443,3.4661,3.4718,3.5269,3.5673,3.5981,3.65,3.7077,3.7584,3.7276,3.7738,3.8411,3.8104,3.8411,3.8834,3.8546,3.845,3.845,3.845,3.8269,3.8073,3.8073,3.8086,3.8115,3.8115,3.8174,3.8251,3.8322,3.8378,3.8435,3.8574,3.8144,3.7754,3.7754,3.6777,3.541,3.3652,3.1758,3.0098,2.8926,2.7734,2.7012,2.709,2.6269,2.6074,2.7012,2.6523,2.6152,2.6152,2.6152,2.6016,2.5703,2.5703,2.5703,2.5703,2.6016,2.6132,2.6104,2.6416,2.6389,2.6037,2.6077,2.592,2.9999,3.0762,3.1476,3.4329,3.4414,3.3829,3.4004,3.3015,3.1399,2.895,2.7429,2.6072,0.0,0.0,2.3622,2.4692,2.5012,2.5503,2.6581,2.7525,2.8357,0.0,0.0,0.0,0.0,0.0,0.0,2.93,0.0,2.9683,3.0625,3.1551,3.1745,3.1055,3.0976,3.0957,3.0957,3.0098,2.9609,2.9511,2.864,2.8593,2.9317,3.0119,3.1365,3.2949,3.3821,3.4699,3.55,3.55,3.5519,3.5558,3.5558,3.6058,3.6769,3.6808,3.7873,3.9188,3.8392,3.8661,3.9227,3.8392,3.92,4.0362,3.9592,3.9361,3.9361,3.9369,3.8872,3.8338,3.8329,3.8387,3.8429,3.8429,3.8432,3.8455,3.8508,3.8521,3.8574,3.869,3.8691,3.8633,3.8555,3.7129,3.541,3.3652,3.2715,3.1562,2.9824,2.8164,2.7754,2.9355,2.7305,2.6836,2.9316,2.8027,2.707,2.707,2.707,2.668,2.5801,2.5762,2.5742,2.5703,2.6562,2.6992,2.6992,2.7871,2.7871,2.707,2.707,2.6621,3.1812,3.284,3.3665,3.5269,3.4585,3.3212,3.206,3.1099,2.9664,2.6989,2.6169,2.5579,0.0,0.0,0.0,2.5529,2.6393,0.0,2.8316,2.9775,0.0,3.0115,0.0,3.1121,3.1352,3.1179,0.0,0.0,3.0844,3.0597,3.1594,3.2489,3.2917,3.2773,3.2084,3.1723,3.1723,3.0863,2.9789,2.8576,2.9515,2.969,2.9276,3.0714,3.1929,3.2949,3.3821,3.4699,3.55,3.55,3.5846,3.6385,3.6385,3.6923,3.7757,3.8392,3.8911,3.9361,3.9727,4.0015,4.0169,3.9938,4.015,4.0458,4.0265,4.0189,4.0219,4.0314,4.0209,4.0073,4.0116,4.0143,4.0163,4.0163,4.0237,4.0287,4.0205,4.0356,4.0465,4.0391,3.9937,3.916,3.7851,3.6719,3.541,3.3652,3.2715,3.1562,2.9824,2.9219,2.8867,2.8652,2.8027,2.791,2.8574,2.8223,2.7969,2.7969,2.7969,2.7578,2.6699,2.668,2.6367,2.5703,2.6562,2.6992,2.6992,2.7871,2.8184,2.7969,2.7969,2.7851,3.3876,3.4487,3.4816,3.597,3.4459,3.2399,3.126,2.9753,2.7915,2.5633,2.5093,0.0,2.396,0.0,0.0,0.0,0.0,0.0,2.8865,3.0275,3.1365,0.0,3.2506,0.0,3.3327,3.3026,3.2999,0.0,3.2314,3.1837,3.2402,3.3317,3.3678,3.3311,3.3171,3.2727,3.1969,3.1092,3.0174,2.9254,3.014,3.0285,2.9827,3.1474,3.2404,3.279,0.0,3.4978,3.5327,3.5446,3.5769,3.6212,3.6558,3.7238,3.8104,3.8977,3.9515,3.99,4.0342,4.053,4.0588,4.0527,4.053,4.066,4.1033,4.0913,4.073,4.1188,4.1072,4.0832,4.0887,4.0925,4.0986,4.0986,4.1026,4.1076,4.0992,4.1083,4.1171,4.1103,4.0759,3.9922,3.8164,3.7461,3.6426,3.4297,3.3262,3.2246,3.0918,3.0078,2.9551,2.9453,2.8769,2.8613,2.9375,2.9082,2.8867,2.8867,2.8867,2.8476,2.7617,2.7578,2.7344,2.6855,2.7695,2.8144,2.8144,2.9023,2.9238,2.8867,2.8867,2.8672,3.5679,3.5752,3.5349,3.612,3.3936,3.1411,3.0725,2.8614,2.6347,2.4791,0.0,2.4045,2.3549,2.3577,2.4008,2.5018,0.0,2.6365,2.8909,3.0025,3.1462,3.3917,3.4302,3.4718,3.5577,3.4988,3.4565,3.4605,3.3914,3.3412,3.3214,3.4132,3.427,3.3374,3.4081,3.3692,3.2055,3.13,3.0915,3.0915,3.0851,3.0838,3.0878,3.2374,3.2959,3.2837,0.0,0.0,3.5182,3.5398,3.5635,3.5904,3.6596,3.7469,3.8411,3.9188,3.99,4.0496,4.0496,4.0602,4.0674,4.0566,4.0616,4.0887,4.1751,4.1524,4.1136,4.1914,4.1677,4.1154,4.1042,4.1106,4.1191,4.1191,4.1191,4.1171,4.1171,4.1171,4.1171,4.1191,4.1113,4.0508,3.8887,3.8496,3.7578,3.5078,3.4062,3.3281,3.2461,3.0859,3.0059,3.082,2.9551,2.9258,3.0742,3.0195,2.9765,2.9746,2.9765,2.9375,2.8496,2.8476,2.8418,2.8281,2.914,2.9609,2.9609,3.0469,3.0508,2.9766,2.9766,2.9355,3.5991,3.6193,3.5785,3.4604,3.2372,3.0095,2.8676,2.6968,0.0,0.0,2.4228,2.422,2.4275,2.4456,2.4898,2.5914,0.0,0.0,0.0,0.0,3.216,0.0,0.0,0.0,0.0,0.0,0.0,0.0,0.0,0.0,3.4299,3.5032,3.5065,3.4133,3.4269,3.3838,3.2817,3.2662,3.2584,3.2584,3.2566,3.254,3.2524,3.3519,3.3955,3.3967,0.0,0.0,3.5432,3.5486,3.6327,3.7584,3.7719,3.87,4.0073,4.0246,4.0381,4.0496,4.0496,4.0602,4.0692,4.0667,4.0726,4.0948,4.1827,4.1999,4.1933,4.2198,4.2161,4.1924,4.1324,4.1172,4.1191,4.1191,4.1126,4.1028,4.1028,4.1028,4.1076,4.1171,4.0625,3.9805,3.8789,3.8008,3.6875,3.498,3.457,3.416,3.3301,3.1719,3.0723,3.0879,3.0625,3.0526,3.0726,3.07,3.0623,3.0529,3.0603,3.0252,2.9336,2.9353,2.9002,2.8223,2.9138,2.9609,2.9609,3.0469,3.082,3.0664,3.0664,3.0525,3.5954,3.5973,3.533,3.4119,3.1678,2.9262,2.8062,0.0,0.0,0.0,2.419,2.4294,2.4591,0.0,0.0,0.0,0.0,0.0,0.0,0.0,0.0,0.0,0.0,0.0,0.0,0.0,0.0,0.0,0.0,0.0,3.5081,3.5382,3.5394,3.4934,3.4471,3.4046,3.363,3.3166,3.2954,3.2954,3.2954,3.292,3.2929,3.3801,3.4113,3.404,3.5055,0.0,3.5343,3.5888,3.6596,3.7411,3.8315,3.9169,3.9938,4.0342,4.0496,4.0496,4.0496,4.0604,4.0752,4.0752,4.0813,4.1067,4.1947,4.1932,4.1727,4.2214,4.2042,4.1654,4.1289,4.115,4.1102,4.1102,4.1051,4.1023,4.1082,4.1104,4.1127,4.1191,4.0859,4.0293,3.9434,3.8555,3.7539,3.625,3.5273,3.4551,3.4121,3.2988,3.2031,3.1621,3.1172,3.0878,3.0815,3.0793,3.077,3.0696,3.0731,3.0544,3.0089,3.0092,2.9918,2.9461,2.9939,3.0168,3.0168,3.0663,3.0898,3.0898,3.0836,3.0768,3.5349,3.5257,3.4509,3.3532,3.0999,2.8528,2.7732,2.5805,0.0,0.0,2.4257,2.4384,2.4771,0.0,2.4942,0.0,2.5308,0.0,0.0,0.0,0.0,0.0,0.0,0.0,0.0,0.0,0.0,0.0,0.0,0.0,3.5538,3.55,3.55,3.55,3.4834,3.4468,3.4468,3.3795,3.3468,3.3468,3.3468,3.3468,3.3487,3.416,3.4354,3.4213,3.511,0.0,0.0,3.6288,3.6836,3.7166,3.8726,3.9448,3.9695,4.0331,4.0563,4.0556,4.0552,4.0665,4.0793,4.0773,4.0899,4.1204,4.2034,4.1903,4.1582,4.2206,4.1933,4.1465,4.1465,4.138,4.134,4.1527,4.1435,4.1388,4.1656,4.1582,4.1465,4.1465,4.1172,4.0703,4.0019,3.918,3.8301,3.7422,3.6133,3.5195,3.5,3.4219,3.3437,3.2793,3.1797,3.1152,3.1128,3.0862,3.0687,3.0667,3.0628,3.0597,3.0578,3.0594,3.0603,3.0603,3.0659,3.0686,3.0695,3.0984,3.1029,3.0834,3.0929,3.0851,3.3788,3.3972,3.3532,3.199,2.9751,2.7695,2.6888,0.0,2.4256,2.4426,2.4469,2.4591,2.4924,2.4986,2.5059,2.5264,2.5308,2.5654,0.0,0.0,0.0,0.0,0.0,0.0,0.0,0.0,0.0,0.0,0.0,0.0,0.0,3.55,3.55,3.55,3.5423,3.5385,3.5385,3.5308,3.525,3.525,3.525,3.525,3.525,3.5346,3.5378,3.5345,0.0,0.0,0.0,3.6358,3.7244,3.8142,3.9046,3.9917,4.0671,4.0749,4.0768,4.0755,4.0707,4.0727,4.0781,4.0726,4.0909,4.1326,4.2064,4.2293,4.2284,4.2303,4.2296,4.2285,4.2285,4.2285,4.2458,4.3195,4.2801,4.2478,4.3219,4.2805,4.2285,4.2285,4.1055,3.998,3.9902,3.918,3.8301,3.7422,3.7168,3.6777,3.5976,3.5117,3.4551,3.4473,3.3047,3.2005,3.1812,3.1124,3.0657,3.0525,3.0568,3.0571,3.0501,3.0565,3.0603,3.0603,3.0611,3.0648,3.0695,3.1447,3.1398,3.0645,3.1432,3.1329,3.1421,3.199,3.1971,3.0356,2.887,2.7467,2.6182,0.0,2.4266,2.4452,2.4503,2.4596,2.4949,2.5004,2.5077,2.5269,2.4889,0.0,2.6409,0.0,0.0,0.0,0.0,0.0,0.0,0.0,0.0,0.0,0.0,0.0,0.0,3.5769,3.55,3.55,3.5547,3.5556,3.5556,3.5556,3.5827,3.6348,3.5765,3.575,3.6219,3.5765,3.5556,3.5562,0.0,0.0,0.0,3.7308,3.821,3.911,3.9921,4.0472,4.0797,4.0797,4.0797,4.0793,4.0766,4.0824,4.0905,4.0807,4.0967,4.1229,4.1362,4.1473,4.1663,4.2155,4.2353,4.2519,4.3047,4.3141,4.3069,4.2877,4.2964,4.321,4.3587,4.3006,4.2402,4.2402,4.1465,4.0684,4.0684,3.9961,3.9258,3.8926,3.8418,3.7773,3.6894,3.6484,3.6055,3.5547,3.3516,3.2125,3.1964,3.1629,3.1167,3.055,3.0975,3.1013,3.046,3.0467,3.0477,3.0477,3.0528,3.0544,3.0584,3.1469,3.1725,3.1394,3.219,3.237,2.9274,2.9898,3.0056,2.8932,2.786,2.6788,0.0,0.0,2.4266,2.4452,2.4503,2.4596,2.4949,2.5004,2.5077,2.5269,2.4812,2.4875,2.6038,0.0,0.0,0.0,0.0,0.0,0.0,0.0,0.0,0.0,0.0,0.0,0.0,3.6308,3.5962,3.6231,3.6047,3.6071,3.6371,3.6323,3.6632,3.7276,3.6575,3.6404,3.668,3.6169,3.5792,3.559,0.0,0.0,0.0,3.8158,3.9007,3.9676,4.049,4.0854,4.0917,4.0917,4.0917,4.0914,4.087,4.092,4.0986,4.0831,4.0922,4.1051,4.086,4.092,4.1228,4.2075,4.2529,4.293,4.3535,4.3667,4.3536,4.3184,4.3575,4.4108,4.4394,4.3574,4.2773,4.2773,4.1933,4.1191,4.1191,4.0684,4.0195,3.9941,3.9375,3.8672,3.7793,3.7461,3.7051,3.6445,3.4316,3.2889,3.279,3.2242,3.1628,3.0923,3.1172,3.1187,3.0788,3.0788,3.0908,3.116,3.1205,3.1217,3.1249,3.2146,3.2453,3.2201,3.2987,3.3211,2.7603,2.7835,2.7835,2.7824,2.6605,2.5411,0.0,0.0,2.4266,2.4452,2.4503,2.4596,2.4949,2.5004,2.5077,2.5269,2.5288,2.5288,2.5308,0.0,0.0,0.0,0.0,0.0,0.0,0.0,0.0,0.0,0.0,0.0,0.0,3.7161,3.7084,3.795,3.7142,3.718,3.8164,3.8035,3.8054,3.8183,3.8047,3.7526,3.6692,3.6699,3.6257,0.0,0.0,0.0,0.0,3.8657,3.9461,3.9676,4.049,4.0959,4.1191,4.1191,4.1191,4.1171,4.1031,4.0996,4.0986,4.0831,4.0801,4.0801,4.0797,4.099,4.1347,4.2084,4.2978,4.3691,4.3691,4.3691,4.3906,4.4766,4.498,4.5215,4.6094,4.4902,4.3691,4.3691,4.2344,4.1191,4.1191,4.1191,4.0898,4.0039,3.9883,3.957,3.8691,3.7832,3.7305,3.7285,3.5723,3.4647,3.4588,3.2982,3.1943,3.1797,3.0972,3.0869,3.1647,3.1698,3.2091,3.2953,3.2906,3.2906,3.2977,3.3774,3.3725,3.2917,3.3782,3.3725,2.6311,2.6774,2.6972,2.6045,2.5437,2.49,2.4366,2.4039,2.3979,2.4399,2.4503,2.4575,2.4828,2.485,2.4889,2.4961,2.4968,2.4987,0.0,0.0,0.0,0.0,0.0,0.0,0.0,0.0,0.0,0.0,0.0,0.0,0.0,3.7559,3.7255,3.7115,3.6929,3.6994,3.7315,3.7806,3.84,3.9002,3.8323,3.7853,3.7565,3.707,0.0,0.0,0.0,0.0,0.0,3.9058,3.9937,4.0579,4.083,4.1031,4.1191,4.1191,4.1191,4.1191,4.115,4.1148,4.1106,4.0988,4.0996,4.1049,4.086,4.1332,4.225,4.3725,4.4354,4.4453,4.3848,4.4141,4.4512,4.4199,4.5019,4.5957,4.623,4.5391,4.4414,4.3828,4.2793,4.1855,4.1289,4.1191,4.1113,4.082,4.0781,4.0469,3.9609,3.873,3.7969,3.7363,3.6269,3.5311,3.4666,3.3544,3.2582,3.1851,3.1534,3.1216,3.0833,3.0808,3.1216,3.2091,3.2088,3.2358,3.292,3.3782,3.4353,3.4673,3.4962,3.4942,2.5153,2.5495,2.5688,2.4842,2.4631,2.4483,2.3851,0.0,2.3798,2.4136,2.4201,2.4301,2.4631,2.4685,2.4716,2.479,2.4804,0.0,0.0,0.0,0.0,0.0,0.0,0.0,0.0,0.0,0.0,0.0,0.0,0.0,0.0,0.0,3.7923,3.7212,3.7591,3.7988,3.8335,3.8839,3.9365,3.9917,3.9021,3.8438,3.8096,3.7642,0.0,0.0,0.0,0.0,0.0,3.9767,4.0471,4.0996,4.0996,4.108,4.1191,4.1191,4.1191,4.1191,4.1191,4.1191,4.1191,4.1103,4.1102,4.1141,4.1312,4.2022,4.2957,4.376,4.4237,4.4375,4.3848,4.4101,4.4453,4.4238,4.5273,4.6308,4.6308,4.5625,4.4844,4.4297,4.3496,4.2637,4.1797,4.1641,4.1543,4.125,4.1191,4.0996,4.0469,3.9629,3.8769,3.7871,3.7012,3.6112,3.5206,3.4323,3.3264,3.1958,3.2159,3.2042,3.1419,3.1665,3.2237,3.3115,3.3135,3.3385,3.3891,3.443,3.4968,3.55,3.55,3.55,0.0,2.4209,2.4209,2.417,2.4161,2.4084,2.3774,2.3703,0.0,2.3724,2.3742,2.3891,2.44,2.4478,2.4545,2.4731,0.0,0.0,0.0,0.0,0.0,0.0,0.0,0.0,0.0,0.0,0.0,0.0,0.0,0.0,0.0,0.0,3.8834,3.8027,3.8792,3.9616,4.0426,4.0485,4.0557,4.0603,3.9856,3.9042,3.8217,3.821,0.0,0.0,0.0,0.0,0.0,4.0596,4.0992,4.0996,4.0996,4.108,4.1191,4.1191,4.1191,4.1191,4.1191,4.1191,4.1191,4.1191,4.1105,4.1152,4.1948,4.2848,4.3413,4.2611,4.3014,4.3672,4.3613,4.3652,4.3906,4.4726,4.5625,4.6308,4.6308,4.5664,4.5078,4.5019,4.4355,4.3516,4.2637,4.2441,4.2148,4.1406,4.123,4.1191,4.1191,4.0371,3.9492,3.8691,3.7754,3.6855,3.5976,3.5176,3.3982,3.2281,3.2835,3.3156,3.3006,3.3714,3.452,3.5385,3.5462,3.55,3.55,3.55,3.55,3.55,3.55,3.55,2.4209,0.0,2.433,2.3919,2.3816,2.3795,0.0,2.3703,0.0,0.0,0.0,0.0,0.0,0.0,0.0,0.0,0.0,0.0,0.0,0.0,0.0,0.0,0.0,0.0,0.0,0.0,0.0,0.0,0.0,0.0,0.0,0.0,3.82,3.8007,3.8254,3.8179,3.7793,3.8393,3.8767,3.8895,3.87,3.8159,3.7307,3.7307,0.0,0.0,0.0,0.0,3.9668,4.0496,4.0911,4.0996,4.0996,4.108,4.1191,4.1191,4.1191,4.1191,4.1191,4.1191,4.1191,4.1191,4.1105,4.1027,4.113,4.224,4.3408,4.3201,4.3373,4.3469,4.2809,4.3158,4.375,4.3965,4.5176,4.6308,4.6308,4.6133,4.5801,4.5137,4.4824,4.4414,4.3535,4.2832,4.2344,4.2148,4.1582,4.1191,4.1191,3.9863,3.8828,3.8613,3.7226,3.5957,3.5078,3.4824,3.451,3.4019,3.3539,3.3229,3.3073,3.3253,3.3721,3.4494,3.5154,3.55,3.55,3.55,3.55,3.55,3.55,3.55,2.4312,2.4428,2.4425,2.4145,2.4069,2.4022,2.3866,2.378,0.0,0.0,0.0,0.0,0.0,0.0,0.0,0.0,0.0,0.0,0.0,0.0,0.0,0.0,0.0,0.0,0.0,0.0,0.0,0.0,0.0,0.0,0.0,0.0,3.7815,3.743,3.75,3.7517,3.7445,3.7966,3.8275,3.8338,3.8003,3.7587,3.7143,3.7143,0.0,0.0,0.0,0.0,4.0331,4.0366,4.0673,4.1043,4.0652,4.0777,4.1152,4.0742,4.0859,4.1133,4.0742,4.0605,4.0664,4.1074,4.1105,4.099,4.0914,4.1788,4.2715,4.2281,4.2574,4.2889,4.2422,4.2968,4.3764,4.4199,4.5312,4.6308,4.6308,4.6308,4.6152,4.5683,4.5605,4.5195,4.3926,4.3301,4.2734,4.1973,4.1484,4.1191,4.1191,4.0039,3.9043,3.8633,3.7402,3.623,3.5371,3.5293,3.4941,3.4095,3.4336,3.427,3.3751,3.4061,3.4431,3.4795,3.525,3.55,3.55,3.55,3.55,3.55,3.55,3.55,2.4462,2.4528,2.4553,2.4553,2.4553,2.4458,2.4146,2.3936,0.0,0.0,0.0,0.0,0.0,0.0,0.0,0.0,0.0,0.0,0.0,0.0,0.0,0.0,0.0,0.0,0.0,0.0,0.0,0.0,0.0,0.0,0.0,0.0,0.0,3.6538,3.663,3.6961,3.7517,3.7842,3.8028,3.8037,3.7399,3.7109,3.7109,3.7109,3.7578,0.0,0.0,0.0,4.0742,3.998,4.0175,4.0878,3.9998,4.0271,4.1054,4.0194,4.0351,4.0898,4.0156,3.9902,4.0039,4.0918,4.1127,4.1025,4.1017,4.1443,4.1785,4.1098,4.1563,4.2269,4.2259,4.2917,4.3821,4.4743,4.5644,4.6308,4.6308,4.6308,4.6308,4.6308,4.6191,4.5625,4.4141,4.3672,4.3027,4.1601,4.1289,4.1191,4.1191,4.0312,3.9473,3.8867,3.7773,3.6855,3.625,3.6074,3.5371,3.3887,3.5127,3.5537,3.4731,3.5267,3.5556,3.55,3.55,3.55,3.55,3.55,3.55,3.55,3.55,3.55,2.4462,2.4623,2.4753,2.4753,2.4753,2.47,2.4466,2.4408,2.4338,0.0,0.0,0.0,0.0,0.0,0.0,0.0,0.0,0.0,0.0,0.0,0.0,0.0,0.0,0.0,0.0,0.0,0.0,0.0,0.0,0.0,0.0,0.0,0.0,3.5692,3.5761,3.5494,3.4894,3.5803,3.6309,3.6366,3.625,3.6191,3.6191,3.6191,3.668,0.0,0.0,3.8066,3.8984,3.8738,3.9135,3.9831,3.8914,3.957,4.0929,4.0054,3.9895,4.0078,3.9941,3.9902,4.0039,4.0918,4.1191,4.115,4.1028,4.1087,4.1268,4.1682,4.1961,4.212,4.2057,4.2813,4.3812,4.4635,4.5578,4.6308,4.6308,4.6308,4.6308,4.6308,4.5703,4.5117,4.4844,4.3574,4.2519,4.2246,4.1641,4.1191,4.1191,3.9805,3.9023,3.9648,3.7598,3.6445,3.7051,3.6426,3.5898,3.5625,3.5839,3.5843,3.5535,3.553,3.5508,3.55,3.55,3.55,3.55,3.55,3.55,3.55,3.55,3.55,2.4462,2.4647,2.4825,2.4884,2.491,2.4891,2.4783,2.4636,2.4503,0.0,0.0,0.0,0.0,0.0,0.0,0.0,0.0,0.0,0.0,0.0,0.0,0.0,0.0,0.0,0.0,0.0,0.0,0.0,0.0,0.0,0.0,0.0,0.0,0.0,3.4859,3.4492,3.3664,3.4173,3.469,3.5199,3.5627,3.5872,3.5947,3.5947,3.6441,3.7266,0.0,3.7275,3.8445,3.7878,3.8163,3.8842,3.7952,3.839,3.9491,3.9084,3.9002,3.9167,3.9638,3.9528,3.9414,4.0762,4.1191,4.1191,4.1127,4.1418,4.1794,4.2006,4.1713,4.144,4.1897,4.2392,4.3025,4.3938,4.4893,4.5723,4.6191,4.6308,4.6308,4.6308,4.5976,4.5547,4.5078,4.4336,4.3496,4.2539,4.209,4.1699,4.1269,4.0098,3.9453,3.9863,3.7988,3.6855,3.7266,3.6504,3.5976,3.5948,3.5872,3.5783,3.5646,3.5558,3.55,3.55,3.5923,3.5923,3.55,3.6404,3.6385,3.5519,3.5942,3.5923,2.4503,2.4647,2.4778,2.4998,2.5077,2.5109,2.5265,2.5106,2.4992,0.0,0.0,0.0,0.0,0.0,0.0,0.0,0.0,0.0,0.0,0.0,0.0,0.0,0.0,0.0,0.0,0.0,0.0,0.0,0.0,0.0,0.0,0.0,0.0,0.0,3.3982,3.3621,3.2797,3.3017,3.3595,3.4507,3.5126,3.5594,3.5901,3.5901,3.6294,3.6953,3.6239,3.6635,3.7757,3.7049,3.7248,3.7913,3.7012,3.7335,3.828,3.8298,3.8455,3.8748,3.9236,3.9164,3.908,4.0449,4.1035,4.1191,4.1191,4.1601,4.2082,4.2133,4.1451,4.0943,4.1983,4.2183,4.2346,4.3329,4.4146,4.4922,4.5801,4.584,4.5742,4.5957,4.5664,4.5176,4.4512,4.4238,4.3652,4.2324,4.2129,4.1894,4.1289,4.0254,3.9668,3.9883,3.8164,3.707,3.7285,3.6699,3.6265,3.6163,3.5878,3.5659,3.5596,3.5534,3.5596,3.5788,3.6385,3.65,3.6096,3.7373,3.7238,3.5808,3.6404,3.6269,2.467,2.4654,2.4636,2.5154,2.5274,2.5435,2.6065,2.6187,0.0,2.6669,0.0,0.0,0.0,0.0,0.0,0.0,0.0,0.0,0.0,0.0,0.0,0.0,0.0,0.0,0.0,0.0,0.0,0.0,0.0,0.0,0.0,0.0,0.0,0.0,0.0,3.2711,3.1893,3.2588,3.3446,3.4507,3.4565,3.5051,3.5901,3.5901,3.5962,3.6094,3.6015,3.6029,3.6077,3.6015,3.6426,3.7008,3.6076,3.6735,3.8214,3.8276,3.8813,3.9411,3.8729,3.8984,3.966,3.9901,4.0547,4.1191,4.1191,4.1145,4.1271,4.2061,4.1513,4.1067,4.2618,4.2549,4.2327,4.3206,4.3617,4.4023,4.4902,4.4453,4.4121,4.4941,4.3789,4.2656,4.2598,4.1973,4.1426,4.1308,4.1289,4.1269,4.1211,3.9726,3.9004,3.9805,3.7617,3.6426,3.7226,3.7246,3.7119,3.692,3.6142,3.5659,3.5596,3.5534,3.5846,3.6596,3.6673,3.7065,3.7815,3.795,3.7526,3.6615,3.6673,3.6269,2.4384,2.4461,2.4543,2.4756,2.4962,0.0,0.0,2.6676,2.6798,2.6571,2.6877,0.0,0.0,0.0,0.0,0.0,0.0,0.0,0.0,0.0,0.0,0.0,0.0,0.0,0.0,0.0,0.0,0.0,0.0,0.0,0.0,0.0,0.0,0.0,0.0,3.1895,3.1002,3.1265,3.1849,3.2769,3.3267,3.3762,3.4233,3.4781,3.5084,3.5215,3.5716,3.5884,3.5766,3.5732,3.5848,3.6029,3.5681,3.6241,3.7199,3.6739,3.745,3.8632,3.8376,3.8879,3.9721,4.0281,4.0744,4.1078,4.1078,4.1455,4.1924,4.2229,4.1955,4.1699,4.2273,4.182,4.1451,4.2365,4.2707,4.3077,4.3984,4.3926,4.3808,4.4121,4.3652,4.3203,4.3203,4.2969,4.2578,4.2031,4.1953,4.1562,4.0527,3.9824,3.9531,3.9863,3.9023,3.834,3.8125,3.8021,3.7929,3.7819,3.6995,3.6218,3.5553,3.5515,3.5885,3.6673,3.7238,3.768,3.8007,3.9046,3.8854,3.7526,3.8065,3.7853,2.4294,2.4339,2.4445,2.4551,0.0,0.0,2.66,2.737,2.7796,2.7754,2.7934,0.0,0.0,0.0,0.0,0.0,0.0,0.0,0.0,0.0,0.0,0.0,0.0,0.0,0.0,0.0,0.0,0.0,0.0,0.0,0.0,0.0,0.0,0.0,0.0,0.0,2.9753,2.9969,3.0356,3.0891,3.1718,3.2492,3.3213,3.3822,3.4306,3.4726,3.5256,3.5578,3.57,3.5646,3.559,3.5528,3.5528,3.6016,3.6635,3.6077,3.6986,3.8439,3.8233,3.8947,4.0004,4.0318,4.0685,4.0996,4.0996,4.1473,4.2011,4.1978,4.1822,4.168,4.1625,4.1158,4.0873,4.1535,4.1788,4.2142,4.3085,4.3086,4.2988,4.3242,4.3086,4.289,4.2848,4.2848,4.2631,4.1997,4.1925,4.1441,4.0015,3.9628,3.9375,3.9101,3.9336,3.9355,3.9043,3.8938,3.8832,3.8753,3.8188,3.7389,3.6329,3.6288,3.6673,3.7507,3.8104,3.8546,3.8796,3.9938,3.9785,3.8411,3.9015,3.8834,2.4503,2.4357,2.4303,2.47,0.0,0.0,2.7178,2.8369,2.9423,3.0643,0.0,2.8175,0.0,0.0,0.0,0.0,0.0,0.0,0.0,0.0,0.0,0.0,0.0,0.0,0.0,0.0,0.0,0.0,0.0,0.0,0.0,0.0,0.0,0.0,0.0,0.0,2.8112,2.883,2.9168,2.9107,2.9981,3.1376,3.3174,3.3174,3.3739,3.4668,3.463,3.501,3.5684,3.5684,3.5663,3.5605,3.5605,3.6058,3.6692,3.6692,3.7796,3.9153,3.8374,3.922,4.0566,3.9838,4.0234,4.0994,4.0994,4.1082,4.1191,4.1191,4.1017,4.0797,4.0797,4.0747,4.0718,4.0773,4.0905,4.1243,4.2186,4.1758,4.1426,4.2226,4.1758,4.1151,4.1025,4.0996,4.0957,4.0816,4.0914,4.0682,3.9804,3.9055,3.8262,3.7402,3.8105,3.8965,3.9844,3.9902,3.9841,3.9717,3.9714,3.9192,3.8055,3.7995,3.8419,3.9284,3.9304,3.9696,4.0504,4.0504,4.01,3.9304,3.9304,3.8842,2.4708,2.467,0.0,2.4775,0.0,0.0,0.0,2.7797,0.0,0.0,0.0,0.0,0.0,0.0,0.0,0.0,0.0,0.0,0.0,0.0,0.0,0.0,0.0,0.0,0.0,0.0,0.0,0.0,0.0,0.0,0.0,0.0,0.0,0.0,0.0,0.0,2.8093,2.8822,2.9163,2.9107,2.9981,3.0721,3.1328,3.1938,3.2399,3.2795,3.4002,3.4607,3.4753,3.5331,3.5546,3.5522,3.5522,3.5663,3.5865,3.5865,3.6538,3.7514,3.7898,3.8767,3.968,3.9464,4.0068,4.0747,4.0188,4.0577,4.1191,4.1191,4.1017,4.0797,4.0797,4.0679,4.0589,4.0693,4.0757,4.0902,4.1312,4.1231,4.1159,4.1484,4.1367,4.1191,4.1149,4.1055,4.099,4.0952,4.0883,4.0354,3.8957,3.8684,3.8496,3.8242,3.9531,4.0527,4.0781,4.0734,4.0659,4.0627,4.0527,3.9781,3.8272,3.8209,3.8617,3.9486,3.95,3.9903,4.0713,4.0713,4.0597,4.0364,4.0364,4.0213,2.4799,2.4804,0.0,2.52,2.5796,2.6626,2.7905,0.0,0.0,0.0,0.0,0.0,0.0,0.0,0.0,0.0,0.0,0.0,0.0,0.0,0.0,0.0,0.0,0.0,0.0,0.0,0.0,0.0,0.0,0.0,0.0,0.0,0.0,0.0,0.0,0.0,2.7022,2.8167,2.8695,2.8646,2.9827,3.0417,3.0482,3.1032,3.1503,3.1974,3.3342,3.3865,3.3779,3.4276,3.4673,3.4988,3.4988,3.5192,3.55,3.55,3.6,3.6769,3.7296,3.8277,3.9246,3.8892,3.948,4.0175,3.9346,3.9823,4.0684,4.0684,4.0744,4.0797,4.0797,4.0413,4.0137,4.0584,4.0432,4.0227,4.0409,4.0164,4.0069,4.0519,4.0601,4.0717,4.1068,4.0779,4.0454,4.0377,3.9746,3.8961,3.804,3.8314,3.8594,3.8594,4.0156,4.1191,4.1191,4.1127,4.108,4.108,4.0996,4.0513,3.9486,3.9354,3.9547,4.0069,4.0085,4.0315,4.0797,4.0797,4.0797,4.0797,4.0797,4.0797,2.4876,2.4854,0.0,2.5743,2.6191,0.0,2.8887,0.0,0.0,0.0,0.0,0.0,0.0,0.0,0.0,0.0,0.0,0.0,0.0,0.0,0.0,0.0,0.0,0.0,0.0,0.0,0.0,0.0,0.0,0.0,0.0,0.0,0.0,0.0,0.0,0.0,2.5413,2.7036,2.7845,0.0,2.9481,3.0288,3.0294,3.0429,3.0991,3.1929,3.2654,3.294,3.2891,3.2891,3.3372,3.409,3.409,3.4603,3.5385,3.5385,3.5885,3.6596,3.6673,3.7738,3.8931,3.8142,3.8597,3.9303,3.8439,3.892,3.9785,3.9863,4.0297,4.0692,4.0684,4.0004,3.9504,4.0262,3.9853,3.9303,3.9435,3.8859,3.8579,3.9503,3.9632,3.9868,4.0723,4.0155,3.9547,3.9416,3.817,3.7251,3.7383,3.8151,3.869,3.8691,4.0195,4.1191,4.1191,4.1191,4.1191,4.1191,4.1191,4.1191,4.1191,4.0962,4.0847,4.0847,4.0847,4.0847,4.0847,4.0847,4.0847,4.0847,4.0847,4.0847,2.5192,2.5182,0.0,0.0,2.6513,2.8184,3.0596,0.0,0.0,0.0,0.0,0.0,0.0,0.0,0.0,0.0,0.0,0.0,0.0,0.0,0.0,0.0,0.0,0.0,0.0,0.0,0.0,0.0,0.0,0.0,0.0,0.0,0.0,0.0,0.0,2.5625,2.5402,2.6399,2.6896,0.0,2.8582,2.9371,2.9396,3.0098,3.0896,3.1758,3.1923,3.2331,3.2891,3.2891,3.3006,3.3179,3.3179,3.3699,3.4468,3.4468,3.5026,3.5846,3.6481,3.6942,3.7238,3.7038,3.7661,3.8355,3.7537,3.7959,3.8892,3.9687,3.9928,3.9928,3.987,3.9612,3.9244,3.8716,3.8437,3.8337,3.847,3.8346,3.85,3.9445,3.9117,3.8969,3.9823,3.9256,3.884,3.9337,3.9102,3.8896,3.8927,3.9194,3.9416,3.9463,4.0405,4.1081,4.1191,4.1191,4.1191,4.1191,4.1191,4.1191,4.1191,4.1149,4.1106,4.1106,4.1106,4.1106,4.1106,4.1106,4.1106,4.1106,4.1106,4.1106,2.5308,0.0,0.0,2.5827,0.0,2.9448,3.0769,0.0,0.0,0.0,0.0,0.0,0.0,0.0,0.0,0.0,0.0,0.0,0.0,0.0,0.0,0.0,0.0,0.0,0.0,0.0,0.0,0.0,0.0,0.0,0.0,0.0,0.0,0.0,2.5456,2.5379,2.5342,2.6189,2.6601,2.6621,2.8299,2.9319,2.9737,3.0192,3.0654,3.1038,3.0641,3.0929,3.1679,3.1256,3.1564,3.2333,3.2333,3.3083,3.4205,3.4205,3.4757,3.5558,3.5981,3.6385,3.6635,3.625,3.6787,3.7424,3.6612,3.7052,3.7944,3.8495,3.8857,3.9067,3.8997,3.8582,3.8056,3.7511,3.7373,3.7401,3.7463,3.7179,3.7187,3.8131,3.7965,3.7972,3.8865,3.8273,3.7794,3.8153,3.8208,3.8344,3.8731,3.9257,3.9602,3.9652,4.0401,4.0925,4.0996,4.1017,4.1048,4.1103,4.1104,4.1129,4.1191,4.1191,4.1191,4.1191,4.1191,4.1191,4.1191,4.1191,4.1191,4.1191,4.1191,4.1191,2.5308,0.0,2.5519,2.6385,2.8173,0.0,0.0,0.0,0.0,0.0,0.0,0.0,0.0,0.0,0.0,0.0,0.0,0.0,0.0,0.0,0.0,0.0,0.0,0.0,0.0,0.0,0.0,0.0,0.0,0.0,0.0,0.0,2.5569,2.5529,2.5453,2.5399,2.5322,2.6034,2.6391,2.639,2.7928,2.9121,2.9962,2.9962,3.0135,3.0365,2.964,2.9737,3.0327,2.9467,3.0044,3.1468,3.1314,3.2275,3.3801,3.3917,3.443,3.5077,3.5212,3.5712,3.6161,3.5481,3.5894,3.6529,3.5885,3.6279,3.6996,3.7225,3.7724,3.817,3.8098,3.7491,3.6831,3.6568,3.6509,3.6503,3.6507,3.5962,3.5765,3.6684,3.6889,3.7104,3.7746,3.7441,3.7112,3.7116,3.7345,3.7754,3.8425,3.9247,3.9766,3.9788,4.0399,4.0796,4.0797,4.0797,4.0854,4.0957,4.0962,4.1021,4.1127,4.1284,4.1362,4.1362,4.1249,4.1269,4.1406,4.1269,4.1191,4.1191,4.1191,4.1191,0.0,0.0,2.5519,0.0,2.6871,2.7486,0.0,0.0,0.0,0.0,0.0,0.0,0.0,0.0,0.0,0.0,0.0,0.0,0.0,0.0,0.0,0.0,0.0,0.0,0.0,0.0,0.0,0.0,0.0,0.0,0.0,2.5635,2.5599,2.5594,2.5529,2.5443,2.5391,2.5507,2.5532,2.55,2.6467,2.739,2.8236,2.8236,2.9025,3.0385,3.0288,3.0288,3.0327,2.9467,2.9679,3.05,2.9737,3.0506,3.2122,3.2814,3.3141,3.3353,3.4103,3.4436,3.4513,3.4417,3.4962,3.5695,3.5706,3.5791,3.6106,3.7046,3.7336,3.7336,3.7212,3.7038,3.6693,3.5855,3.5694,3.5739,3.5669,3.5577,3.5738,3.6573,3.6818,3.6716,3.6156,3.7108,3.7948,3.7943,3.9122,4.0072,4.0169,4.0306,4.0416,4.0541,4.0649,4.0742,4.0789,4.0797,4.0805,4.0839,4.0839,4.0824,4.0857,4.1574,4.1979,4.1979,4.1469,4.1543,4.2246,4.1543,4.1191,4.1191,4.1191,4.1191,2.5308,2.5308,2.5385,0.0,2.6231,2.6794,0.0,0.0,0.0,0.0,0.0,0.0,0.0,0.0,0.0,0.0,0.0,0.0,0.0,0.0,0.0,0.0,0.0,0.0,0.0,0.0,0.0,0.0,0.0,0.0,2.5703,2.5635,2.5602,2.5602,2.5522,2.5477,2.5406,2.5406,2.5603,2.6038,2.6428,2.7063,2.7895,2.7895,2.8544,2.9621,2.8679,2.8794,2.9563,2.8236,2.824,2.9067,2.912,2.9931,3.1132,3.1973,3.254,3.2949,3.3333,3.3468,3.3545,3.4052,3.4449,3.4879,3.5507,3.5707,3.5819,3.6401,3.6541,3.6488,3.6326,3.6242,3.61,3.5624,3.5522,3.554,3.552,3.5522,3.5655,3.5963,3.6087,3.6143,3.6245,3.6856,3.7643,3.8627,3.9374,3.9996,4.0439,4.0496,4.0527,4.0568,4.0602,4.059,4.0629,4.0635,4.0651,4.0732,4.1198,4.1485,4.1532,4.2365,4.3065,4.3556,4.2818,4.2617,4.2968,4.2112,4.1703,4.1683,4.1198,4.0986,0.0,0.0,2.5312,2.5293,2.5788,2.6327,0.0,0.0,0.0,0.0,0.0,0.0,0.0,0.0,0.0,0.0,0.0,0.0,0.0,0.0,0.0,0.0,0.0,0.0,0.0,0.0,0.0,0.0,0.0,0.0,2.5703,2.5658,2.5632,2.5632,2.5559,2.5484,2.5437,2.5387,2.5685,2.6269,2.6269,2.6621,2.7236,2.7236,2.7698,2.8415,2.7371,2.764,2.8684,2.7233,2.73,2.8345,2.8764,2.9566,3.0616,3.1482,3.1997,3.2295,3.2526,3.2602,3.2737,3.3583,3.4013,3.4378,3.5377,3.5686,3.5735,3.5926,3.5974,3.5928,3.5744,3.5686,3.5657,3.5534,3.5515,3.5573,3.5764,3.5836,3.5865,3.5816,3.5808,3.6,3.6596,3.6885,3.7546,3.9073,3.9477,3.9823,4.0419,4.0496,4.0496,4.0496,4.0496,4.0496,4.0496,4.0708,4.0865,4.0978,4.1796,4.2292,4.2343,4.3158,4.394,4.4586,4.4173,4.3874,4.3722,4.2851,4.2326,4.2073,4.1435,4.1011,0.0,2.5398,0.0,2.5317,0.0,0.0,0.0,0.0,0.0,0.0,0.0,0.0,0.0,0.0,0.0,0.0,0.0,0.0,0.0,0.0,0.0,0.0,0.0,0.0,0.0,0.0,0.0,0.0,0.0,0.0,2.5703,2.5703,2.5683,2.5683,2.5633,2.5561,2.5506,2.5375,2.5332,2.5365,2.5365,2.5385,2.5442,2.5442,2.5904,2.6774,2.7505,2.7876,2.7901,2.7048,2.7663,2.9078,2.8408,2.9126,3.0615,3.1486,3.1269,3.0654,3.1487,3.1756,3.191,3.2699,3.3526,3.4372,3.5328,3.5646,3.5723,3.5873,3.5905,3.5875,3.5749,3.565,3.5585,3.5528,3.5552,3.5789,3.6484,3.6642,3.6649,3.6642,3.6635,3.6654,3.6692,3.7392,3.8238,3.9169,3.9958,4.0458,4.0496,4.0496,4.0496,4.0496,4.0496,4.0496,4.0496,4.1258,4.1739,4.1747,4.2563,4.3052,4.306,4.3811,4.4273,4.4311,4.5081,4.5191,4.4625,4.3765,4.2905,4.2092,4.2058,4.1591,0.0,0.0,0.0,2.5317,0.0,0.0,0.0,0.0,0.0,0.0,0.0,0.0,0.0,0.0,0.0,0.0,0.0,0.0,0.0,0.0,0.0,0.0,0.0,0.0,0.0,0.0,0.0,0.0,0.0,0.0,2.5703,2.5703,2.5703,2.5703,2.5682,2.5633,2.5563,2.5463,2.5417,2.5352,2.5352,2.5329,2.5308,2.5308,2.5462,2.5788,2.6096,2.6544,2.701,2.6145,2.6517,2.7574,2.7309,2.8246,2.9767,3.002,3.0278,3.0496,3.0766,3.0865,3.1,3.1852,3.2699,3.3538,3.4485,3.518,3.5659,3.5858,3.5838,3.5761,3.5713,3.5646,3.5574,3.5521,3.5509,3.5907,3.7233,3.7077,3.6692,3.6692,3.7161,3.7719,3.8277,3.8623,3.913,3.9958,4.0323,4.0496,4.0496,4.0496,4.0708,4.1277,4.1335,4.1566,4.2124,4.245,4.2624,4.2624,4.3412,4.3766,4.356,4.4364,4.4703,4.4498,4.4802,4.5063,4.5288,4.4392,4.3701,4.3181,4.2879,4.2428,2.5425,0.0,0.0,0.0,0.0,0.0,0.0,0.0,0.0,0.0,0.0,0.0,0.0,0.0,0.0,0.0,0.0,0.0,0.0,0.0,0.0,0.0,0.0,0.0,0.0,0.0,0.0,0.0,0.0,0.0,2.5633,2.5634,2.5634,2.5634,2.5659,2.5634,2.5564,2.5491,2.5431,2.539,2.5376,2.5333,2.5308,2.5308,2.5308,2.5308,2.5308,2.5635,2.612,2.5562,2.5861,2.6711,2.6711,2.7764,2.9266,2.921,2.9741,3.0462,3.0419,3.0404,3.0538,3.1429,3.2237,3.307,3.3986,3.4897,3.5626,3.5752,3.5746,3.5696,3.5663,3.5621,3.5564,3.5508,3.55,3.5808,3.693,3.7161,3.7142,3.7142,3.7834,3.8527,3.8815,3.9111,3.9573,4.0381,4.0496,4.0612,4.0893,4.0931,4.1277,4.2143,4.2239,4.247,4.3047,4.3355,4.3508,4.3508,4.4278,4.4594,4.4257,4.4791,4.4943,4.4612,4.4593,4.4806,4.5263,4.4679,4.4188,4.3778,4.3367,4.2867,0.0,0.0,0.0,0.0,0.0,0.0,0.0,0.0,0.0,0.0,0.0,0.0,0.0,0.0,0.0,0.0,0.0,0.0,0.0,0.0,0.0,0.0,0.0,0.0,0.0,0.0,0.0,0.0,0.0,2.5508,2.5491,2.5491,2.5491,2.5493,2.5563,2.5564,2.5493,2.5444,2.5397,2.539,2.5335,2.5308,2.5308,2.5308,2.5308,2.5308,2.5308,2.5308,2.5317,2.5371,2.5913,2.6694,2.6735,2.776,2.9205,2.9167,2.9685,3.041,3.0404,3.0404,3.0538,3.1391,3.2218,3.3026,3.3898,3.4818,3.5567,3.5586,3.5657,3.5675,3.5616,3.5552,3.55,3.55,3.55,3.5519,3.5538,3.6834,3.8007,3.8007,3.8719,3.9073,3.8219,3.8777,3.9611,4.0381,4.0516,4.0835,4.1692,4.1808,4.2181,4.3047,4.3143,4.3143,4.3162,4.3893,4.4335,4.4335,4.5133,4.5457,4.5096,4.5085,4.4919,4.4567,4.4585,4.4567,4.458,4.4593,4.4328,4.3803,4.3465,4.2869,2.5425,0.0,0.0,0.0,0.0,0.0,0.0,0.0,0.0,0.0,0.0,0.0,0.0,0.0,0.0,0.0,0.0,0.0,0.0,0.0,0.0,0.0,0.0,0.0,0.0,0.0,0.0,0.0,2.5411,2.5456,2.5508,2.5491,2.5511,2.5566,2.5597,2.5597,2.5567,2.5554,2.5506,2.5402,2.5372,2.5352,2.5308,2.5308,2.5308,2.5308,2.5308,2.5308,2.5308,2.5322,2.5846,2.6569,2.5944,2.7131,2.9119,2.8493,2.9207,3.0472,3.0425,3.0404,3.0442,3.0673,3.1346,3.2199,3.3006,3.3891,3.4723,3.541,3.5582,3.5558,3.5528,3.5521,3.55,3.55,3.55,3.5654,3.6231,3.7238,3.8007,3.8007,3.9161,4.0092,3.9861,4.0015,4.0246,4.0477,4.1046,4.1527,4.1769,4.2354,4.3066,4.3874,4.397,4.422,4.4863,4.5114,4.5248,4.5248,4.5479,4.5342,4.4757,4.4751,4.4447,4.3823,4.3807,4.3912,4.4161,4.446,4.4369,4.3947,4.3853,4.3821,0.0,0.0,0.0,0.0,0.0,0.0,2.5308,2.5308,0.0,0.0,0.0,0.0,0.0,0.0,0.0,0.0,0.0,0.0,0.0,0.0,0.0,0.0,0.0,0.0,0.0,0.0,0.0,0.0,2.5359,2.5387,2.5408,2.5447,2.5485,2.5522,2.5547,2.5558,2.5558,2.5537,2.5485,2.5402,2.5375,2.5339,2.5308,2.5308,2.5308,2.5308,2.5308,2.5308,2.5308,2.5308,2.5596,2.6038,2.5904,2.6998,2.8642,2.8466,2.9277,3.0447,3.0414,3.0404,3.0404,3.0404,3.0981,3.1852,3.266,3.3506,3.4398,3.5301,3.5522,3.55,3.55,3.55,3.55,3.55,3.55,3.5635,3.6096,3.6865,3.7565,3.793,3.9354,4.04,4.0054,4.0285,4.0496,4.0496,4.0931,4.1527,4.2258,4.2797,4.3547,4.472,4.4836,4.5056,4.5556,4.5594,4.5594,4.5594,4.5476,4.515,4.4618,4.4447,4.4076,4.3496,4.3515,4.3597,4.3788,4.402,4.402,4.3788,4.3788,4.3912,0.0,0.0,0.0,0.0,0.0,0.0,2.5308,2.5317,2.5308,0.0,0.0,0.0,0.0,0.0,0.0,0.0,0.0,0.0,0.0,0.0,0.0,0.0,0.0,0.0,0.0,0.0,2.5308,2.5308,2.5293,2.5308,2.5308,2.5359,2.5395,2.5398,2.5462,2.5481,2.5481,2.5431,2.5406,2.5391,2.5326,2.5308,2.5308,2.5308,2.5308,2.5308,2.5308,2.5308,2.5308,2.5308,2.5365,2.5519,2.6288,2.7198,2.8126,2.8838,2.964,3.0404,3.0404,3.0404,3.0404,3.0404,3.0923,3.1718,3.2622,3.343,3.4257,3.5231,3.5423,3.5385,3.5462,3.55,3.55,3.55,3.55,3.55,3.55,3.6212,3.7065,3.7853,3.9277,4.0169,3.9534,4.0035,4.0496,4.0496,4.0669,4.1362,4.2893,4.3258,4.3951,4.5441,4.5594,4.5594,4.5594,4.5594,4.5577,4.555,4.5253,4.4931,4.4553,4.419,4.3833,4.3515,4.3515,4.3515,4.3515,4.3515,4.3515,4.3515,4.3515,4.3515,0.0,0.0,0.0,0.0,0.0,0.0,2.5387,2.5339,2.5308,0.0,0.0,0.0,0.0,0.0,0.0,0.0,0.0,0.0,0.0,0.0,0.0,0.0,0.0,0.0,0.0,0.0,2.5372,2.5379,2.533,2.5308,2.5308,2.5313,2.5333,2.5406,2.5408,2.5418,2.5418,2.5401,2.5368,2.5327,2.5317,2.5308,2.5308,2.5308,2.5308,2.5308,2.5308,2.5308,2.5308,2.5308,2.5712,2.6365,2.6524,2.7525,2.8876,2.905,2.964,3.0404,3.0404,3.0404,3.0404,3.0404,3.0519,3.0923,3.2449,3.3026,3.3487,3.5058,3.4988,3.4622,3.5327,3.55,3.55,3.55,3.55,3.55,3.55,3.6673,3.7796,3.7969,3.8834,3.9688,4.0189,4.04,4.0496,4.0496,4.1681,4.272,4.3066,4.4278,4.5248,4.5575,4.5594,4.5594,4.5594,4.5594,4.5485,4.5211,4.5148,4.4806,4.4146,4.4028,4.3833,4.3515,4.3515,4.3515,4.3515,4.3515,4.3515,4.3515,4.3515,4.3515,0.0,0.0,0.0,2.5491,0.0,0.0,0.0,2.5364,2.5346,0.0,0.0,0.0,0.0,0.0,0.0,0.0,0.0,0.0,0.0,0.0,0.0,0.0,0.0,0.0,0.0,0.0,2.5402,2.539,2.5344,2.5308,2.5308,2.5308,2.5317,2.5346,2.5346,2.5346,2.5346,2.5346,2.5342,2.5357,2.5317,2.5322,2.5357,2.5317,2.5308,2.5327,2.5769,2.5942,2.5981,2.6428,2.7082,2.7813,2.7409,2.7755,2.8607,2.9448,3.0019,3.0404,3.0404,3.0404,3.0404,3.0404,3.0404,3.0635,3.191,3.2891,3.3814,3.5135,3.5192,3.4949,3.5385,3.55,3.5568,3.5848,3.6005,3.6164,3.6442,3.7298,3.8123,3.8565,3.8996,3.9554,4.0362,4.0496,4.0496,4.0496,4.1247,4.2124,4.2989,4.3835,4.4662,4.5518,4.5594,4.5594,4.5594,4.5438,4.5292,4.5107,4.475,4.4401,4.4031,4.3833,4.3679,4.3496,4.3515,4.3515,4.3515,4.3515,4.3515,4.3515,4.3515,4.3515,0.0,0.0,0.0,0.0,0.0,2.5515,0.0,0.0,0.0,2.5418,0.0,0.0,0.0,0.0,0.0,0.0,0.0,0.0,0.0,0.0,0.0,0.0,0.0,0.0,0.0,0.0,2.522,2.5364,2.5195,2.5135,2.5288,2.5308,2.5308,2.5308,2.5308,2.5308,2.5308,2.5308,2.5336,2.5387,2.5336,2.534,2.5387,2.5312,2.5385,2.5596,2.6288,2.6601,2.6678,2.7544,2.8184,2.8588,2.8261,2.8236,2.8544,2.9904,3.0404,3.0404,3.0404,3.0404,3.0404,3.0404,3.0615,3.0981,3.1525,3.2872,3.4359,3.5045,3.521,3.522,3.5386,3.5491,3.5645,3.5938,3.6438,3.6934,3.721,3.7784,3.845,3.9169,3.9438,3.9746,4.04,4.0496,4.0496,4.0496,4.065,4.1258,4.2662,4.3124,4.3855,4.521,4.5498,4.5577,4.5504,4.5272,4.5052,4.4889,4.4327,4.3971,4.3912,4.3646,4.3515,4.3515,4.3515,4.3515,4.3515,4.3515,4.3515,4.3515,4.3515,4.3515,0.0,0.0,0.0,0.0,2.5633,0.0,0.0,0.0,2.5501,2.5501,0.0,0.0,0.0,0.0,0.0,0.0,0.0,0.0,0.0,0.0,0.0,0.0,0.0,0.0,0.0,0.0,0.0,2.526,2.463,2.4548,2.5269,2.5308,2.5308,2.5308,2.5308,2.5308,2.5308,2.5308,2.5293,2.5308,2.5293,2.5293,2.5308,2.5293,2.5712,2.6467,2.6563,2.6601,2.6678,2.7544,2.7505,2.7024,2.8415,2.9448,3.0135,3.0327,3.0404,3.0404,3.0404,3.0404,3.0404,3.0404,3.1404,3.2506,3.1891,3.2872,3.4225,3.4321,3.4177,3.4165,3.4947,3.5504,3.569,3.5046,3.6179,3.722,3.6582,3.7868,3.9188,3.9284,3.9881,4.04,4.0477,4.0496,4.0496,4.0496,4.1162,4.1712,4.1923,4.3239,4.4239,4.4432,4.5152,4.5485,4.5191,4.5118,4.483,4.4175,4.4061,4.3865,4.3563,4.3513,4.3515,4.3515,4.3515,4.3515,4.3515,4.3515,4.3515,4.3515,4.3515,4.3515,0.0,0.0,0.0,0.0,0.0,0.0,0.0,0.0,2.5558,0.0,0.0,0.0,0.0,0.0,0.0,0.0,0.0,0.0,0.0,0.0,0.0,0.0,0.0,0.0,0.0,0.0,0.0,0.0,0.0,2.4452,2.5269,2.5308,2.5308,2.5308,2.5308,2.5308,2.5308,2.5308,2.5327,2.5359,2.5327,2.5327,2.5359,2.5322,2.5788,2.664,2.7121,2.7621,2.8121,2.8986,2.9135,2.8865,2.9583,2.9775,2.9717,3.0212,3.0404,3.0404,3.0404,3.0404,3.0481,3.0981,3.1641,3.2314,3.2949,3.3648,3.4321,3.4814,3.4875,3.4837,3.5062,3.5274,3.5514,3.5799,3.6575,3.7296,3.7437,3.828,3.9067,3.9254,3.9573,3.99,4.0208,4.0389,4.0449,4.0295,4.1138,4.1788,4.1788,4.2854,4.3778,4.4239,4.446,4.4707,4.5069,4.4701,4.4327,4.4013,4.382,4.3646,4.3515,4.3515,4.3515,4.3515,4.3515,4.3515,4.3515,4.3515,4.3515,4.3515,4.3515,4.3515,2.6113,0.0,0.0,0.0,0.0,0.0,0.0,0.0,0.0,0.0,0.0,0.0,0.0,0.0,0.0,0.0,0.0,0.0,0.0,0.0,0.0,0.0,0.0,0.0,0.0,0.0,0.0,0.0,2.4236,2.4202,2.525,2.5308,2.5308,2.5308,2.5308,2.5308,2.5308,2.5308,2.5317,2.5368,2.5317,2.534,2.5364,2.5312,2.5904,2.6986,2.7621,2.8357,2.9165,3.0038,3.0269,3.0077,3.0308,3.0,2.9525,3.0173,3.0404,3.0404,3.0404,3.0404,3.05,3.1135,3.166,3.2218,3.3199,3.4007,3.4641,3.5026,3.5254,3.5354,3.5147,3.5205,3.5438,3.5911,3.6564,3.7192,3.7468,3.8024,3.8611,3.9098,3.9246,3.944,3.9899,4.0194,4.033,4.0129,4.0805,4.1357,4.1423,4.2132,4.2827,4.3422,4.3585,4.3874,4.4431,4.4168,4.3955,4.3865,4.3629,4.3515,4.3515,4.3515,4.3515,4.3515,4.3515,4.3515,4.3515,4.3515,4.3515,4.3515,4.3515,4.3515,0.0,0.0,0.0,2.5918,0.0,0.0,0.0,0.0,2.5703,0.0,0.0,0.0,0.0,0.0,0.0,0.0,0.0,0.0,0.0,0.0,0.0,0.0,0.0,0.0,0.0,0.0,0.0,2.4018,2.334,2.3562,2.5212,2.5308,2.5308,2.5308,2.5308,2.5308,2.5308,2.5308,2.5308,2.5293,2.5308,2.5308,2.5293,2.5308,2.6231,2.7857,2.7895,2.8357,2.9165,3.0038,2.991,2.9223,3.0077,3.0385,3.0365,3.0385,3.0404,3.0404,3.0404,3.0404,3.0404,3.0423,3.1538,3.2737,3.2006,3.35,3.5288,3.4468,3.4661,3.5113,3.5105,3.5486,3.5601,3.4531,3.5713,3.6828,3.5804,3.6673,3.7887,3.8745,3.912,3.9372,3.9591,3.9901,4.011,4.0101,4.0129,4.0262,4.0503,4.1014,4.136,4.1379,4.2549,4.3207,4.2907,4.3565,4.3865,4.3531,4.3515,4.3515,4.3515,4.3515,4.3515,4.3515,4.3515,4.3515,4.3515,4.3515,4.3515,4.3515,4.3515,4.3515,0.0,0.0,2.8379,2.6914,0.0,0.0,0.0,0.0,0.0,0.0,0.0,0.0,0.0,0.0,0.0,0.0,0.0,0.0,0.0,0.0,0.0,0.0,0.0,0.0,0.0,0.0,0.0,2.4774,2.4125,2.4144,0.0,2.5308,2.5308,2.5308,2.5308,2.5308,2.5308,2.5308,2.5308,2.5308,2.5308,2.5308,2.5308,2.5308,2.5942,2.7063,2.764,2.8357,2.9165,3.0038,3.0231,2.9981,3.0288,3.0404,3.0404,3.0404,3.0404,3.0404,3.0404,3.0404,3.05,3.1077,3.2006,3.2929,3.3049,3.4211,3.5395,3.4925,3.5067,3.532,3.5157,3.5226,3.5324,3.5119,3.5551,3.6084,3.6255,3.6681,3.7303,3.8312,3.8588,3.8772,3.9208,3.9352,3.9426,3.9426,4.0117,4.0444,3.997,4.0572,4.1048,4.1048,4.1719,4.2333,4.276,4.3323,4.3612,4.3515,4.3515,4.3515,4.3515,4.3515,4.3515,4.3515,4.3515,4.3515,4.3515,4.3515,4.3515,4.3515,4.3515,4.3515,2.8848,2.918,0.0,2.7812,2.7871,0.0,2.6484,0.0,0.0,0.0,0.0,0.0,0.0,0.0,0.0,0.0,0.0,0.0,0.0,2.5575,0.0,0.0,0.0,0.0,0.0,0.0,2.3398,2.4774,2.4394,2.4452,0.0,0.0,2.5308,2.5339,2.5313,2.5308,2.5335,2.5308,2.5308,2.5308,2.5308,2.5308,2.5308,2.5308,2.5788,2.6659,2.7525,2.8357,2.9165,3.0038,3.0404,3.0404,3.0404,3.0404,3.0404,3.0404,3.0349,3.026,3.026,3.0215,3.0294,3.1135,3.1984,3.2783,3.3458,3.4393,3.5182,3.4999,3.5088,3.5198,3.5122,3.5025,3.5012,3.518,3.5121,3.515,3.5582,3.5999,3.6547,3.7533,3.8044,3.8472,3.9016,3.9112,3.9112,3.9112,3.977,4.0095,3.9663,3.9988,4.0259,4.0259,4.0971,4.1856,4.2962,4.3334,4.3515,4.3515,4.3515,4.3515,4.3515,4.3515,4.3515,4.3515,4.3515,4.3515,4.3515,4.3515,4.3515,4.3515,4.3515,4.3515]}]]